     2              OBSERVATION DATA    GPS                 RINEX VERSION / TYPE
ASRINEXO V2.9.7 UX USGS/MENLO_PARK 29-JAN-02 16:14          PGM / RUN BY / DATE
                                                            COMMENT
BIT 2 OF LLI (+4) FLAGS DATA COLLECTED UNDER "AS" CONDITION COMMENT
BIT 2 OF LLI (+4) FLAGS DATA COLLECTED UNDER "AS" CONDITION COMMENT
BIT 2 OF LLI (+4) FLAGS DATA COLLECTED UNDER "AS" CONDITION COMMENT
BIT 2 OF LLI (+4) FLAGS DATA COLLECTED UNDER "AS" CONDITION COMMENT
BIT 2 OF LLI (+4) FLAGS DATA COLLECTED UNDER "AS" CONDITION COMMENT
BIT 2 OF LLI (+4) FLAGS DATA COLLECTED UNDER "AS" CONDITION COMMENT
BIT 2 OF LLI (+4) FLAGS DATA COLLECTED UNDER "AS" CONDITION COMMENT
BIT 2 OF LLI (+4) FLAGS DATA COLLECTED UNDER "AS" CONDITION COMMENT
Original Marker Name: lae1 LAPE1__T6nR4e_S28S27_1919_GLO    COMMENT
Campaign Name: USGS Mojave 2002                             COMMENT
4-Character Station Name: LAE1                              COMMENT
6-Character Antenna Code: DMRCHT                            COMMENT
Vertical Measurement Point: BCR                             COMMENT
Vertical Offset to Rinex Ref. Point: 0.0348                 COMMENT
Radial Measurement Point: ECF                               COMMENT
Radial Offset to Rinex Ref. Point: 0.1897                   COMMENT
Antenna Height from Field Measurement: 1.1960 m             COMMENT
Additional Antenna Identification Info.:                    COMMENT
Turborogue and Ashtech Choke Ring                           COMMENT
Original XYZ: -2350853.1869 -4703342.6158 3599621.3649      COMMENT
New XYZ position is based on association with SCEC monument COMMENT
E1F2J8I6+0011. Position of that monument is believed to be  COMMENT
valid to within 1 m horizontally; vertical accuracy         COMMENT
should be no worse than 3-times this value.                 COMMENT
                                                            COMMENT
Revised Rinex header created by UCSD GPS archive for        COMMENT
GSAC on 27-Jun-2003 (2003:178) 16:02:46 GMT                 COMMENT
For assistance contact dagnew@ucsd.edu                      COMMENT
or anderson@python.ucsd.edu                                 COMMENT
                                                            COMMENT
T6NR4E S27 S28 S33 S34 1919                                 MARKER NAME
CHS US GEOLOGICAL SURVEY                                    OBSERVER / AGENCY
LP03360 ASHTECH Z-XII3 CC00                                 REC # / TYPE / VERS
CR14333 DORNE-MARGOL. TYPE T                                ANT # / TYPE
 -2350839.6563 -4703318.5399  3599600.5209                  APPROX POSITION XYZ
        1.1461        0.0000        0.0000                  ANTENNA: DELTA H/E/N
     1     1     0                                          WAVELENGTH FACT L1/2
     5    C1    L1    L2    P1    P2                        # / TYPES OF OBSERV
    30                                                      INTERVAL
  2002     1    27     0     1    0.000000                  TIME OF FIRST OBS
  2002     1    27    20    26    0.000000                  TIME OF LAST OBS
                                                            END OF HEADER
 02  1 27  0  1  0.0000000  0  7 06 24 04 09 10 30 05
  22868009.781   -16358201.637 8 -12706844.32146  22868009.447    22868024.8534
  21615196.032   -17415988.809 9 -13205972.94047  21615195.601    21615208.6864
  24444559.471    -6697049.697 7  -5201600.65145  24444559.483    24444579.9504
  24785069.941     1813093.550 7   1758130.40745  24785069.612    24785090.7674
  21343335.131   -21590507.479 9 -16805948.65247  21343334.157    21343347.9094
  20718587.393   -24905005.438 9 -19077238.05247  20718587.500    20718598.7694
  20319858.154   -27201089.207 9 -21170805.37648  20319857.415    20319868.5774
 02  1 27  0  1 30.0000000  0  7 06 24 04 09 10 30 05
  22855263.254   -16425184.470 8 -12759038.56446  22855262.911    22855278.2674
  21627868.122   -17349396.771 9 -13154083.09047  21627867.669    21627880.7574
  24463351.428    -6598297.749 7  -5124651.18145  24463351.444    24463371.8044
  24802213.172     1903180.629 7   1828327.82645  24802212.865    24802234.0644
  21332029.523   -21649918.352 9 -16852242.71847  21332028.534    21332042.2594
  20710361.134   -24948234.372 9 -19110922.86747  20710361.245    20710372.5004
  20325155.564   -27173251.139 9 -21149113.38848  20325154.838    20325166.0104
 02  1 27  0  2  0.0000000  0  7 06 24 04 09 10 30 05
  22842524.869   -16492124.498 8 -12811199.45446  22842524.499    22842539.8854
  21640580.040   -17282595.372 9 -13102030.10147  21640579.598    21640592.6964
  24482138.452    -6499571.525 7  -5047721.76545  24482138.369    24482158.7664
  24819338.684     1993174.464 7   1898452.59645  24819338.349    24819359.4654
  21320820.174   -21708823.470 9 -16898142.69247  21320819.184    21320832.8664
  20702231.095   -24990957.602 9 -19144213.62447  20702231.204    20702242.4304
  20330554.631   -27144878.786 9 -21127005.07248  20330553.910    20330565.0864
 02  1 27  0  2 30.0000000  0  7 06 24 04 09 10 30 05
  22829794.560   -16559021.424 8 -12863326.75546  22829794.223    22829809.5954
  21653331.480   -17215586.321 9 -13049815.30547  21653331.061    21653344.1604
  24500920.277    -6400872.441 7  -4970813.49845  24500920.125    24500940.6964
  24836445.793     2083072.253 7   1968502.50445  24836445.556    24836466.7314
  21309707.530   -21767220.311 9 -16943646.60447  21309706.557    21309720.2194
  20694197.657   -25033173.277 9 -19177108.89247  20694197.775    20694208.9774
  20336055.285   -27115972.671 9 -21104480.84048  20336054.562    20336065.7354
 02  1 27  0  3  0.0000000  0  7 06 24 04 09 10 30 05
  22817072.648   -16625874.601 8 -12915419.95946  22817072.320    22817087.7164
  21666121.987   -17148371.984 9 -12997440.53847  21666121.566    21666134.6844
  24519696.808    -6302201.729 7  -4893927.33245  24519696.677    24519717.2364
  24853534.317     2172871.953 7   2038475.98845  24853534.196    24853555.2634
  21298692.130   -21825106.112 9 -16988752.29647  21298691.163    21298704.7904
  20686261.291   -25074879.063 9 -19209606.84347  20686261.399    20686272.5874
  20341657.488   -27086533.052 9 -21081540.88748  20341656.774    20341667.9484
 02  1 27  0  3 30.0000000  0  7 06 24 04 09 10 30 05
  22804359.168   -16692684.220 8 -12967479.24646  22804358.791    22804374.0774
  21678951.057   -17080954.859 9 -12944907.75947  21678950.625    21678963.7744
  24538467.610    -6203561.469 7  -4817064.86245  24538467.512    24538487.9284
  24870603.418     2262570.266 7   2108370.49945  24870603.180    24870624.3574
  21287774.375   -21882478.944 9 -17033458.28047  21287773.391    21287786.9724
  20678422.097   -25116073.950 9 -19241706.70147  20678422.206    20678433.4074
  20347360.951   -27056561.045 9 -21058186.09148  20347360.246    20347371.4314
 02  1 27  0  4  0.0000000  0  7 06 24 04 09 10 30 05
  22791653.939   -16759449.877 8 -13019504.26546  22791653.557    22791668.8034
  21691818.254   -17013337.363 9 -12892218.84847  21691817.837    21691831.0074
  24557232.185    -6104953.678 8  -4740227.69845  24557231.962    24557252.6434
  24887652.781     2352164.393 7   2178183.82645  24887652.676    24887673.8724
  21276954.553   -21939336.922 9 -17077763.07047  21276953.592    21276967.1254
  20670680.425   -25156756.385 9 -19273407.24247  20670680.536    20670691.7164
  20353165.573   -27026057.595 9 -21034417.18148  20353164.867    20353176.0594
 02  1 27  0  4 30.0000000  0  7 06 24 04 09 10 30 05
  22778957.289   -16826170.192 8 -13071493.96046  22778956.947    22778972.1484
  21704723.425   -16945520.543 9 -12839374.62247  21704722.993    21704736.1814
  24575990.527    -6006378.536 8  -4663415.97945  24575990.315    24576011.0154
  24904682.284     2441653.328 7   2247915.22245  24904682.147    24904703.1514
  21266233.344   -21995676.802 9 -17121664.15247  21266232.374    21266245.8674
  20663036.812   -25196923.470 9 -19304706.21247  20663036.927    20663048.0864
  20359071.391   -26995022.288 9 -21010233.83748  20359070.679    20359081.8714
 02  1 27  0  5  0.0000000  0  7 06 24 04 09 10 30 05
  22766269.312   -16892844.981 8 -13123448.17346  22766269.030    22766284.2254
  21717666.039   -16877506.742 9 -12786376.90647  21717665.603    21717678.8134
  24594742.176    -5907837.936 7  -4586631.18445  24594742.124    24594762.7324
  24921691.048     2531033.958 7   2317562.21245  24921690.742    24921712.1134
  21255611.105   -22051496.541 9 -17165159.92947  21255610.117    21255623.5914
  20655491.591   -25236573.674 9 -19335602.41647  20655491.681    20655502.8174
  20365078.340   -26963455.682 9 -20985636.49348  20365077.630    20365088.8194
 02  1 27  0  5 30.0000000  0  7 06 24 04 09 10 30 05
  22753590.057   -16959474.461 8 -13175367.09646  22753589.748    22753604.9064
  21730645.639   -16809298.688 9 -12733227.82347  21730645.207    21730658.4374
  24613486.926    -5809334.109 7  -4509875.03345  24613486.848    24613507.5274
  24938678.545     2620302.970 7   2387122.22645  24938678.322    24938699.9204
  21245088.208   -22106794.261 9 -17208248.94147  21245087.232    21245100.6534
  20648044.930   -25275705.938 9 -19366095.02947  20648045.036    20648056.1354
  20371186.090   -26931359.179 9 -20960626.24148  20371185.382    20371196.5614
 02  1 27  0  6  0.0000000  0  7 06 24 04 09 10 30 05
  22740919.728   -17026056.797 8 -13227249.28646  22740919.409    22740934.5284
  21743662.085   -16740896.889 9 -12679927.77547  21743661.656    21743674.9194
  24632224.686    -5710866.872 7  -4433147.38245  24632224.565    24632245.3824
  24955644.645     2709459.263 7   2456594.40745  24955644.466    24955666.0854
  21234665.347   -22161566.310 9 -17250928.34347  21234664.378    21234677.7604
  20640697.440   -25314317.150 9 -19396181.62847  20640697.533    20640708.5944
  20377394.903   -26898731.786 9 -20935202.31148  20377394.193    20377405.3924
 02  1 27  0  6 30.0000000  0  7 06 24 04 09 10 30 05
  22728258.215   -17092592.835 8 -13279095.40946  22728257.915    22728272.9864
  21756714.733   -16672304.878 9 -12626479.51047  21756714.330    21756727.6054
  24650954.981    -5612439.206 7  -4356450.53745  24650954.829    24650975.5134
  24972588.529     2798498.775 7   2525975.57345  24972588.406    24972609.9934
  21224342.613   -22215812.085 9 -17293197.66147  21224341.644    21224355.0214
  20633449.110   -25352407.056 9 -19425862.01547  20633449.220    20633460.2734
  20383704.257   -26865575.799 9 -20909366.49548  20383703.536    20383714.7684
 02  1 27  0  7  0.0000000  0  7 06 24 04 09 10 30 05
  22715605.794   -17159081.205 8 -13330904.38846  22715605.444    22715620.5244
  21769803.381   -16603523.963 9 -12572884.04447  21769802.959    21769816.2594
  24669677.549    -5514051.771 7  -4279785.05845  24669677.358    24669698.1394
  24989509.913     2887419.760 7   2595264.37845  24989509.662    24989531.3724
  21214120.697   -22269528.191 9 -17335054.24647  21214119.731    21214133.0694
  20626300.501   -25389973.021 9 -19455134.13947  20626300.599    20626311.6534
  20390114.254   -26831891.193 9 -20883118.77348  20390113.528    20390124.7444
 02  1 27  0  7 30.0000000  0  7 06 24 04 09 10 30 05
  22702962.571   -17225521.231 8 -13382675.70546  22702962.247    22702977.2814
  21782927.600   -16534555.996 9 -12519142.83347  21782927.163    21782940.4784
  24688392.187    -5415705.782 7  -4203151.85645  24688392.031    24688412.7614
  25006408.264     2976219.999 7   2664459.10645  25006407.993    25006429.7974
  21203999.986   -22322712.473 9 -17376496.42247  21203998.997    21204012.2864
  20619251.905   -25427013.472 9 -19483996.76747  20619251.999    20619263.0474
  20396624.712   -26797678.473 9 -20856459.52748  20396623.991    20396635.2184
 02  1 27  0  8  0.0000000  0  7 06 24 04 09 10 30 05
  22690328.528   -17291912.867 8 -13434409.31046  22690328.223    22690343.2054
  21796086.878   -16465403.632 9 -12465257.93647  21796086.433    21796099.7544
  24707098.604    -5317403.212 7  -4126552.49945  24707098.512    24707119.2844
  25023283.067     3064896.718 7   2733557.57245  25023282.821    25023304.6354
  21193980.853   -22375362.981 9 -17417522.66847  21193979.863    21193993.1144
  20612303.550   -25463526.933 9 -19512448.74947  20612303.659    20612314.6984
  20403235.452   -26762938.778 9 -20829389.65448  20403234.734    20403245.9634
 02  1 27  0  8 30.0000000  0  7 06 24 04 09 10 30 05
  22677703.913   -17358255.316 8 -13486104.58446  22677703.583    22677718.5074
  21809280.990   -16396068.351 9 -12411230.51147  21809280.539    21809293.8874
  24725796.508    -5219145.030 7  -4049987.71445  24725796.407    24725817.2144
  25040133.940     3153447.649 7   2802558.02145  25040133.726    25040155.5694
  21184063.734   -22427477.335 9 -17458131.14847  21184062.759    21184075.9574
  20605455.856   -25499511.445 9 -19540488.56647  20605455.970    20605467.0094
  20409946.386   -26727672.598 9 -20801909.53848  20409945.659    20409956.8984
 02  1 27  0  9  0.0000000  0  6 06 24 04 10 30 05
  22665089.099   -17424546.295 8 -13537759.74246  22665088.746    22665103.6274
  21822509.858   -16326550.475 9 -12357060.80647  21822509.411    21822522.7694
  24744486.159    -5120930.717 7  -3973457.11545  24744485.858    24744506.8004
  21174249.373   -22479051.677 9 -17498318.84247  21174248.393    21174261.5584
  20598709.520   -25534963.532 9 -19568113.50547  20598709.630    20598720.6594
  20416757.733   -26691878.664 9 -20774018.18248  20416757.013    20416768.2764
 02  1 27  0  9 30.0000000  0  5 06 24 10 30 05
  22652488.848   -17490760.626 8 -13589355.18546  22652488.449    22652503.3054
  21835777.772   -16256827.374 9 -12302731.18047  21835777.296    21835790.6554
  21164542.854   -22530059.077 9 -17538064.76047  21164541.913    21164555.0534
  20592069.467   -25569857.063 9 -19595303.20547  20592069.567    20592080.5604
  20423674.049   -26655533.334 9 -20745697.16848  20423673.325    20423684.5874
 02  1 27  0 10  0.0000000  0  5 06 24 10 30 05
  22639896.589   -17556932.964 8 -13640917.90746  22639896.206    22639910.9994
  21849077.646   -16186936.212 8 -12248270.60047  21849077.189    21849090.5844
  21154937.996   -22580532.442 9 -17577394.55747  21154937.042    21154950.1504
  20585529.273   -25604225.646 9 -19622083.85547  20585529.375    20585540.3554
  20430688.392   -26618672.712 9 -20716974.63148  20430687.649    20430698.9344
 02  1 27  0 10 30.0000000  0  5 06 24 10 30 05
  22627312.448   -17623062.529 8 -13692447.28946  22627312.068    22627326.8104
  21862409.174   -16116878.809 9 -12193680.47747  21862408.709    21862422.1094
  21145435.144   -22630469.944 9 -17616306.79747  21145434.191    21145447.2424
  20579089.331   -25638067.472 9 -19648454.04347  20579089.443    20579100.4254
  20437800.679   -26581297.527 9 -20687851.12848  20437799.936    20437811.2404
 02  1 27  0 11  0.0000000  0  5 06 24 10 30 05
  22614737.181   -17689145.460 8 -13743940.32946  22614736.824    22614751.4744
  21875772.543   -16046653.919 8 -12138959.84547  21875772.098    21875785.4754
  21136035.298   -22679866.074 9 -17654797.19447  21136034.338    21136047.3604
  20572750.567   -25671377.640 9 -19674409.95547  20572750.681    20572761.6454
  20445011.374   -26543405.053 9 -20658324.54748  20445010.644    20445021.9544
 02  1 27  0 11 30.0000000  0  6 06 24 10 30 17 05
  22602169.887   -17755186.525 8 -13795400.74546  22602169.534    22602184.0924
  21889166.429   -15976268.860 9 -12084114.40747  21889166.006    21889179.3644
  21126737.785   -22728724.100 9 -17692868.29347  21126736.845    21126749.8794
  20566512.242   -25704160.003 9 -19699954.59347  20566512.360    20566523.2964
  25059489.053    -5546345.795 7  -3969474.61945  25059488.578    25059511.7854
  20452319.284   -26505001.620 9 -20628399.81948  20452318.574    20452329.8824
 02  1 27  0 12  0.0000000  0  6 06 24 10 30 17 05
  22589609.682   -17821190.286 8 -13846832.09546  22589609.299    22589623.8964
  21902589.424   -15905730.905 8 -12029149.82047  21902588.973    21902602.3374
  21117542.208   -22777046.857 9 -17730522.29547  21117541.261    21117554.2824
  20560373.668   -25736418.178 9 -19725090.76947  20560373.789    20560384.7204
  25042534.196    -5635443.531 7  -4038901.10045  25042533.545    25042556.6104
  20459723.332   -26466093.251 9 -20598081.63348  20459722.619    20459733.9064
 02  1 27  0 12 30.0000000  0  7 06 24 23 10 30 17 05
  22577061.455   -17887130.750 8 -13898214.11846  22577061.116    22577075.6704
  21916046.018   -15835016.146 8 -11974047.47147  21916045.577    21916058.9824
  24222308.593                                    24222313.271    24222324.4344
  21108453.742   -22824806.863 9 -17767737.78847  21108452.773    21108465.7534
  20554339.972   -25768125.218 9 -19749797.49647  20554340.097    20554351.0094
  25025606.200    -5724399.458 7  -4108217.09345  25025605.575    25025628.4824
  20467228.128   -26426655.380 9 -20567350.84848  20467227.413    20467238.7024
 02  1 27  0 13  0.0000000  0  7 06 24 23 10 30 17 05
  22564524.638   -17953011.681 8 -13949549.76046  22564524.265    22564538.7874
  21929534.990   -15764131.203 8 -11918812.51047  21929534.569    21929548.0384
  24202282.325                                    24202288.514    24202311.0044
  21099471.804   -22872006.838 9 -17804516.89447  21099470.821    21099483.7864
  20548410.631   -25799283.817 9 -19774076.86747  20548410.741    20548421.6354
  25008704.520    -5813216.825 7  -4177425.11645  25008703.915    25008726.7894
  20474832.735   -26386693.214 9 -20536211.52548  20474832.009    20474843.3044
 02  1 27  0 13 30.0000000  0  7 06 24 23 10 30 17 05
  22551998.813   -18018834.661 8 -14000840.23946  22551998.466    22552012.9724
  21943055.596   -15693080.166 8 -11863448.12347  21943055.179    21943068.6904
  24182264.122    -1000251.93954                  24182261.958    24182283.3494
  21090596.413   -22918646.770 9 -17840859.60047  21090595.445    21090608.3844
  20542585.512   -25829894.864 9 -19797929.57448  20542585.634    20542596.4874
  24991828.989    -5901897.250 7  -4246526.43345  24991828.428    24991851.0404
  20482536.458   -26346209.999 9 -20504666.18848  20482535.736    20482547.0374
 02  1 27  0 14  0.0000000  0  7 06 24 23 10 30 17 05
  22539483.709   -18084601.459 8 -14052086.94446  22539483.341    22539497.8264
  21956606.991   -15621867.423 8 -11807957.72847  21956606.558    21956620.0924
  24162250.240    -1407676.22517  -1082199.57545  24162249.852    24162270.2494
  21081827.560   -22964727.109 9 -17876766.26447  21081826.585    21081839.5054
  20536864.431   -25859959.269 9 -19821356.33148  20536864.545    20536875.3814
  24974979.271    -5990442.214 7  -4315522.18545  24974978.662    24975001.2714
  20490338.652   -26305209.110 9 -20472717.47348  20490337.934    20490349.2534
 02  1 27  0 14 30.0000000  0  7 06 24 23 10 30 17 05
  22526979.194   -18150312.387 8 -14103290.11146  22526978.817    22526993.2994
  21970188.596   -15550495.857 8 -11752343.57347  21970188.135    21970201.7144
  24142244.117    -1512808.733 7  -1164120.63345  24142241.524    24142264.7624
  21073165.324   -23010247.041 9 -17912236.24447  21073164.342    21073177.2464
  20531247.433   -25889476.484 9 -19844356.70748  20531247.543    20531258.3494
  24958155.412    -6078851.586 7  -4384412.25445  24958154.719    24958177.1594
  20498239.037   -26263692.517 9 -20440366.90748  20498238.315    20498249.6314
 02  1 27  0 15  0.0000000  0  7 06 24 23 10 30 17 05
  22514485.506   -18215966.401 8 -14154448.94046  22514485.156    22514499.5944
  21983800.111   -15478966.964 8 -11696606.82647  21983799.672    21983813.2994
  24122245.129    -1617904.064 7  -1246012.74545  24122244.178    24122265.9434
  21064610.220   -23055203.870 9 -17947267.44747  21064609.265    21064622.1554
  20525734.932   -25918444.637 9 -19866929.25148  20525735.039    20525745.8294
  24941357.478    -6167123.941 7  -4453195.53745  24941356.849    24941379.1364
  20506237.504   -26221660.565 9 -20407614.76648  20506236.778    20506248.0724
 02  1 27  0 15 30.0000000  0  7 06 24 23 10 30 17 05
  22502002.845   -18281562.444 8 -14205562.59646  22502002.498    22502016.9204
  21997441.248   -15407282.431 8 -11640748.80247  21997440.798    21997454.4424
  24102253.666    -1722959.272 7  -1327873.57245  24102252.588    24102274.3384
  21056162.702   -23099595.703 9 -17981858.39247  21056161.733    21056174.5914
  20520327.272   -25946861.926 9 -19889072.54948  20520327.373    20520338.1424
  24924585.698    -6255258.253 7  -4521871.25145  24924585.000    24924607.4394
  20514333.870   -26179113.978 9 -20374461.61148  20514333.143    20514344.4374
 02  1 27  0 16  0.0000000  0  7 06 24 23 10 30 17 05
  22489531.401   -18347099.707 8 -14256630.46046  22489531.032    22489545.4364
  22011111.697   -15335444.045 8 -11584770.89047  22011111.255    22011124.8834
  24082270.455    -1827971.352 7  -1409700.79445  24082269.492    24082290.9624
  21047823.050   -23143420.415 9 -18016007.42047  21047822.076    21047834.9084
  20515024.727   -25974726.823 9 -19910785.40748  20515024.844    20515035.5644
  24907840.480    -6343253.451 7  -4590438.56545  24907839.762    24907862.1684
  20522528.015   -26136053.643 9 -20340908.12848  20522527.300    20522538.5874
 02  1 27  0 16 30.0000000  0  7 06 24 23 10 30 17 05
  22477071.222   -18412577.802 8 -14307652.22646  22477070.858    22477085.1844
  22024811.050   -15263453.765 8 -11528674.62647  22024810.601    22024824.2114
  24062295.790    -1932938.011 7  -1491492.61645  24062294.950    24062316.3994
  21039591.661   -23186676.247 9 -18049713.17747  21039590.705    21039603.5034
  20509827.525   -26002038.229 9 -19932066.97548  20509827.642    20509838.3454
  24891121.953    -6431108.928 7  -4658896.98745  24891121.246    24891143.4274
  20530819.676   -26092480.870 9 -20306955.34848  20530818.950    20530830.2434
 02  1 27  0 17  0.0000000  0  7 06 24 23 10 30 17 05
  22464622.541   -18477995.800 8 -14358627.16946  22464622.136    22464636.4364
  22038538.966   -15191313.294 8 -11472461.33647  22038538.517    22038552.1324
  24042330.356    -2037856.266 8  -1573246.73545  24042329.532    24042350.9864
  21031468.922   -23229361.091 9 -18082974.01247  21031467.958    21031480.7224
  20504735.969   -26028794.401 9 -19952915.89648  20504736.077    20504746.7594
  24874430.240    -6518823.421 7  -4727245.55245  24874429.402    24874451.5504
  20539208.671   -26048396.554 9 -20272603.96748  20539207.942    20539219.2224
 02  1 27  0 17 30.0000000  0  7 06 24 23 10 30 17 05
  22452185.095   -18543354.470 8 -14409555.86946  22452184.666    22452198.9514
  22052294.798   -15119026.036 8 -11416133.65347  22052294.374    22052307.9754
  24022374.403    -2142724.800 8  -1654962.09645  24022373.517    24022394.9484
  21023454.933   -23271474.641 9 -18115789.67347  21023453.966    21023466.7184
  20499750.015   -26054995.564 9 -19973332.33248  20499750.118    20499760.7964
  24857765.098    -6606397.633 7  -4795484.81345  24857764.329    24857786.2604
  20547694.505   -26003803.169 9 -20237855.89848  20547693.778    20547705.0964
 02  1 27  0 18  0.0000000  0  7 06 24 23 10 30 17 05
  22439759.341   -18608651.782 8 -14460436.76646  22439758.928    22439773.1604
  22066078.492   -15046592.379 8 -11359691.89847  22066078.062    22066091.6454
  24002428.674    -2247539.470 8  -1736635.49845  24002427.825    24002449.1534
  21015550.166   -23313013.933 9 -18148157.85947  21015549.198    21015561.9414
  20494870.160   -26080639.080 9 -19993314.23648  20494870.267    20494880.9304
  24841127.027    -6693829.509 7  -4863613.13045  24841126.266    24841148.3014
  20556277.250   -25958700.536 9 -20202711.01048  20556276.526    20556287.8564
 02  1 27  0 18 30.0000000  0  7 06 24 23 10 30 17 05
  22427345.257   -18673887.602 8 -14511269.75046  22427344.842    22427359.0444
  22079889.630   -14974014.544 8 -11303137.79647  22079889.211    22079902.7874
  23982493.605    -2352298.075 8  -1818265.21745  23982492.776    23982514.0474
  21007754.962   -23353977.673 9 -18180077.56847  21007753.995    21007766.7124
  20490096.590   -26105724.039 9 -20012860.89848  20490096.701    20490107.3604
  24824516.262    -6781118.433 7  -4931630.05545  24824515.555    24824537.2154
  20564956.622   -25913090.374 9 -20167170.65248  20564955.877    20564967.2094
 02  1 27  0 19  0.0000000  0  7 06 24 23 10 30 17 05
  22414943.186   -18739060.492 8 -14562053.69346  22414942.768    22414956.9474
  22093727.927   -14901294.054 8 -11246472.54047  22093727.521    22093741.1164
  23962569.731    -2456997.373 7  -1899848.71845  23962568.979    23962590.1464
  21000069.722   -23394363.608 9 -18211547.04547  21000068.765    21000081.4484
  20485429.704   -26130248.530 9 -20031970.83948  20485429.802    20485440.4634
  24807932.761    -6868263.042 7  -4999534.49845  24807932.128    24807953.7174
  20573732.403   -25866973.266 9 -20131235.27648  20573731.672    20573743.0144
 02  1 27  0 19 30.0000000  0  7 06 24 23 10 30 17 05
  22402552.732   -18804172.233 8 -14612789.99246  22402552.336    22402566.4514
  22107592.589   -14828435.030 8 -11189699.32647  22107592.162    22107605.7604
  23942657.149    -2561637.058 7  -1981385.76545  23942656.424    23942677.6294
  20992494.329   -23434172.220 9 -18242566.65747  20992493.379    20992506.0264
  20480869.197   -26154213.845 9 -20050645.04948  20480869.309    20480879.9584
  24791376.550    -6955264.855 7  -5067327.69745  24791375.878    24791397.3464
  20582604.058   -25820352.515 9 -20094907.44848  20582603.330    20582614.6804
 02  1 27  0 20  0.0000000  0  7 06 24 23 10 30 17 05
  22390174.739   -18869218.641 8 -14663475.38246  22390174.345    22390188.3884
  22121483.835   -14755436.100 8 -11132817.09847  22121483.406    22121497.0294
  23922757.149    -2666210.907 7  -2062871.52345  23922756.491    23922777.5764
  20985029.815   -23473398.278 9 -18273132.33047  20985028.867    20985041.4834
  20476416.023   -26177615.258 9 -20068879.85448  20476416.132    20476426.7874
  24774848.232    -7042119.704 7  -5135006.39145  24774847.571    24774869.1944
  20591571.993   -25773225.776 9 -20058185.34148  20591571.272    20591582.6384
 02  1 27  0 20 30.0000000  0  7 06 24 23 10 30 17 05
  22377808.928   -18934200.955 8 -14714110.82646  22377808.546    22377822.5524
  22135401.019   -14682301.032 8 -11075828.78647  22135400.581    22135414.2264
  23902869.754    -2770718.453 7  -2144305.62045  23902869.028    23902890.0134
  20977675.981   -23512042.469 9 -18303244.60247  20977675.028    20977687.6354
  20472069.949   -26200453.692 9 -20086675.97748  20472070.061    20472080.7034
  24758347.719    -7128828.986 7  -5202571.66245  24758346.935    24758368.7324
  20600635.555   -25725596.523 9 -20021071.66848  20600634.837    20600646.2154
 02  1 27  0 21  0.0000000  0  7 06 24 23 10 30 17 05
  22365455.527   -18999117.793 8 -14764695.25346  22365455.178    22365469.1444
  22149343.821   -14609031.174 8 -11018735.44247  22149343.419    22149357.0864
  23882995.580    -2875156.163 7  -2225685.29345  23882994.937    23883015.8394
  20970433.362   -23550102.506 9 -18332901.68547  20970432.392    20970444.9914
  20467831.398   -26222727.190 9 -20104031.88548  20467831.515    20467842.1304
  24741875.135    -7215391.073 7  -5270022.25545  24741874.367    24741896.1624
  20609794.635   -25677465.310 9 -19983566.85648  20609793.907    20609805.3044
 02  1 27  0 21 30.0000000  0  7 06 24 23 10 30 17 05
  22353114.632   -19063969.142 8 -14815228.64346  22353114.261    22353128.2304
  22163311.891   -14535628.836 8 -10961538.87147  22163311.478    22163325.1474
  23863135.132    -2979522.233 7  -2307009.16145  23863134.497    23863155.3224
  20963301.975   -23587577.762 9 -18362103.09547  20963301.009    20963313.5734
  20463700.410   -26244435.510 9 -20120947.39848  20463700.535    20463711.1094
  24725430.627    -7301806.101 7  -5337358.27645  24725430.032    24725451.4944
  20619048.813   -25628834.308 9 -19945672.59948  20619048.090    20619059.4944
 02  1 27  0 22  0.0000000  0  7 06 24 23 10 30 17 05
  22340786.441   -19128753.738 8 -14865710.01647  22340786.086    22340800.0214
  22177304.901   -14462095.421 8 -10904240.16147  22177304.472    22177318.1414
  23843288.917    -3083813.136 7  -2388274.44145  23843288.306    23843309.0154
  20956282.388   -23624465.541 9 -18390846.72947  20956281.428    20956293.9764
  20459677.294   -26265576.847 9 -20137421.10848  20459677.420    20459688.0004
  24709014.409    -7388072.486 7  -5404578.43545  24709013.627    24709035.0374
  20628398.006   -25579703.965 9 -19907389.24948  20628397.298    20628408.7014
 02  1 27  0 22 30.0000000  0  7 06 24 23 10 30 17 05
  22328471.045   -19193471.070 8 -14916138.97147  22328470.691    22328484.6044
  22191322.497   -14388432.912 8 -10846840.85647  22191322.017    22191335.7014
  23823457.526    -3188026.325 7  -2469479.14445  23823456.965    23823477.4744
  20949374.839   -23660764.764 9 -18419131.74447  20949373.880    20949386.3804
  20455762.262   -26286150.232 9 -20153452.25348  20455762.390    20455772.9564
  24692626.474    -7474189.721 7  -5471682.41045  24692625.732    24692647.1034
  20637841.927   -25530075.973 9 -19868718.11748  20637841.200    20637852.6244
 02  1 27  0 23  0.0000000  0  7 06 24 23 10 30 17 05
  22316168.558   -19258120.712 8 -14966515.19047  22316168.209    22316182.0884
  22205364.222   -14314643.320 8 -10789342.52547  22205363.757    22205377.4324
  23803641.425    -3292159.291 7  -2550621.33745  23803640.793    23803661.2234
  20942579.487   -23696474.144 9 -18446957.14847  20942578.525    20942591.0164
  20451955.497   -26306154.767 9 -20169040.14448  20451955.616    20451966.1694
  24676267.085    -7560157.218 7  -5538669.68245  24676266.297    24676287.6114
  20647380.299   -25479951.620 9 -19829660.21348  20647379.586    20647390.9874
 02  1 27  0 23 30.0000000  0  7 06 24 23 10 30 17 05
  22303879.183   -19322701.260 8 -15016837.56647  22303878.806    22303892.6744
  22219429.808   -14240728.378 8 -10731746.51547  22219429.339    22219443.0284
  23783841.147    -3396208.921 7  -2631698.57345  23783840.530    23783860.7964
  20935896.721   -23731591.813 9 -18474321.47747  20935895.761    20935908.2404
  20448257.276   -26325588.873 9 -20184183.54348  20448257.386    20448267.9134
  24659936.409    -7645973.717 7  -5605539.30345  24659935.613    24659956.8874
  20657012.960   -25429331.777 9 -19790216.21248  20657012.248    20657023.6684
 02  1 27  0 24  0.0000000  0  7 06 24 23 10 30 17 05
  22291603.238   -19387211.319 8 -15067105.01947  22291602.855    22291616.7164
  22233519.102   -14166688.798 8 -10674053.39047  22233518.635    22233532.3344
  23764057.504    -3500171.843 7  -2712708.24345  23764056.826    23764076.9844
  20929327.018   -23766115.589 9 -18501223.04147  20929326.059    20929338.5244
  20444667.915   -26344450.878 9 -20198881.15448  20444668.021    20444678.5214
  24643634.772    -7731637.740 7  -5672290.13245  24643634.088    24643655.0264
  20666739.715   -25378217.409 9 -19750386.87648  20666738.994    20666750.4224
 02  1 27  0 24 30.0000000  0  7 06 24 23 10 30 17 05
  22279340.416   -19451652.297 8 -15117318.63447  22279340.044    22279353.8844
  22247631.320   -14092528.792 8 -10616266.42047  22247630.856    22247644.5604
  23744290.363    -3604047.558 8  -2793649.93845  23744289.691    23744309.7414
  20922870.212   -23800046.040 9 -18527662.26647  20922869.239    20922881.6984
  20441187.157   -26362742.047 9 -20213133.95548  20441187.271    20441197.7544
  24627361.917    -7817150.811 7  -5738923.31845  24627361.243    24627381.9934
  20676559.930   -25326612.067 9 -19710174.95448  20676559.196    20676570.6484
 02  1 27  0 25  0.0000000  0  7 06 24 23 10 30 17 05
  22267091.171   -19516022.133 8 -15167476.80747  22267090.814    22267104.5934
  22261766.386   -14018248.585 8 -10558385.79447  22261765.960    22261779.7164
  23724540.615    -3707832.064 8  -2874520.56745  23724539.963    23724559.8604
  20916526.757   -23833380.738 9 -18553637.26547  20916525.781    20916538.2124
  20437815.456   -26380460.058 9 -20226940.14248  20437815.575    20437826.0574
  24611118.274    -7902510.973 8  -5805437.37745  24611117.569    24611138.0274
  20686473.547   -25274515.837 9 -19669580.52448  20686472.803    20686484.2544
 02  1 27  0 25 30.0000000  0  7 06 24 23 10 30 17 05
  22254855.652   -19580319.416 8 -15217578.44647  22254855.315    22254869.0644
  22275924.099   -13943849.544 8 -10500412.57347  22275923.689    22275937.4914
  23704808.835    -3811521.956 8  -2955317.46545  23704808.184    23704827.9984
  20910297.138   -23866117.203 9 -18579146.11147  20910296.153    20910308.5634
  20434553.165   -26397603.347 9 -20240298.49248  20434553.283    20434563.7554
  24594903.866    -7987716.839 8  -5871831.22345  24594903.163    24594923.6634
  20696480.422   -25221929.502 9 -19628604.19348  20696479.685    20696491.1404
 02  1 27  0 26  0.0000000  0  7 06 24 23 10 30 17 05
  22242634.121   -19644543.510 8 -15267623.06047  22242633.785    22242647.4854
  22290103.977   -13869333.727 8 -10442348.36647  22290103.572    22290117.4594
  23685095.438    -3915114.907 8  -3036038.81845  23685094.771    23685114.5054
  20904181.514   -23898254.677 9 -18604188.21247  20904180.547    20904192.9314
  20431400.372   -26414171.114 9 -20253208.39348  20431400.486    20431410.9704
  24578718.966    -8072767.838 8  -5938104.39645  24578718.288    24578738.7144
  20706580.213   -25168854.791 9 -19587247.31348  20706579.473    20706590.9374
 02  1 27  0 26 30.0000000  0  7 06 24 23 10 30 17 05
  22230426.504   -19708694.492 8 -15317610.70447  22230426.126    22230439.8034
  22304305.721   -13794703.260 8 -10384194.80847  22304305.311    22304319.2234
  23665400.959    -4018608.684 8  -3116682.89345  23665400.295    23665419.8744
  20898179.994   -23929792.426 9 -18628762.99247  20898179.032    20898191.4064
  20428357.127   -26430163.165 9 -20265669.67948  20428357.243    20428367.7144
  24562563.548    -8157663.878 8  -6004256.83245  24562562.842    24562583.1594
  20716772.547   -25115293.817 9 -19545511.52548  20716771.817    20716783.3024
 02  1 27  0 27  0.0000000  0  7 06 24 23 10 30 17 05
  22218233.088   -19772770.812 8 -15367540.17347  22218232.718    22218246.3594
  22318529.039   -13719959.374 8 -10325952.88447  22318528.624    22318542.5704
  23645725.864    -4121999.968 8  -3197247.10445  23645725.156    23645744.7624
  20892293.008   -23960728.494 9 -18652868.92947  20892292.037    20892304.3894
  20425423.793   -26445577.751 9 -20277680.99548  20425423.903    20425434.3664
  24546437.872    -8242403.844 8  -6070287.65445  24546437.156    24546457.3204
  20727057.297   -25061247.266 9 -19503397.36948  20727056.567    20727068.0554
 02  1 27  0 27 30.0000000  0  7 06 24 23 10 30 17 05
  22206053.869   -19836772.420 8 -15417411.42347  22206053.500    22206067.1154
  22332773.479   -13645104.553 8 -10267624.50547  22332773.053    22332787.0224
  23626070.654    -4225286.749 7  -3277729.88645  23626069.963    23626089.5004
  20886520.550   -23991062.548 9 -18676505.76447  20886519.584    20886531.9114
  20422600.356   -26460414.817 9 -20289242.29748  20422600.458    20422610.9324
  24530341.871    -8326987.464 7  -6136196.65945  24530341.199    24530361.3334
  20737434.006   -25006717.492 9 -19460906.67548  20737433.264    20737444.7614
 02  1 27  0 28  0.0000000  0  7 06 24 23 10 30 17 05
  22193889.149   -19900697.810 8 -15467223.28347  22193888.801    22193902.3924
  22347038.819   -13570139.995 8 -10209210.62346  22347038.377    22347052.3744
  23606435.939    -4328465.789 7  -3358128.68645  23606435.336    23606454.8124
  20880863.010   -24020792.687 9 -18699672.01947  20880862.040    20880874.3464
  20419887.058   -26474673.108 9 -20300352.60448  20419887.146    20419897.5984
  24514275.853    -8411413.689 7  -6201983.01545  24514275.131    24514295.2314
  20747902.517   -24951705.179 9 -19418039.98248  20747901.786    20747913.2824
 02  1 27  0 28 30.0000000  0  7 06 24 23 10 30 17 05
  22181739.183   -19964545.777 8 -15516974.80747  22181738.862    22181752.4064
  22361324.758   -13495067.154 8 -10150712.38346  22361324.297    22361338.3224
  23586822.305    -4431534.016 7  -3438441.15245  23586821.764    23586841.2624
  20875320.744   -24049917.065 9 -18722366.25547  20875319.777    20875332.0694
  20417284.180   -26488351.181 9 -20311010.79748  20417284.268    20417294.7044
  24498239.988    -8495681.387 7  -6267645.84345  24498239.262    24498259.3614
  20758462.667   -24896211.403 9 -19374798.12348  20758461.936    20758473.4364
 02  1 27  0 29  0.0000000  0  7 06 24 23 10 30 17 05
  22169604.158   -20028315.398 8 -15566665.28647  22169603.823    22169617.3174
  22375631.010   -13419887.656 8 -10092131.02046  22375630.533    22375644.5484
  23567230.370    -4534488.617 7  -3518665.06945  23567229.758    23567249.2674
  20869894.038   -24078434.396 9 -18744587.47547  20869893.064    20869905.3284
  20414791.880   -26501448.236 9 -20321216.25648  20414791.964    20414802.3864
  24482234.499    -8579789.743 7  -6333184.51545  24482233.712    24482253.7704
  20769114.068   -24840238.087 9 -19331182.60448  20769113.342    20769124.8534
 02  1 27  0 29 30.0000000  0  7 06 24 23 10 30 17 05
  22157483.864   -20092007.606 8 -15616295.44447  22157483.524    22157496.9644
  22389956.846   -13344605.042 8 -10033469.30446  22389956.386    22389970.4064
  23547660.293    -4637328.554 8  -3598799.65345  23547659.556    23547679.0304
  20864582.681   -24106345.459 9 -18766336.27447  20864581.711    20864593.9454
  20412409.952   -26513965.109 9 -20330969.62248  20412410.033    20412420.4644
  24466259.068    -8663739.753 7  -6398599.80245  24466258.353    24466278.1584
  20779856.135   -24783788.367 9 -19287195.85848  20779855.395    20779866.9394
 02  1 27  0 30  0.0000000  0  7 06 24 23 10 30 17 05
  22145378.752   -20155619.728 8 -15665863.20547  22145378.404    22145391.8484
  22404302.372   -13269219.135 8  -9974727.10246  22404301.914    22404315.9164
  23528112.812    -4740049.458 7  -3678841.47945  23528112.078    23528131.4334
  20859387.219   -24133647.365 9 -18787610.41047  20859386.248    20859398.4414
  20410138.846   -26525899.455 9 -20340269.07748  20410138.955    20410149.3584
  24450314.161    -8747529.167 7  -6463889.94745  24450313.561    24450333.1094
  20790688.818   -24726862.251 9 -19242837.89848  20790688.086    20790699.6354
 02  1 27  0 30 30.0000000  0  7 06 24 23 10 30 17 05
  22133288.935   -20219151.343 8 -15715368.23447  22133288.573    22133302.0284
  22418667.146   -13193731.972 8  -9915906.00346  22418666.670    22418680.6594
  23508588.487    -4842648.910 8  -3758788.67045  23508587.704    23508606.9764
  20854307.819   -24160339.525 9 -18808409.42147  20854306.854    20854319.0164
  20407978.720   -26537250.951 9 -20349114.36448  20407978.810    20407989.2024
  24434399.956    -8831157.708 7  -6529054.75345  24434399.378    24434418.7704
  20801611.863   -24669461.453 9 -19198110.05348  20801611.134    20801622.6924
 02  1 27  0 31  0.0000000  0  7 06 24 23 10 30 17 05
  22121214.664   -20282601.400 8 -15764809.71647  22121214.312    22121227.7704
  22433050.885   -13118145.370 8  -9857007.42146  22433050.422    22433064.3694
  23489087.830    -4945123.991 8  -3838638.96245  23489087.024    23489106.1644
  20849344.686   -24186420.736 9 -18828732.36547  20849343.710    20849355.8544
  20405929.680   -26548018.559 9 -20357504.67248  20405929.769    20405940.1484
  24418516.349    -8914624.487 7  -6594093.52545  24418515.774    24418535.2584
  20812624.978   -24611587.356 9 -19153013.40348  20812624.240    20812635.8194
 02  1 27  0 31 30.0000000  0  7 06 24 23 10 30 17 05
  22109156.294   -20345968.185 8 -15814186.30547  22109155.920    22109169.3254
  22447453.384   -13042459.973 8  -9798031.85746  22447452.932    22447466.8884
  23469611.490    -5047471.213 8  -3918389.63845  23469610.767    23469629.6934
  20844498.227   -24211888.808 9 -18848577.54547  20844497.255    20844509.3674
  20403992.051   -26558200.731 9 -20365438.80048  20403992.140    20404002.5054
  24402663.915    -8997927.969 7  -6659005.04245  24402663.438    24402682.8914
  20823727.948   -24553240.927 9 -19107548.71048  20823727.213    20823738.7994
 02  1 27  0 32  0.0000000  0  7 06 24 23 10 30 17 05
  22097113.459   -20409253.354 8 -15863499.30547  22097113.067    22097126.4364
  22461873.794   -12966680.455 8  -9738982.94646  22461873.348    22461887.3004
  23450159.450    -5149690.518 8  -3998040.63345  23450158.694    23450177.5354
  20839768.106   -24236745.512 9 -18867946.33647  20839767.120    20839779.2164
  20402165.380   -26567799.591 9 -20372918.39148  20402165.475    20402175.8564
  24386842.333    -9081070.283 7  -6723790.98645  24386841.761    24386861.1624
  20834920.018   -24494426.400 9 -19061719.25248  20834919.285    20834930.8744
 02  1 27  0 32 30.0000000  0  7 06 24 23 10 30 17 05
  22085086.732   -20472453.890 8 -15912746.35247  22085086.323    22085099.6324
  22476312.257   -12890806.330 8  -9679860.31146  22476311.773    22476325.7394
  23430732.772    -5251777.012 8  -4077588.14345  23430732.002    23430750.6374
  20835154.934   -24260987.627 9 -18886836.22147  20835153.933    20835166.0044
  20400450.297   -26576812.291 9 -20379941.23948  20400450.382    20400460.7534
  24371051.850    -9164048.610 7  -6788449.14245  24371051.243    24371070.5834
  20846201.304   -24435143.237 9 -19015524.61948  20846200.556    20846212.1294
 02  1 27  0 33  0.0000000  0  7 06 24 23 10 30 17 05
  22073076.422   -20535568.104 8 -15961926.14747  22073076.018    22073089.2834
  22490768.618   -12814837.654 8  -9620664.00346  22490768.195    22490782.1224
  23411332.046    -5353726.921 8  -4157029.24345  23411331.263    23411349.7054
  20830659.033   -24284613.573 9 -18905245.98247  20830658.036    20830670.0614
  20398847.068   -26585237.183 9 -20386506.05648  20398847.172    20398857.5124
  24355292.969    -9246861.443 7  -6852978.35045  24355292.232    24355311.5404
  20857571.601   -24375392.288 9 -18968965.47748  20857570.854    20857582.4284
 02  1 27  0 33 30.0000000  0  7 06 24 23 10 30 17 05
  22061082.136   -20598598.161 8 -16011040.36347  22061081.721    22061094.9304
  22505242.041   -12738779.452 8  -9561397.94146  22505241.606    22505255.5794
  23391957.275    -5455540.696 8  -4236364.26845  23391956.476    23391974.8164
  20826280.011   -24307625.007 9 -18923176.90447  20826279.027    20826291.0344
  20397355.226   -26593076.856 9 -20392614.85948  20397355.325    20397365.6494
  24339565.092    -9329511.112 7  -6917380.41145  24339564.400    24339583.5024
  20869029.955   -24315178.278 9 -18922045.50247  20869029.202    20869040.8094
 02  1 27  0 34  0.0000000  0  7 06 24 23 10 30 17 05
  22049104.375   -20661541.130 8 -16060086.72247  22049103.973    22049117.1294
  22519732.508   -12662631.641 8  -9502062.04746  22519732.104    22519746.1084
  23372609.225    -5557213.658 8  -4315589.57545  23372608.440    23372626.6304
  20822018.478   -24330019.078 9 -18940626.76547  20822017.507    20822029.5124
  20395975.224   -26600328.661 9 -20398265.58748  20395975.320    20395985.6444
  24323868.686    -9411995.212 8  -6981653.45345  24323867.937    24323887.0394
  20880576.497   -24254500.951 9 -18874764.50447  20880575.758    20880587.3764
 02  1 27  0 34 30.0000000  0  7 06 24 23 10 30 17 05
  22037143.531   -20724395.210 8 -16109063.82047  22037143.153    22037156.2504
  22534239.951   -12586394.593 8  -9442656.61446  22534239.540    22534253.6104
  23353288.670    -5658742.344 8  -4394702.46445  23353287.895    23353306.0274
  20817874.718   -24351794.413 9 -18957594.50147  20817873.756    20817885.7504
  20394707.324   -26606991.337 9 -20403457.25348  20394707.428    20394717.7414
  24308204.054    -9494312.118 8  -7045796.21945  24308203.402    24308222.3784
  20892211.026   -24193361.156 9 -18827123.13947  20892210.284    20892221.9224
 02  1 27  0 35  0.0000000  0  7 06 24 23 10 30 17 05
  22025199.401   -20787161.635 8 -16157972.61847  22025199.022    22025212.0634
  22548763.597   -12510072.811 8  -9383185.16246  22548763.146    22548777.2294
  23333995.683    -5760126.338 8  -4473702.61645  23333994.832    23334012.9324
  20813848.460   -24372952.288 9 -18974081.09847  20813847.503    20813859.4744
  20393551.202   -26613066.552 9 -20408191.15548  20393551.298    20393561.6124
  24292570.960    -9576463.693 8  -7109810.16245  24292570.264    24292589.1974
  20903932.799   -24131762.928 9 -18779124.54947  20903932.069    20903943.7094
 02  1 27  0 35 30.0000000  0  7 06 24 23 10 30 17 05
  22013272.552   -20849837.441 8 -16206810.80447  22013272.169    22013285.1654
  22563303.467   -12433665.430 8  -9323646.99846  22563303.030    22563317.1474
  23314731.121    -5861360.723 8  -4552586.18845  23314730.279    23314748.2684
  20809940.323   -24393489.490 9 -18990084.05647  20809939.349    20809951.3024
  20392507.411   -26618551.615 9 -20412465.19848  20392507.501    20392517.8064
  24276969.874    -9658446.973 8  -7173692.97445  24276969.174    24276988.0414
  20915741.878   -24069705.922 9 -18730768.47747  20915741.134    20915752.8014
 02  1 27  0 36  0.0000000  0  7 06 24 23 10 30 17 05
  22001362.955   -20912422.444 8 -16255578.23947  22001362.564    22001375.5204
  22577859.152   -12357174.832 8  -9264043.99446  22577858.724    22577872.8934
  23295495.313    -5962443.576 8  -4631351.69645  23295494.545    23295512.4404
  20806150.233   -24413406.269 9 -19005603.57047  20806149.253    20806161.1974
  20391575.869   -26623446.896 9 -20416279.67348  20391575.976    20391586.2504
  24261400.791    -9740262.260 8  -7237444.88745  24261400.122    24261418.8054
  20927637.781   -24007192.775 9 -18682056.97047  20927637.028    20927648.7194
 02  1 27  0 36 30.0000000  0  7 06 24 23 10 30 17 05
  21989470.820   -20974915.992 8 -16304274.40947  21989470.397    21989483.2864
  22592430.312   -12280603.243 8  -9204377.89246  22592429.896    22592444.0474
  23276288.887    -6063372.536 8  -4709997.29245  23276288.122    23276305.9234
  20802478.275   -24432702.370 9 -19020639.43947  20802477.305    20802489.2134
  20390756.559   -26627752.223 9 -20419634.44048  20390756.643    20390766.9124
  24245863.714    -9821909.512 8  -7301065.86545  24245862.999    24245881.6084
  20939620.019   -23944225.812 9 -18632991.85147  20939619.273    20939630.9674
 02  1 27  0 37  0.0000000  0  7 06 24 23 10 30 17 05
  21977596.252   -21037316.735 8 -16352898.26447  21977595.817    21977608.6744
  22607016.728   -12203951.482 8  -9144649.30246  22607016.299    22607030.4444
  23257112.376    -6164144.412 8  -4788520.49646  23257111.597    23257129.3224
  20798924.706   -24451376.365 9 -19035190.54547  20798923.715    20798935.5894
  20390049.711   -26631466.764 9 -20422528.85448  20390049.792    20390060.0494
  24230358.737    -9903387.588 8  -7364555.04345  24230357.983    24230376.6184
  20951688.370   -23880806.251 9 -18583574.06147  20951687.628    20951699.3054
 02  1 27  0 37 30.0000000  0  7 06 24 23 10 30 17 05
  21965739.546   -21099623.323 8 -16401448.75347  21965739.155    21965752.0094
  22621618.079   -12127221.078 8  -9084859.43546  22621617.700    22621631.8094
  23237966.317    -6264756.141 8  -4866918.92546  23237965.562    23237983.2154
  20795489.675   -24469427.140 9 -19049256.02747  20795488.703    20795500.5754
  20389455.378   -26634589.802 9 -20424962.35648  20389455.454    20389465.7314
  24214886.085    -9984695.589 8  -7427911.67945  24214885.284    24214903.9384
  20963842.624   -23816935.453 9 -18533804.66247  20963841.884    20963853.5584
 02  1 27  0 38  0.0000000  0  7 06 24 23 10 30 17 05
  21953900.845   -21161835.445 8 -16449925.62847  21953900.491    21953913.3564
  22636233.990   -12050414.108 8  -9025009.90546  22636233.581    22636247.7214
  23218851.077    -6365205.852 8  -4945191.11146  23218850.345    23218867.9444
  20792173.241   -24486854.841 9 -19062835.99547  20792172.269    20792184.1284
  20388973.554   -26637121.680 9 -20426935.21448  20388973.637    20388983.8994
  24199445.767   -10065833.664 7  -7491135.87945  24199445.034    24199463.7344
  20976082.200   -23752616.104 9 -18483685.74247  20976081.461    20976093.1424
 02  1 27  0 38 30.0000000  0  7 06 24 23 10 30 17 05
  21942080.424   -21223951.611 8 -16498327.73047  21942080.054    21942092.9084
  22650864.364   -11973531.486 8  -8965101.41646  22650863.923    22650878.0694
  23199767.292    -6465490.109 8  -5023334.37146  23199766.616    23199784.1724
  20788975.674   -24503657.816 9 -19075929.16347  20788974.702    20788986.5714
  20388604.403   -26639061.385 9 -20428446.64048  20388604.493    20388614.7434
  24184037.983   -10146800.697 7  -7554226.81645  24184037.271    24184055.9264
  20988406.954   -23687849.193 9 -18433218.06947  20988406.229    20988417.9264
 02  1 27  0 39  0.0000000  0  7 06 24 23 10 30 17 05
  21930278.707   -21285969.650 8 -16546653.38847  21930278.354    21930291.1774
  22665508.941   -11896573.864 8  -8905134.50446  22665508.475    22665522.6494
  23180715.754    -6565605.370 8  -5101345.96046  23180715.055    23180732.5264
  20785897.270   -24519834.804 9 -19088534.55647  20785896.303    20785908.1494
  20388348.178   -26640407.727 9 -20429495.71648  20388348.270    20388358.5074
  24168663.043   -10227595.013 7  -7617183.15445  24168662.324    24168680.9994
  21000816.695   -23622635.773 9 -18382402.47647  21000815.957    21000827.6914
 02  1 27  0 39 30.0000000  0  7 06 24 23 10 30 17 05
  21918495.332   -21347891.562 8 -16594904.12647  21918494.952    21918507.7584
  22680166.959   -11819545.504 8  -8845112.45646  22680166.477    22680180.6974
  23161696.385    -6665551.758 8  -5179225.96746  23161695.692    23161713.0434
  20782937.531   -24535388.301 9 -19100654.09647  20782936.533    20782948.3774
  20388204.376   -26641163.214 9 -20430084.37248  20388204.450    20388214.6994
  24153320.573   -10308219.169 7  -7680006.90445  24153319.925    24153338.4424
  21013310.465   -23556980.648 9 -18331242.68347  21013309.738    21013321.4774
 02  1 27  0 40  0.0000000  0  7 06 24 23 10 30 17 05
  21906730.752   -21409714.418 8 -16643077.67647  21906730.366    21906743.1764
  22694838.556   -11742446.258 8  -8785035.16046  22694838.061    22694852.2664
  23142710.032    -6765324.720 8  -5256970.83946  23142709.266    23142726.5254
  20780096.881   -24550315.584 9 -19112285.67647  20780095.899    20780107.7374
  20388173.450   -26641325.705 9 -20430210.95548  20388173.521    20388183.7624
  24138011.012   -10388670.778 8  -7742696.21345  24138010.333    24138028.8024
  21025888.311   -23490883.916 9 -18279738.78047  21025887.581    21025899.3334
 02  1 27  0 40 30.0000000  0  7 06 24 23 10 30 17 05
  21894985.105   -21471437.669 8 -16691173.60947  21894984.708    21894997.5404
  22709523.202   -11665278.402 8  -8724904.41746  22709522.694    22709536.8294
  23123757.108    -6864922.039 8  -5334578.86046  23123756.327    23123773.4724
  20777375.451   -24564616.593 9 -19123429.25347  20777374.473    20777386.2894
  20388255.337   -26640895.316 9 -20429875.55748  20388255.415    20388265.6334
  24122734.282   -10468949.738 7  -7805250.98345  24122733.579    24122751.9414
  21038549.705   -23424348.025 9 -18227892.67947  21038548.976    21038560.7224
 02  1 27  0 41  0.0000000  0  7 06 24 23 10 30 17 05
  21883258.706   -21533059.727 8 -16739190.69147  21883258.336    21883271.1524
  22724220.655   -11588042.717 8  -8664720.81746  22724220.190    22724234.3214
  23104838.200    -6964340.549 8  -5412047.57246  23104837.464    23104854.4374
  20774773.368   -24578290.373 9 -19134084.08047  20774772.394    20774784.1874
  20388450.144   -26639871.481 9 -20429077.73548  20388450.220    20388460.4134
  24107490.503   -10549054.913 8  -7867670.35745  24107489.822    24107508.1004
  21051294.430   -23357374.250 9 -18175705.37347  21051293.703    21051305.4474
 02  1 27  0 41 30.0000000  0  7 06 24 23 10 30 17 05
  21871551.822   -21594579.501 8 -16787128.06547  21871551.440    21871564.2474
  22738930.799   -11510740.294 8  -8604485.21346  22738930.366    22738944.5444
  23085953.839    -7063577.449 8  -5489374.76046  23085953.107    23085970.0044
  20772290.728   -24591336.462 9 -19144249.79747  20772289.743    20772301.5354
  20388757.919   -26638253.944 9 -20427817.28448  20388757.997    20388768.1854
  24092279.955   -10628986.004 8  -7929954.08945  24092279.252    24092297.4714
  21064122.050   -23289964.747 9 -18123178.53647  21064121.332    21064133.0994
 02  1 27  0 42  0.0000000  0  7 06 24 23 10 30 17 05
  21859864.221   -21655998.012 8 -16834986.52847  21859863.831    21859876.5994
  22753652.876   -11433375.075 8  -8544200.68046  22753652.464    22753666.6744
  23067104.145    -7162632.128 8  -5566559.98146  23067103.447    23067120.2144
  20769927.260   -24603756.444 9 -19153927.63447  20769926.269    20769938.0454
  20389178.318   -26636044.605 9 -20426095.69448  20389178.396    20389188.5844
  24077102.203   -10708744.531 8  -7992103.37345  24077101.470    24077119.5784
  21077031.829   -23222123.576 9 -18070315.34347  21077031.105    21077042.8874
 02  1 27  0 42 30.0000000  0  7 06 24 23 10 30 17 05
  21848196.555   -21717311.501 8 -16882763.15247  21848196.189    21848208.9134
  22768387.155   -11355946.189 8  -8483866.53346  22768386.764    22768400.9364
  23048290.226    -7261499.138 8  -5643598.95946  23048289.471    23048306.1354
  20767683.490   -24615547.147 9 -19163115.12647  20767682.493    20767694.2664
  20389711.922   -26633240.380 9 -20423910.55448  20389712.016    20389722.1734
  24061957.939   -10788327.115 8  -8054115.58845  24061957.224    24061975.2824
  21090023.984   -23153849.723 9 -18017114.99547  21090023.261    21090035.0224
 02  1 27  0 43  0.0000000  0  7 06 24 23 10 30 17 05
  21836549.063   -21778519.214 8 -16930457.35547  21836548.682    21836561.3734
  22783133.297   -11278454.890 8  -8423483.75246  22783132.885    22783147.0534
  23029512.404    -7360176.198 8  -5720489.93646  23029511.701    23029528.2444
  20765559.520   -24626708.486 9 -19171812.20347  20765558.553    20765570.2854
  20390358.669   -26629841.647 9 -20421262.16048  20390358.748    20390368.8854
  24046847.231   -10867733.697 8  -8115990.66245  24046846.445    24046864.3744
  21103098.035   -23085145.458 9 -17963579.26247  21103097.310    21103109.0604
 02  1 27  0 43 30.0000000  0  7 06 24 23 10 30 17 05
  21824921.404   -21839622.370 8 -16978070.08247  21824921.032    21824933.6984
  22797890.574   -11200905.110 8  -8363055.40546  22797890.159    22797904.3834
  23010770.810    -7458662.841 8  -5797232.52946  23010770.106    23010786.5954
  20763554.923   -24637242.363 9 -19180020.34847  20763553.951    20763565.6694
  20391118.118   -26625850.582 9 -20418152.21248  20391118.203    20391128.3284
  24031769.755   -10946966.320 8  -8177730.19245  24031768.892    24031786.6524
  21116253.106   -23016015.369 9 -17909711.72547  21116252.373    21116264.1294
 02  1 27  0 44  0.0000000  0  7 06 24 23 10 30 17 05
  21813314.722   -21900615.549 8 -17025597.11147  21813314.347    21813326.9894
  22812659.518   -11123294.054 8  -8302579.29946  22812659.095    22812673.3494
  22992066.866    -7556951.881 8  -5873821.15746  22992066.135    22992082.5884
  20761670.673   -24647143.957 9 -19187735.80847  20761669.705    20761681.3924
  20391991.176   -26621262.437 9 -20414577.00848  20391991.268    20392001.3864
  24016726.224   -11026019.764 8  -8239330.10145  24016725.467    24016743.0484
  21129489.690   -22946456.852 9 -17855510.35047  21129488.969    21129500.7314
 02  1 27  0 44 30.0000000  0  7 06 24 23 10 30 17 05
  21801728.799   -21961499.400 8 -17073038.94847  21801728.428    21801741.0334
  22827439.542   -11045624.919 8  -8242057.94346  22827439.123    22827453.4014
  22973400.614    -7655042.677 8  -5950255.31146  22973399.847    22973416.2524
  20759906.445   -24656414.797 9 -19194959.77447  20759905.487    20759917.1434
  20392977.482   -26616079.201 9 -20410538.09748  20392977.595    20392987.7064
  24001716.529   -11104895.367 8  -8300791.42745  24001715.748    24001733.3304
  21142807.069   -22876473.903 9 -17800978.24547  21142806.340    21142818.1154
 02  1 27  0 45  0.0000000  0  7 06 24 23 10 30 17 05
  21790163.512   -22022274.916 8 -17120396.37447  21790163.134    21790175.7244
  22842229.881   -10967900.927 8  -8181493.83646  22842229.463    22842243.7974
  22954772.179    -7752934.588 8  -6026534.50446  22954771.423    22954787.8224
  20758261.842   -24665056.744 9 -19201693.69947  20758260.895    20758272.5504
  20394076.652   -26610302.996 9 -20406037.13948  20394076.754    20394086.8494
  23986740.456   -11183594.865 8  -8362115.52445  23986739.666    23986757.1774
  21156204.421   -22806070.528 9 -17746118.53847  21156203.685    21156215.4794
 02  1 27  0 45 30.0000000  0  7 06 24 23 10 30 17 05
  21778619.560   -22082938.330 8 -17167666.43847  21778619.186    21778631.7464
  22857030.877   -10890121.032 8  -8120886.16446  22857030.477    22857044.8904
  22936182.578    -7850622.101 8  -6102654.41846  22936181.892    22936198.2384
  20756737.540   -24673066.859 9 -19207935.28647  20756736.570    20756748.2124
  20395289.182   -26603930.896 9 -20401071.84148  20395289.285    20395299.3744
  23971798.334   -11262115.148 8  -8423299.97045  23971797.590    23971815.1114
  21169681.892   -22735246.081 9 -17690930.71047  21169681.165    21169692.9754
 02  1 27  0 46  0.0000000  0  7 06 24 23 10 30 17 05
  21767096.738   -22143490.696 9 -17214849.97547  21767096.353    21767108.8834
  22871841.917   -10812288.746 8  -8060237.67946  22871841.533    22871855.9604
  22917632.081    -7948104.685 8  -6178614.64646  22917631.364    22917647.6674
  20755333.144   -24680446.738 9 -19213685.78247  20755332.183    20755343.7964
  20396614.726   -26596965.089 9 -20395643.91848  20396614.827    20396624.9094
  23956890.077   -11340457.702 8  -8484345.92545  23956889.381    23956906.7764
  21183238.686   -22664004.839 9 -17635418.11547  21183237.950    21183249.7984
 02  1 27  0 46 30.0000000  0  7 06 24 23 10 30 17 05
  21755595.596   -22203929.204 8 -17261944.79847  21755595.205    21755607.6724
  22886662.924   -10734404.108 8  -7999548.39246  22886662.543    22886676.9364
  22899121.330    -8045378.260 8  -6254412.00946  22899120.619    22899136.8574
  20754048.997   -24687194.927 9 -19218944.05847  20754048.022    20754059.6134
  20398053.488   -26589404.282 9 -20389752.36648  20398053.591    20398063.6604
  23942015.952   -11418620.706 8  -8545251.95545  23942015.258    23942032.6354
  21196874.696   -22592347.341 9 -17579581.16247  21196873.949    21196885.8254
 02  1 27  0 47  0.0000000  0  7 06 24 23 10 30 17 05
  21744116.212   -22264253.304 8 -17308950.46447  21744115.782    21744128.2344
  22901493.611   -10656468.670 8  -7938819.53646  22901493.206    22901507.6054
  22880650.837    -8142440.475 8  -6330044.67446  22880650.166    22880666.3214
  20752884.956   -24693311.628 9 -19223710.26447  20752883.987    20752895.5584
  20399605.408   -26581248.749 9 -20383397.38748  20399605.517    20399615.5714
  23927176.011   -11496604.271 8  -8606018.16445  23927175.331    23927192.7194
  21210589.479   -22520276.113 9 -17523421.81847  21210588.725    21210600.5994
 02  1 27  0 47 30.0000000  0  7 06 24 23 10 30 17 05
  21732658.464   -22324463.564 8 -17355867.42447  21732658.054    21732670.4734
  22916333.290   -10578486.190 8  -7878054.00946  22916332.853    22916347.2324
  22862220.725    -8239290.330 8  -6405511.86546  22862220.075    22862236.1904
  20751840.802   -24698798.459 9 -19227985.67047  20751839.830    20751851.3964
  20401270.128   -26572500.563 9 -20376580.60648  20401270.225    20401280.2854
  23912369.989   -11574409.640 8  -8666645.51345  23912369.282    23912386.7254
  21224382.227   -22447794.977 9 -17466943.06347  21224381.476    21224393.3554
 02  1 27  0 48  0.0000000  0  7 06 24 23 10 30 17 05
  21721223.075   -22384556.348 8 -17402692.85647  21721222.681    21721235.0744
  22931182.120   -10500455.150 8  -7817250.64746  22931181.673    22931196.1094
  22843831.990    -8335922.958 8  -6480809.78746  22843831.335    22843847.4174
  20750916.969   -24703652.847 9 -19231768.26447  20750916.000    20750927.5454
  20403048.072   -26563157.236 9 -20369300.07948  20403048.164    20403058.2294
  23897598.350   -11652033.796 8  -8727131.66145  23897597.618    23897615.1604
  21238253.031   -22374903.598 9 -17410144.64147  21238252.274    21238264.1624
 02  1 27  0 48 30.0000000  0  7 06 24 23 10 30 17 05
  21709810.312   -22444530.218 9 -17449425.62647  21709809.931    21709822.2864
  22946040.057   -10422376.341 8  -7756410.07446  22946039.627    22946054.0614
  22825485.156    -8432335.387 8  -6555936.12346  22825484.456    22825500.5184
  20750113.636   -24707874.473 9 -19235057.79947  20750112.646    20750124.1664
  20404939.338   -26553218.640 9 -20361555.70448  20404939.424    20404949.5004
  23882861.467   -11729476.240 8  -8787476.20245  23882860.670    23882878.2084
  21252201.566   -22301603.775 9 -17353027.95347  21252200.817    21252212.7214
 02  1 27  0 49  0.0000000  0  7 06 24 23 10 30 17 05
  21698419.927   -22504386.764 9 -17496066.97847  21698419.547    21698431.8684
  22960906.221   -10344254.449 8  -7695535.91846  22960905.736    22960920.2004
  22807180.224    -8528527.751 8  -6630890.97446  22807179.529    22807195.5254
  20749430.124   -24711466.155 9 -19237856.46647  20749429.129    20749440.6314
  20406943.237   -26542687.872 9 -20353349.89648  20406943.327    20406953.3854
  23868158.611   -11806739.389 8  -8847681.02645  23868157.849    23868175.3994
  21266226.827   -22227900.700 9 -17295597.04747  21266226.078    21266238.0174
 02  1 27  0 49 30.0000000  0  7 06 24 23 10 30 17 05
  21687052.481   -22564122.615 9 -17542614.28847  21687052.116    21687064.3964
  22975780.865   -10266088.172 8  -7634627.17546  22975780.368    22975794.8214
  22788918.092    -8624495.052 8  -6705670.46146  22788917.421    22788933.3344
  20748866.946   -24714425.466 9 -19240162.38247  20748865.959    20748877.4434
  20409060.292   -26531562.723 9 -20344680.93748  20409060.391    20409070.4384
  23853490.388   -11883820.539 8  -8907744.04245  23853489.653    23853507.1314
  21280328.890   -22153794.171 9 -17237851.76247  21280328.145    21280340.0794
 02  1 27  0 50  0.0000000  0  7 06 24 23 10 30 17 05
  21675708.001   -22623737.788 9 -17589067.56547  21675707.630    21675719.8494
  22990663.388   -10187880.435 8  -7573686.13446  22990662.885    22990677.3154
  22770698.962    -8720236.062 8  -6780273.61546  22770698.324    22770714.1584
  20748423.873   -24716753.593 9 -19241976.47047  20748422.886    20748434.3724
  20411290.149   -26519844.674 9 -20335549.98448  20411290.238    20411300.2924
  23838856.588   -11960720.523 8  -8967665.89045  23838855.864    23838873.3274
  21294507.045   -22079287.633 9 -17179794.78247  21294506.300    21294518.2514
 02  1 27  0 50 30.0000000  0  7 06 24 23 10 30 17 05
  21664387.109   -22683229.016 9 -17635424.25247  21664386.747    21664398.9514
  23005553.871   -10109630.542 8  -7512712.23946  23005553.327    23005567.7914
  22752523.832    -8815745.941 8  -6854696.66446  22752523.196    22752538.9844
  20748101.287   -24718448.617 9 -19243297.22747  20748100.299    20748111.7764
  20413633.154   -26507531.889 9 -20325955.59148  20413633.246    20413643.3244
  23824257.716   -12037436.909 8  -9027444.67645  23824257.040    23824274.4584
  21308761.314   -22004381.109 9 -17121426.12547  21308760.572    21308772.5494
 02  1 27  0 51  0.0000000  0  7 06 24 23 10 30 17 05
  21653089.644   -22742597.073 9 -17681684.95447  21653089.298    21653101.4954
  23020451.701   -10031341.645 8  -7451707.94246  23020451.223    23020465.6854
  22734392.886    -8911023.916 8  -6928939.00746  22734392.198    22734407.9504
  20747898.818   -24719512.413 9 -19244126.11947  20747897.829    20747909.2944
  20416088.961   -26494626.554 9 -20315899.47248  20416089.056    20416099.1274
  23809693.598   -12113971.130 8  -9087081.52745  23809692.863    23809710.2444
  21323090.936   -21929078.628 9 -17062748.92447  21323090.192    21323102.1954
 02  1 27  0 51 30.0000000  0  7 06 24 23 10 30 17 05
  21641815.748   -22801841.291 9 -17727849.17447  21641815.403    21641827.5874
  23035356.645    -9953015.841 8  -7390674.91146  23035356.164    23035370.6514
  22716306.405    -9006068.000 8  -7002999.11246  22716305.719    22716321.4124
  20747816.285   -24719945.834 9 -19244463.81247  20747815.316    20747826.7644
  20418657.279   -26481129.724 9 -20305382.45548  20418657.398    20418667.4574
  23795164.006   -12190323.590 8  -9146576.74545  23795163.302    23795180.6704
  21337495.349   -21853383.144 9 -17003765.50147  21337494.600    21337506.6364
 02  1 27  0 52  0.0000000  0  7 06 24 23 10 30 17 05
  21630566.379   -22860956.801 9 -17773913.09747  21630566.021    21630578.1764
  23050269.119    -9874650.351 8  -7329610.93446  23050268.651    23050283.2024
  22698265.618    -9100872.117 8  -7076872.22146  22698264.909    22698280.5494
  20747854.414   -24719745.306 9 -19244307.51647  20747853.430    20747864.8644
  20421338.833   -26467038.018 9 -20294401.89148  20421338.921    20421348.9864
  23780669.812   -12266490.242 8  -9205927.19345  23780669.155    23780686.4024
  21351974.778   -21777293.420 9 -16944474.87247  21351974.036    21351986.0874
 02  1 27  0 52 30.0000000  0  7 06 24 23 10 30 17 05
  21619340.900   -22919946.698 9 -17819879.14447  21619340.542    21619352.6804
  23065188.005    -9796250.852 8  -7268520.46146  23065187.553    23065202.1814
  22680270.255    -9195437.720 8  -7150559.48446  22680269.496    22680285.0594
  20748012.389   -24718914.989 9 -19243660.47747  20748011.411    20748022.8324
  20424132.758   -26452355.876 9 -20282961.24948  20424132.837    20424142.9004
  23766210.263   -12342474.983 8  -9265135.88345  23766209.636    23766226.7424
  21366528.050   -21700815.655 9 -16884881.87647  21366527.301    21366539.3814
 02  1 27  0 53  0.0000000  0  7 06 24 23 10 30 17 05
  21608140.124   -22978806.767 9 -17865744.01847  21608139.766    21608151.8654
  23080113.769    -9717815.783 8  -7207402.27546  23080113.270    23080127.9234
  22662321.286    -9289759.227 8  -7224056.54446  22662320.562    22662336.0424
  20748290.763   -24717452.057 9 -19242520.49047  20748289.768    20748301.1934
  20427039.471   -26437080.889 9 -20271058.65248  20427039.545    20427049.6104
  23751785.900   -12418274.541 8  -9324200.28445  23751785.262    23751802.3224
  21381155.267   -21623949.297 9 -16824986.08547  21381154.525    21381166.6264
 02  1 27  0 53 30.0000000  0  7 06 24 23 10 30 17 05
  21596964.017   -23037537.197 9 -17911507.87147  21596963.663    21596975.7274
  23095045.670    -9639347.968 8  -7146258.56046  23095045.223    23095059.8934
  22644418.955    -9383835.472 8  -7297362.49246  22644418.256    22644433.7154
  20748689.100   -24715358.495 9 -19240889.09747  20748688.112    20748699.5284
  20430058.679   -26421214.818 9 -20258695.46648  20430058.745    20430068.8304
  23737396.717   -12493889.844 8  -9383121.10246  23737396.043    23737413.0094
  21395855.771   -21546697.931 9 -16764790.28947  21395855.028    21395867.0994
 02  1 27  0 54  0.0000000  0  7 06 24 23 10 30 17 05
  21585812.680   -23096137.289 9 -17957170.15747  21585812.333    21585824.3524
  23109983.641    -9560848.736 8  -7085090.37746  23109983.191    23109997.8104
  22626563.738    -9477664.386 8  -7370475.70946  22626563.047    22626578.4334
  20749207.326   -24712634.981 9 -19238766.82647  20749206.333    20749217.7604
  20433190.166   -26404758.552 9 -20245872.38348  20433190.247    20433200.3324
  23723042.527   -12569321.114 8  -9441898.51646  23723041.790    23723058.5874
  21410629.048   -21469064.237 9 -16704296.57547  21410628.310    21410640.3864
 02  1 27  0 54 30.0000000  0  7 06 24 23 10 30 17 05
  21574686.735   -23154603.982 9 -18002728.50547  21574686.396    21574698.3924
  23124927.599    -9482317.990 8  -7023897.63446  23124927.126    23124941.7664
  22608756.365    -9571241.781 8  -7443392.94846  22608755.694    22608771.0344
  20749845.733   -24709280.036 9 -19236152.53247  20749844.741    20749856.1674
  20436434.231   -26387710.837 9 -20232588.43848  20436434.331    20436444.3944
  23708723.651   -12644566.427 8  -9500531.03246  23708722.953    23708739.7174
  21425474.918   -21391048.905 9 -16643505.48747  21425474.183    21425486.2744
 02  1 27  0 55  0.0000000  0  7 06 24 23 10 30 17 05
  21563586.084   -23212937.845 9 -18048183.33847  21563585.730    21563597.6814
  23139876.882    -9403758.847 8  -6962682.76346  23139876.428    23139891.1204
  22590997.033    -9664566.839 8  -7516113.55046  22590996.339    22591011.6404
  20750603.878   -24705295.701 9 -19233047.79547  20750602.897    20750614.3194
  20439790.389   -26370074.067 9 -20218845.48848  20439790.478    20439800.5544
  23694439.969   -12719627.265 8  -9559019.78846  23694439.271    23694455.9494
  21440392.646   -21312655.956 9 -16582420.14947  21440391.935    21440404.0344
 02  1 27  0 55 30.0000000  0  7 06 24 23 10 30 17 05
  21552511.163   -23271136.631 9 -18093532.91147  21552510.797    21552522.7084
  23154831.517    -9325171.760 8  -6901446.10646  23154831.074    23154845.7374
  22573286.449    -9757636.025 8  -7588634.77146  22573285.730    22573300.9384
  20751481.878   -24700681.350 9 -19229452.13347  20751480.919    20751492.3474
  20443258.776   -26351847.666 9 -20204643.08748  20443258.876    20443268.9144
  23680191.564   -12794502.331 8  -9617363.80346  23680190.845    23680207.4514
  21455381.957   -21233886.927 9 -16521041.76547  21455381.238    21455393.3394
 02  1 27  0 56  0.0000000  0  7 06 24 23 10 30 17 05
  21541462.241   -23329198.695 9 -18138775.95047  21541461.856    21541473.7224
  23169791.445    -9246557.368 8  -6840188.17746  23169790.997    23169805.6484
  22555625.134    -9850446.217 8  -7660954.17246  22555624.396    22555639.5694
  20752479.888   -24695436.683 9 -19225365.31747  20752478.918    20752490.3214
  20446839.320   -26333031.770 9 -20189981.33748  20446839.398    20446849.4264
  23665978.780   -12869190.773 8  -9675562.39946  23665978.045    23665994.5234
  21470442.500   -21154743.543 9 -16459371.68147  21470441.772    21470453.8904
 02  1 27  0 56 30.0000000  0  7 06 24 23 10 30 17 05
  21530439.351   -23387123.861 9 -18183912.31047  21530438.958    21530450.7944
  23184756.130    -9167917.782 8  -6778910.60246  23184755.707    23184770.2734
  22538013.311    -9942996.002 8  -7733070.65746  22538012.599    22538027.6764
  20753597.508   -24689563.330 9 -19220788.60447  20753596.524    20753607.9104
  20450531.691   -26313628.122 9 -20174861.59448  20450531.761    20450541.8244
  23651801.231   -12943693.454 8  -9733616.23646  23651800.430    23651816.9204
  21485573.621   -21075229.213 9 -16397412.53747  21485572.897    21485585.0654
 02  1 27  0 57  0.0000000  0  7 06 24 23 10 30 17 05
  21519442.974   -23444909.541 9 -18228939.99047  21519442.590    21519454.4284
  23199725.641    -9089252.962 8  -6717613.36646  23199725.194    23199739.7644
  22520451.809   -10035281.394 8  -7804981.12046  22520451.116    22520466.1404
  20754834.929   -24683060.368 9 -19215721.29747  20754833.958    20754845.3224
  20454336.102   -26293635.755 9 -20159283.11948  20454336.188    20454346.2464
  23637659.361   -13018008.770 8  -9791524.07646  23637658.550    23637674.9484
  21500775.161   -20995344.995 9 -16335165.18947  21500774.423    21500786.6164
 02  1 27  0 57 30.0000000  0  7 06 24 23 10 30 17 05
  21508473.361   -23502554.855 9 -18273858.28047  21508472.964    21508484.7674
  23214699.550    -9010564.505 8  -6656297.72146  23214699.088    23214713.6834
  22502940.970   -10127300.521 8  -7876684.09546  22502940.259    22502955.2614
  20756191.987   -24675928.762 9 -19210164.12247  20756191.008    20756202.3724
  20458252.339   -26273055.784 9 -20143246.76048  20458252.407    20458262.4744
  23623553.147   -13092136.817 8  -9849285.98246  23623552.306    23623568.6514
  21516046.565   -20915093.704 9 -16272631.79447  21516045.821    21516058.0274
 02  1 27  0 58  0.0000000  0  7 06 24 23 10 30 17 05
  21497530.731   -23560058.193 9 -18318665.95347  21497530.350    21497542.1224
  23229677.756    -8931853.250 8  -6594964.31446  23229677.359    23229691.9854
  22485481.381   -10219050.379 8  -7948177.25346  22485480.696    22485495.6134
  20757668.676   -24668168.508 9 -19204117.10047  20757667.686    20757679.0194
  20462280.285   -26251888.681 9 -20126752.89548  20462280.348    20462290.4304
  23609482.570   -13166077.234 8  -9906901.68446  23609481.786    23609498.0114
  21531387.390   -20834477.439 9 -16209814.01147  21531386.641    21531398.8494
 02  1 27  0 58 30.0000000  0  7 06 24 23 10 30 17 05
  21486615.465   -23617417.808 9 -18363361.64247  21486615.086    21486626.8264
  23244660.192    -8853120.293 8  -6533613.98246  23244659.787    23244674.3994
  22468073.581   -10310527.965 8  -8019458.25246  22468072.917    22468087.7924
  20759264.935   -24659779.716 9 -19197580.30447  20759263.951    20759275.2754
  20466419.910   -26230134.692 9 -20109801.72348  20466419.972    20466430.0424
  23595447.876   -13239829.218 8  -9964370.56546  23595447.113    23595463.2574
  21546797.338   -20753498.010 9 -16146713.24347  21546796.583    21546808.7874
 02  1 27  0 59  0.0000000  0  7 06 24 23 10 30 17 05
  21475727.404   -23674634.393 9 -18407945.87747  21475727.044    21475738.7534
  23259646.278    -8774368.474 8  -6472248.96346  23259645.812    23259660.3844
  22450717.695   -10401732.747 8  -8090526.67346  22450717.032    22450731.8514
  20760980.337   -24650764.898 9 -19190555.69947  20760979.353    20760990.6664
  20470670.779   -26207796.209 9 -20092395.10948  20470670.859    20470680.8984
  23581448.702   -13313394.381 8 -10021693.86546  23581447.993    23581464.0894
  21562275.553   -20672159.670 9 -16083332.80747  21562274.828    21562287.0504
 02  1 27  0 59 30.0000000  0  7 06 24 23 10 30 17 05
  21464867.052   -23731705.512 9 -18452416.75547  21464866.692    21464878.3634
  23274635.790    -8695598.139 8  -6410869.51546  23274635.315    23274649.9094
  22433414.512   -10492661.051 8  -8161379.66346  22433413.791    22433428.5414
  20762815.049   -24641123.341 9 -19183042.72447  20762814.043    20762825.3284
  20475032.924   -26184873.084 9 -20074532.92448  20475033.000    20475043.0134
  23567485.305   -13386771.345 8 -10078870.51945  23567484.581    23567500.7054
  21577821.821   -20590463.731 9 -16019673.71547  21577821.115    21577833.3314
 02  1 27  1  0  0.0000000  0  7 06 24 23 10 30 17 05
  21454034.503   -23788630.561 9 -18496773.82347  21454034.121    21454045.7724
  23289628.445    -8616811.097 8  -6349477.05046  23289627.977    23289642.6244
  22416164.224   -10583311.048 8  -8232015.78846  22416163.483    22416178.1844
  20764768.696   -24630856.526 9 -19175042.53547  20764767.711    20764778.9964
  20479506.038   -26161366.639 9 -20056216.20048  20479506.103    20479516.1304
  23553557.605   -13459960.854 8 -10135901.09646  23553556.892    23553573.0514
  21593435.544   -20508413.437 9 -15955738.50547  21593434.816    21593447.0564
 02  1 27  1  0 30.0000000  0  7 06 24 23 10 30 17 05
  21443230.585   -23845404.999 9 -18541013.54347  21443230.211    21443241.8234
  23304624.765    -8538005.229 8  -6288069.91346  23304624.224    23304638.8834
  22398967.968   -10673677.094 8  -8302430.65546  22398967.258    22398981.9034
  20766841.778   -24619962.023 9 -19166553.24647  20766840.805    20766852.0734
  20484090.610   -26137274.534 9 -20037443.12448  20484090.699    20484100.7154
  23539666.207   -13532959.254 8 -10192782.76546  23539665.519    23539681.7754
  21609116.825   -20426008.005 9 -15891526.57047  21609116.110    21609128.3634
 02  1 27  1  1  0.0000000  0  7 06 24 23 10 30 17 05
  21432455.075   -23902030.241 9 -18585137.00947  21432454.710    21432466.2684
  23319623.865    -8459184.301 8  -6226651.03346  23319623.421    23319638.0534
  22381825.662   -10763759.562 8  -8372624.56046  22381824.936    22381839.5404
  20769033.723   -24608443.051 9 -19157577.35447  20769032.748    20769044.0014
  20488785.944   -26112600.337 9 -20018216.46548  20488786.039    20488796.0314
  23525810.772   -13605769.170 8 -10249517.56446  23525810.071    23525826.3114
  21624864.661   -20343252.659 9 -15827041.97447  21624863.958    21624876.2694
 02  1 27  1  1 30.0000000  0  7 06 24 23 10 30 17 05
  21421707.964   -23958506.338 9 -18629144.25347  21421707.591    21421719.1084
  23334625.391    -8380351.128 8  -6165222.61546  23334624.935    23334639.5774
  22364737.455   -10853557.273 8  -8442596.57546  22364736.755    22364751.4024
  20771344.117   -24596301.666 9 -19148116.47047  20771343.139    20771354.3574
  20493591.609   -26087346.373 9 -19998538.03948  20493591.692    20493601.7054
  23511991.026   -13678391.763 8 -10306106.39646  23511990.338    23512006.5114
  21640678.448   -20260151.112 9 -15762287.60447  21640677.721    21640690.0794
 02  1 27  1  2  0.0000000  0  7 06 24 23 10 30 17 05
  21410990.001   -24014829.222 9 -18673032.11547  21410989.611    21411001.1264
  23349629.534    -8301504.033 8  -6103783.35646  23349629.068    23349643.7084
  22347704.475   -10943065.065 8  -8512342.69046  22347703.787    22347718.3994
  20773773.250   -24583535.989 9 -19138169.12647  20773772.277    20773783.5124
  20498507.989   -26061510.468 9 -19978406.15548  20498508.078    20498518.0734
  23498207.498   -13750824.124 8 -10362547.00246  23498206.730    23498222.9064
  21656558.078   -20176703.238 9 -15697263.37547  21656557.367    21656569.7604
 02  1 27  1  2 30.0000000  0  7 06 24 23 10 30 17 05
  21400301.448   -24070997.400 9 -18716799.42447  21400301.050    21400312.5764
  23364636.100    -8222644.116 8  -6042334.09846  23364635.619    23364650.2554
  22330727.257   -11032280.189 8  -8581860.76446  22330726.560    22330741.1084
  20776321.158   -24570146.227 9 -19127735.48647  20776320.193    20776331.4104
  20503535.016   -26035093.442 9 -19957821.45548  20503535.098    20503545.0914
  23484460.208   -13823065.735 8 -10418838.97646  23484459.457    23484475.5854
  21672503.235   -20092911.269 9 -15631971.02547  21672502.539    21672514.9554
 02  1 27  1  3  0.0000000  0  7 06 24 23 10 30 17 05
  21389642.102   -24127012.174 9 -18760447.20347  21389641.719    21389653.2174
  23379644.458    -8143774.818 8  -5980877.52146  23379643.970    23379658.6124
  22313805.622   -11121202.909 8  -8651150.98546  22313804.955    22313819.4224
  20778987.181   -24556135.959 9 -19116818.33247  20778986.217    20778997.3994
  20508671.886   -26008098.887 9 -19936786.72048  20508671.962    20508681.9654
  23470748.855   -13895119.165 8 -10474984.30246  23470748.069    23470764.1834
  21688512.953   -20008780.196 8 -15566414.43147  21688512.215    21688524.6544
 02  1 27  1  3 30.0000000  0  7 06 24 23 10 30 17 05
  21379012.706   -24182869.557 9 -18803972.34747  21379012.318    21379023.7874
  23394654.784    -8064894.918 8  -5919412.67646  23394654.328    23394669.0544
  22296940.626   -11209828.329 8  -8720209.55646  22296939.960    22296954.3544
  20781771.610   -24541503.451 9 -19105416.32747  20781770.650    20781781.8014
  20513919.019   -25980525.005 9 -19915300.57348  20513919.109    20513929.0844
  23457073.747   -13966981.722 8 -10530980.91146  23457072.947    23457089.0354
  21704587.130   -19924310.151 8 -15500593.71247  21704586.397    21704598.8464
 02  1 27  1  4  0.0000000  0  7 06 24 23 10 30 17 05
  21368413.264   -24238569.623 9 -18847374.88247  21368412.876    21368424.3234
  23409666.705    -7986006.788 8  -5857941.43346  23409666.265    23409680.9604
  22280132.448   -11298155.346 8  -8789035.60746  22280131.746    22280146.0564
  20784674.000   -24526251.093 9 -19093531.31647  20784673.040    20784684.1674
  20519275.884   -25952374.433 9 -19893365.04448  20519275.971    20519285.9724
  23443434.696   -14038654.674 8 -10586829.77746  23443433.889    23443449.9414
  21720725.105   -19839504.982 8 -15434511.84947  21720724.375    21720736.8424
 02  1 27  1  4 30.0000000  0  7 06 24 23 10 30 17 05
  21357844.504   -24294108.627 9 -18890651.92547  21357844.112    21357855.5034
  23424680.475    -7907109.409 8  -5796462.95746  23424680.041    23424694.6764
  22263381.961   -11386178.975 8  -8857625.26246  22263381.252    22263395.5074
  20787694.672   -24510377.240 9 -19081162.03247  20787693.709    20787704.7934
  20524742.797   -25923645.486 9 -19870978.84148  20524742.896    20524752.8854
  23429832.270   -14110135.468 8 -10642528.90246  23429831.515    23429847.4464
  21736926.836   -19754364.622 8 -15368168.79247  21736926.099    21736938.5884
 02  1 27  1  5  0.0000000  0  7 06 24 23 10 30 17 05
  21347305.906   -24349488.926 9 -18933805.29747  21347305.528    21347316.8774
  23439694.964    -7828207.538 8  -5734980.99846  23439694.547    23439709.2464
  22246688.978   -11473900.396 8  -8925979.43146  22246688.278    22246702.4474
  20790832.805   -24493886.089 9 -19068311.73547  20790831.847    20790842.9184
  20530318.828   -25894343.082 9 -19848145.79348  20530318.946    20530328.9084
  23416265.659   -14181427.489 8 -10698080.94146  23416264.938    23416280.8444
  21753191.171   -19668895.363 8 -15301569.45847  21753190.440    21753202.9514
 02  1 27  1  5 30.0000000  0  7 06 24 23 10 30 17 05
  21336798.466   -24404705.635 9 -18976831.19747  21336798.072    21336809.3874
  23454710.886    -7749298.390 8  -5673493.35746  23454710.502    23454725.1664
  22230054.565   -11561313.848 8  -8994093.62246  22230053.855    22230067.9914
  20794088.811   -24476775.312 9 -19054978.61647  20794087.873    20794098.9194
  20536004.559   -25864464.565 9 -19824863.82348  20536004.650    20536014.6224
  23402735.662   -14252527.039 8 -10753483.01146  23402734.955    23402750.8354
  21769518.286   -19583096.036 8 -15234712.92847  21769517.566    21769530.1044
 02  1 27  1  6  0.0000000  0  7 06 24 23 10 30 17 05
  21326322.099   -24459758.848 9 -19019729.69847  21326321.705    21326332.9944
  23469727.661    -7670385.014 8  -5612002.42446  23469727.236    23469741.9294
  22213478.955   -11648418.557 8  -9061967.24146  22213478.239    22213492.3484
  20797462.278   -24459047.467 9 -19041164.67547  20797461.327    20797472.3844
  20541799.359   -25834012.683 9 -19801135.08248  20541799.448    20541809.4444
  23389242.056   -14323435.636 8 -10808736.29146  23389241.356    23389257.2094
  21785907.440   -19496970.812 8 -15167602.44747  21785906.711    21785919.2664
 02  1 27  1  6 30.0000000  0  7 06 24 23 10 30 17 05
  21315877.000   -24514647.760 9 -19062500.15447  21315876.616    21315887.8914
  23484744.859    -7591468.849 8  -5550509.31546  23484744.419    23484759.2084
  22196962.447   -11735212.666 8  -9129598.82847  22196961.723    22196975.7584
  20800952.819   -24440704.207 9 -19026871.18347  20800951.861    20800962.9364
  20547702.939   -25802988.971 9 -19776960.75048  20547703.031    20547713.0064
  23375784.731   -14394153.770 8 -10863841.16346  23375784.002    23375799.8294
  21802357.975   -19410523.014 8 -15100240.61447  21802357.222    21802369.8224
 02  1 27  1  7  0.0000000  0  8 06 24 23 10 30 17 05 15
  21305461.873   -24569379.102 9 -19105147.83047  21305461.496    21305472.7634
  23499760.781    -7512559.361 8  -5489021.39946  23499760.324    23499775.1324
  22180503.918   -11821701.871 8  -9196992.83347  22180503.207    22180517.2104
  20804558.858   -24421754.248 9 -19012104.94647  20804557.904    20804568.9394
  20553713.608   -25771402.738 9 -19752348.09848  20553713.700    20553723.6734
  23362362.080   -14464689.370 8 -10918803.80246  23362361.354    23362377.1404
  21818867.897   -19323763.218 8 -15032635.66447  21818867.132    21818879.7084
  24709070.337    -2813801.822 7  -2167638.09245  24709069.108    24709090.3504
 02  1 27  1  7 30.0000000  0  8 06 24 23 10 30 17 05 15
  21295079.710   -24623937.253 9 -19147660.54947  21295079.334    21295090.5684
  23514778.114    -7433642.867 8  -5427528.02646  23514777.678    23514792.4394
  22164106.595   -11907869.735 8  -9264136.43647  22164105.899    22164119.8084
  20808282.804   -24402184.628 9 -18996855.85447  20808281.846    20808292.8884
  20559833.780   -25739240.888 9 -19727286.90948  20559833.873    20559843.8664
  23348976.977   -14535028.205 8 -10973613.12146  23348976.241    23348991.9134
  21835439.368   -19236679.852 8 -14964778.58547  21835438.610    21835451.1884
  24692420.609    -2901295.180 7  -2235814.38545  24692419.464    24692440.5794
 02  1 27  1  8  0.0000000  0  8 06 24 23 10 30 17 05 15
  21284730.008   -24678324.709 9 -19190040.24847  21284729.638    21284740.8474
  23529795.753    -7354724.351 8  -5366033.09046  23529795.372    23529810.1494
  22147770.117   -11993717.724 8  -9331030.79447  22147769.388    22147783.2894
  20812123.752   -24382000.204 9 -18981127.70147  20812122.777    20812133.8184
  20566062.528   -25706508.424 9 -19701781.08948  20566062.631    20566072.6144
  23335628.570   -14605173.976 8 -11028271.99846  23335627.841    23335643.3714
  21852071.216   -19149279.150 8 -14896674.22347  21852070.476    21852083.0844
  24675797.274    -2988649.429 7  -2303882.27245  24675796.252    24675817.1184
 02  1 27  1  8 30.0000000  0  8 06 24 23 10 30 17 05 15
  21274413.214   -24732539.341 9 -19232285.28347  21274412.841    21274424.0194
  23544813.736    -7275804.425 8  -5304537.04546  23544813.395    23544828.0324
  22131495.051   -12079242.826 8  -9397673.53247  22131494.355    22131508.2074
  20816081.606   -24361201.424 9 -18964920.82847  20816080.627    20816091.6414
  20572399.836   -25673205.719 9 -19675830.92048  20572399.924    20572409.9164
  23322317.062   -14675125.971 8 -11082779.88946  23322316.327    23322331.8094
  21868763.079   -19061563.062 8 -14828324.11447  21868762.351    21868774.9884
  24659200.562    -3075863.538 7  -2371840.96445  24659199.722    24659220.6054
 02  1 27  1  9  0.0000000  0  8 06 24 23 10 30 17 05 15
  21264129.347   -24786580.886 9 -19274395.45347  21264128.980    21264140.1194
  23559831.564    -7196885.243 8  -5243041.57745  23559831.198    23559845.8354
  22115281.753   -12164443.619 8  -9464063.56847  22115281.070    22115294.8774
  20820156.000   -24339790.363 9 -18948236.85247  20820155.007    20820166.0054
  20578845.152   -25639335.258 9 -19649438.34748  20578845.252    20578855.2454
  23309042.202   -14744884.895 8 -11137137.31846  23309041.457    23309056.9204
  21885514.328   -18973535.124 8 -14759730.99747  21885513.594    21885526.2574
  24642630.617    -3162937.916 7  -2439690.82145  24642629.873    24642650.5814
 02  1 27  1  9 30.0000000  0  8 06 24 23 10 30 17 05 15
  21253878.476   -24840449.118 9 -19316370.56747  21253878.107    21253889.2144
  23574848.939    -7117968.677 8  -5181548.13545  23574848.542    23574863.1674
  22099130.321   -12249319.059 8  -9530200.08147  22099129.671    22099143.4294
  20824346.425   -24317769.347 9 -18931077.58347  20824345.446    20824356.4264
  20585398.068   -25604899.414 9 -19622605.21648  20585398.145    20585408.1624
  23295803.858   -14814451.947 8 -11191345.24646  23295803.141    23295818.5844
  21902324.173   -18885199.238 8 -14690897.92447  21902323.437    21902336.1204
  24626087.087    -3249873.428 7  -2507432.44445  24626086.326    24626106.9864
 02  1 27  1 10  0.0000000  0  8 06 24 23 10 30 17 05 15
  21243661.042   -24894141.482 9 -19358208.64447  21243660.680    21243671.7594
  23589865.825    -7039054.878 8  -5120056.87245  23589865.415    23589880.0094
  22083041.512   -12333865.760 8  -9596080.42547  22083040.849    22083054.5474
  20828652.929   -24295138.405 9 -18913443.04747  20828651.964    20828662.9004
  20592058.573   -25569898.385 9 -19595331.67948  20592058.654    20592068.6584
  23282602.240   -14883826.173 8 -11245402.92546  23282601.491    23282616.9014
  21919192.284   -18796556.958 8 -14621826.10347  21919191.569    21919204.2684
  24609570.396    -3336668.442 7  -2575064.63245  24609569.570    24609590.2724
 02  1 27  1 10 30.0000000  0  8 06 24 23 10 30 17 05 15
  21233477.403   -24947656.648 9 -19399908.64647  21233477.020    21233488.0594
  23604881.906    -6960144.819 8  -5058568.53046  23604881.511    23604896.1044
  22067015.687   -12418081.367 8  -9661702.78447  22067015.004    22067028.6614
  20833075.291   -24271898.733 9 -18895334.17747  20833074.293    20833085.2194
  20598826.328   -25534333.473 9 -19567618.75648  20598826.409    20598836.4134
  23269437.390   -14953007.296 8 -11299310.13846  23269436.655    23269452.0234
  21936118.218   -18707610.942 8 -14552517.60947  21936117.502    21936130.1834
  24593080.481    -3423322.755 8  -2642587.17745  24593079.636    24593100.2874
 02  1 27  1 11  0.0000000  0  8 06 24 23 10 30 17 05 15
  21223327.483   -25000994.247 9 -19441470.28747  21223327.106    21223338.1294
  23619896.799    -6881240.880 8  -4997084.94446  23619896.356    23619911.0624
  22051053.072   -12501964.661 8  -9727066.19347  22051052.415    22051065.9754
  20837613.055   -24248052.525 9 -18876752.67747  20837612.062    20837622.9834
  20605700.950   -25498207.014 9 -19539468.26248  20605701.030    20605711.0324
  23256309.064   -15021996.498 8 -11353067.79446  23256308.313    23256323.5974
  21953101.273   -18618364.934 8 -14482975.34447  21953100.545    21953113.2584
  24576617.113    -3509836.865 8  -2710000.45245  24576616.253    24576636.8644
 02  1 27  1 11 30.0000000  0  8 06 24 23 10 30 17 05 15
  21213211.770   -25054152.058 9 -19482891.83447  21213211.400    21213222.3794
  23634910.572    -6802342.915 8  -4935606.02246  23634910.082    23634924.8534
  22035154.294   -12585512.709 8  -9792168.37547  22035153.601    22035167.1284
  20842266.048   -24223600.519 9 -18857699.12247  20842265.070    20842276.0054
  20612682.334   -25461519.578 9 -19510880.64148  20612682.417    20612692.4244
  23243217.439   -15090793.107 8 -11406675.39146  23243216.706    23243231.9004
  21970140.994   -18528820.870 8 -14413200.84347  21970140.238    21970153.0084
  24560180.754    -3596209.732 8  -2777303.69445  24560179.902    24560200.3484
 02  1 27  1 12  0.0000000  0  8 06 24 23 10 30 17 05 15
  21203130.666   -25107128.233 9 -19524171.86147  21203130.289    21203141.2224
  23649923.040    -6723451.623 8  -4874132.29346  23649922.559    23649937.4144
  22019319.733   -12668722.880 8  -9857007.27047  22019319.043    22019332.5634
  20847034.196   -24198543.545 9 -18838174.16747  20847033.209    20847044.1574
  20619770.273   -25424272.207 9 -19481856.70348  20619770.350    20619780.3724
  23230162.561   -15159396.539 8 -11460132.44646  23230161.814    23230176.9234
  21987237.040   -18438980.753 8 -14343195.64347  21987236.303    21987249.1284
  24543771.396    -3682440.569 8  -2844496.27045  24543770.511    24543790.8284
 02  1 27  1 12 30.0000000  0  8 06 24 23 10 30 17 05 15
  21193084.294   -25159921.756 9 -19565309.56747  21193083.923    21193094.8454
  23664933.970    -6644568.519 8  -4812664.96146  23664933.548    23664948.4214
  22003549.867   -12751593.266 8  -9921581.40147  22003549.170    22003562.6734
  20851917.128   -24172883.431 9 -18818179.22547  20851916.139    20851927.0664
  20626964.380   -25386466.725 9 -19452397.88048  20626964.470    20626974.4744
  23217144.255   -15227807.060 8 -11513439.18446  23217143.546    23217158.6894
  22004388.863   -18348847.707 8 -14272962.19247  22004388.129    22004400.9554
  24527389.014    -3768529.468 8  -2911578.24745  24527388.093    24527408.3294
 02  1 27  1 13  0.0000000  0  8 06 24 23 10 30 17 05 15
  21183073.052   -25212530.817 9 -19606303.52347  21183072.674    21183083.5894
  23679943.411    -6565693.818 8  -4751204.16146  23679942.966    23679957.8264
  21987845.147   -12834121.247 8  -9985888.71547  21987844.462    21987857.9234
  20856914.755   -24146620.734 9 -18797714.72947  20856913.759    20856924.6894
  20634264.551   -25348104.148 9 -19422504.95148  20634264.636    20634274.6374
  23204162.830   -15296024.378 8 -11566595.37046  23204162.113    23204177.1924
  22021595.975   -18258424.029 8 -14202502.27347  22021595.257    22021608.0664
  24511033.789    -3854475.428 8  -2978548.85745  24511032.895    24511052.9634
 02  1 27  1 13 30.0000000  0  8 06 24 23 10 30 17 05 15
  21173097.109   -25264954.269 9 -19647152.86147  21173096.740    21173107.6244
  23694950.775    -6486829.259 8  -4689751.28145  23694950.408    23694965.2494
  21972205.945   -12916305.037 8 -10049927.83747  21972205.279    21972218.6704
  20862026.638   -24119757.410 9 -18776782.20947  20862025.640    20862036.5634
  20641670.384   -25309186.209 9 -19392179.27148  20641670.479    20641680.4514
  23191218.001   -15364048.861 8 -11619601.29046  23191217.294    23191232.4004
  22038857.830   -18167712.727 8 -14131818.23047  22038857.097    22038869.8884
  24494705.911    -3940278.052 8  -3045407.77445  24494704.969    24494724.9764
 02  1 27  1 14  0.0000000  0  8 06 24 23 10 30 17 05 15
  21163157.305   -25317187.994 9 -19687854.35947  21163156.911    21163167.7624
  23709956.565    -6407972.901 8  -4628304.78945  23709956.189    23709971.0994
  21956633.203   -12998139.693 8 -10113694.89947  21956632.510    21956645.8384
  20867253.097   -24092292.047 9 -18755380.57147  20867252.102    20867263.0004
  20649182.118   -25269711.691 9 -19361419.89848  20649182.189    20649192.1794
  23178310.441   -15431877.753 8 -11672454.80846  23178309.750    23178324.7664
  22056174.487   -18076713.638 8 -14060909.94047  22056173.729    22056186.5594
  24478405.734    -4025934.698 7  -3112152.94945  24478404.814    24478424.7404
 02  1 27  1 14 30.0000000  0  8 06 24 23 10 30 17 05 15
  21153253.015   -25369234.854 9 -19728410.24347  21153252.628    21153263.4404
  23724959.882    -6329130.063 8  -4566868.82545  23724959.502    23724974.3974
  21941126.528   -13079627.173 8 -10177191.43347  21941125.835    21941139.0984
  20872593.059   -24064230.179 9 -18733514.11147  20872592.065    20872602.9544
  20656798.670   -25229686.416 9 -19330231.35648  20656798.756    20656808.7324
  23165439.420   -15499515.258 8 -11725159.17746  23165438.701    23165453.6244
  22073544.477   -17985433.902 8 -13989782.96247  22073543.744    22073556.6274
  24462132.694    -4111449.252 7  -3178787.39445  24462131.749    24462151.5454
 02  1 27  1 15  0.0000000  0  8 06 24 23 10 30 17 05 15
  21143384.729   -25421092.598 9 -19768818.76847  21143384.340    21143395.1374
  23739960.567    -6250301.154 8  -4505443.71945  23739960.188    23739974.9864
  21925686.430   -13160764.679 8 -10240415.26147  21925685.714    21925698.9274
  20878046.326   -24035572.626 9 -18711183.48447  20878045.340    20878056.2404
  20664519.927   -25189111.038 9 -19298614.17347  20664520.010    20664529.9484
  23152604.897   -15566960.709 8 -11777713.89846  23152604.176    23152619.0544
  22090967.503   -17893875.508 8 -13918438.85147  22090966.772    22090979.7264
  24445886.882    -4196820.375 8  -3245310.08145  24445885.995    24445905.7054
 02  1 27  1 15 30.0000000  0  8 06 24 23 10 30 17 05 15
  21133553.124   -25472757.503 9 -19809077.02747  21133552.746    21133563.5134
  23754958.962    -6171484.543 8  -4444028.18345  23754958.525    23754973.3614
  21910313.819   -13241547.623 8 -10303362.79947  21910313.096    21910326.2554
  20883613.165   -24006318.533 9 -18688388.02147  20883612.186    20883623.0474
  20672345.984   -25147984.815 9 -19266567.75547  20672346.063    20672355.9764
  23139807.280   -15634211.854 8 -11830117.21246  23139806.575    23139821.4034
  22108443.541   -17802038.666 8 -13846877.76247  22108442.823    22108455.7944
  24429668.895    -4282045.643 8  -3311719.12045  24429668.003    24429687.5764
 02  1 27  1 16  0.0000000  0  8 06 24 23 10 30 17 05 15
  21123758.536   -25524228.115 9 -19849183.88347  21123758.147    21123768.8864
  23769954.743    -6092681.147 8  -4382622.94845  23769954.273    23769969.1014
  21895009.061   -13321973.734 8 -10366032.29447  21895008.351    21895021.4464
  20889293.258   -23976469.259 9 -18665128.78347  20889292.274    20889303.1264
  20680276.547   -25106309.391 9 -19234093.38547  20680276.642    20680286.5334
  23127046.705   -15701268.605 8 -11882369.03846  23127045.999    23127060.7614
  22125972.128   -17709925.972 8 -13775101.72747  22125971.358    22125984.3324
  24413478.728    -4367124.687 8  -3378014.20345  24413477.822    24413497.2884
 02  1 27  1 16 30.0000000  0  8 06 24 23 10 30 17 05 15
  21114000.916   -25575504.329 9 -19889139.25647  21114000.522    21114011.2314
  23784947.645    -6013893.291 8  -4321229.80445  23784947.144    23784961.9354
  21879772.339   -13402042.441 8 -10428423.29147  21879771.650    21879784.6784
  20895086.097   -23946027.419 9 -18641407.80047  20895085.114    20895095.9534
  20688311.052   -25064087.771 9 -19201193.40947  20688311.130    20688321.0294
  23114322.725   -15768132.478 8 -11934470.56046  23114322.048    23114336.7714
  22143552.352   -17617541.617 8 -13703114.00247  22143551.588    22143564.5774
  24397316.098    -4452058.508 8  -3444196.10945  24397315.201    24397334.5104
 02  1 27  1 17  0.0000000  0  8 06 24 23 10 30 17 05 15
  21104280.658   -25626584.030 9 -19928941.50147  21104280.271    21104290.9604
  23799937.500    -5935121.152 8  -4259848.91545  23799936.967    23799951.7844
  21864604.186   -13481750.905 8 -10490533.57647  21864603.490    21864616.4484
  20900991.420   -23914994.391 9 -18617226.15747  20900990.456    20901001.2594
  20696449.322   -25021320.927 9 -19167868.58947  20696449.416    20696459.2894
  23101635.671   -15834802.829 8 -11986421.28146  23101634.991    23101649.6704
  22161183.905   -17524887.748 8 -13630916.27247  22161183.132    22161196.1124
  24381181.267    -4536846.512 7  -3510264.39745  24381180.430    24381199.6204
 02  1 27  1 17 30.0000000  0  8 06 24 23 10 30 17 05 15
  21094598.284   -25677464.636 9 -19968588.60247  21094597.924    21094608.5844
  23814924.339    -5856365.082 8  -4198480.54145  23814923.761    23814938.5114
  21849505.176   -13561096.041 8 -10552360.75047  21849504.483    21849517.4094
  20907009.210   -23883370.543 9 -18592584.13347  20907008.239    20907019.0274
  20704691.215   -24978009.392 9 -19134119.33447  20704691.311    20704701.1764
  23088985.552   -15901278.784 8 -12038220.51846  23088984.869    23088999.5534
  22178866.394   -17431965.971 8 -13558509.78247  22178865.641    22178878.6464
  24365074.492    -4621486.880 7  -3576217.64145  24365073.631    24365092.8394
 02  1 27  1 18  0.0000000  0  8 06 24 23 10 30 17 05 15
  21084954.052   -25728144.916 9 -20008079.59947  21084953.681    21084964.3384
  23829907.955    -5777625.734 8  -4137125.18645  23829907.498    23829922.0854
  21834475.641   -13640075.845 8 -10613903.25047  21834474.938    21834487.8334
  20913139.087   -23851157.687 9 -18567483.14647  20913138.116    20913148.8794
  20713036.427   -24934154.854 9 -19099946.95947  20713036.523    20713046.3944
  23076372.409   -15967560.481 8 -12089868.39746  23076371.730    23076386.3734
  22196599.267   -17338779.280 8 -13485896.86747  22196598.515    22196611.5704
  24348995.852    -4705979.493 7  -3642055.75845  24348994.932    24349014.1304
 02  1 27  1 18 30.0000000  0  8 06 24 23 10 30 17 05 15
  21075348.006   -25778624.492 9 -20047414.19847  21075347.641    21075358.2884
  23844888.063    -5698905.143 8  -4075784.44245  23844887.608    23844902.1684
  21819515.852   -13718689.371 8 -10675160.34147  21819515.174    21819528.0074
  20919380.530   -23818358.444 9 -18541925.24047  20919379.555    20919390.2914
  20721484.426   -24889760.399 9 -19065353.86747  20721484.525    20721494.3694
  23063796.088   -16033649.059 8 -12141365.78646  23063795.377    23063809.9504
  22214381.807   -17245331.593 8 -13413080.57546  22214381.074    22214394.1694
  24332945.166    -4790325.258 7  -3707779.45045  24332944.274    24332963.3664
 02  1 27  1 19  0.0000000  0  8 06 24 23 10 30 17 05 15
  21065780.606   -25828901.135 9 -20086590.66747  21065780.244    21065790.8644
  23859864.455    -5620203.611 8  -4014458.56445  23859864.020    23859878.5994
  21804626.247   -13796933.726 8 -10736129.76747  21804625.572    21804638.3774
  20925733.372   -23784973.751 9 -18515911.14247  20925732.397    20925743.1134
  20730035.064   -24844826.679 9 -19030340.57447  20730035.145    20730044.9804
  23051256.586   -16099543.780 8 -12192712.11346  23051255.868    23051270.4304
  22232213.680   -17151624.627 8 -13340062.25046  22232212.949    22232226.0794
  24316922.537    -4874523.006 7  -3773387.79245  24316921.506    24316940.8354
 02  1 27  1 19 30.0000000  0  8 06 24 23 10 30 17 05 15
  21056252.110   -25878973.058 9 -20125607.60947  21056251.760    21056262.3524
  23874837.248    -5541521.291 8  -3953147.66045  23874836.775    23874851.3184
  21789807.379   -13874806.628 8 -10796809.74547  21789806.691    21789819.4664
  20932197.309   -23751005.184 9 -18489442.08247  20932196.362    20932207.0604
  20738687.972   -24799355.249 9 -18994908.28447  20738688.045    20738697.8884
  23038754.042   -16165244.510 8 -12243907.27846  23038753.333    23038767.8594
  22250094.435   -17057660.946 8 -13266843.88646  22250093.701    22250106.8434
  24300928.155    -4958572.241 7  -3838880.41745  24300927.059    24300946.5934
 02  1 27  1 20  0.0000000  0  8 06 24 23 10 30 17 05 15
  21046762.902   -25928838.775 9 -20164463.86947  21046762.550    21046773.1014
  23889806.151    -5462859.337 8  -3891852.59545  23889805.671    23889820.0984
  21775059.593   -13952305.905 8 -10857198.59347  21775058.911    21775071.6384
  20938772.172   -23716453.931 9 -18462518.97747  20938771.220    20938781.8884
  20747442.890   -24753347.777 9 -18959058.30247  20747442.964    20747452.8064
  23026288.410   -16230751.205 8 -12294951.25046  23026287.663    23026302.1544
  22268023.560   -16963443.262 8 -13193427.59546  22268022.818    22268035.9914
  24284962.223    -5042472.495 7  -3904256.97945  24284961.042    24284980.6974
 02  1 27  1 20 30.0000000  0  8 06 24 23 10 30 17 05 15
  21037313.305   -25978496.267 9 -20203157.87847  21037312.941    21037323.4424
  23904770.983    -5384218.208 8  -3830573.77445  23904770.482    23904784.9444
  21760383.417   -14029429.111 8 -10917294.39947  21760382.721    21760395.3964
  20945457.612   -23681321.499 9 -18435143.01047  20945456.652    20945467.3244
  20756299.552   -24706805.648 9 -18922791.70647  20756299.643    20756309.4614
  23013859.686   -16296063.599 8 -12345843.81446  23013858.967    23013873.4444
  22286000.505   -16868974.104 8 -13119815.35946  22285999.773    22286012.9604
  24269024.887    -5126223.089 7  -3969516.94545  24269023.715    24269043.0914
 02  1 27  1 21  0.0000000  0  8 06 24 23 10 30 17 05 15
  21027903.453   -26027945.036 9 -20241689.25147  21027903.076    21027913.5274
  23919731.469    -5305599.546 7  -3769312.44845  23919731.006    23919745.4404
  21745778.960   -14106175.204 8 -10977096.35347  21745778.251    21745790.8904
  20952253.147   -23645610.433 9 -18407316.16247  20952252.188    20952262.8714
  20765257.488   -24659731.503 9 -18886110.55147  20765257.571    20765267.3894
  23001467.787   -16361182.776 8 -12396585.82646  23001467.036    23001481.4714
  22304024.654   -16774256.913 8 -13046009.84346  22304023.925    22304037.1364
  24253115.898    -5209824.794 8  -4034660.87445  24253114.858    24253133.9534
 02  1 27  1 21 30.0000000  0  8 06 24 23 10 30 17 05 15
  21018533.558   -26077183.582 9 -20280056.81647  21018533.192    21018543.5934
  23934687.494    -5227004.428 8  -3708069.46945  23934687.011    23934701.5704
  21731246.634   -14182542.231 8 -11036602.93347  21731245.942    21731258.5284
  20959158.470   -23609322.519 9 -18379039.82647  20959157.497    20959168.1454
  20774316.227   -24612127.448 9 -18849016.47947  20774316.310    20774326.1334
  22989112.573   -16426108.769 8 -12447177.31146  22989111.830    22989126.2224
  22322095.472   -16679294.536 8 -12972013.27946  22322094.735    22322107.9984
  24237235.226    -5293277.321 8  -4099688.58745  24237234.192    24237253.2394
 02  1 27  1 22  0.0000000  0  8 06 24 23 10 30 17 05 15
  21009204.341   -26126208.523 9 -20318257.93847  21009203.971    21009214.3544
  23949639.269    -5148431.557 8  -3646843.83145  23949638.800    23949653.5014
  21716787.157   -14258526.403 8 -11095811.18447  21716786.492    21716799.0114
  20966173.609   -23572457.659 9 -18350313.91847  20966172.621    20966183.2474
  20783475.844   -24563993.286 9 -18811509.33547  20783475.939    20783485.7604
  22976794.463   -16490839.893 8 -12497616.95146  22976793.747    22976808.1264
  22340212.752   -16584087.886 8 -12897826.36546  22340212.033    22340225.3294
  24221383.336    -5376578.649 8  -4164598.48945  24221382.336    24221401.2624
 02  1 27  1 22 30.0000000  0  8 06 24 23 10 30 17 05 15
  20999915.619   -26175020.363 9 -20356293.00947  20999915.251    20999925.6174
  23964586.306    -5069884.086 8  -3585637.99845  23964585.803    23964600.6154
  21702400.613   -14334127.694 9 -11154721.09147  21702399.931    21702412.3834
  20973297.802   -23535019.676 9 -18321141.42147  20973296.819    20973307.4154
  20792735.606   -24515332.890 9 -18773592.14647  20792735.689    20792745.5104
  22964513.084   -16555378.338 8 -12547906.45046  22964512.349    22964526.6594
  22358375.657   -16488641.665 8 -12823452.78546  22358374.909    22358388.2264
  24205559.935    -5459730.466 8  -4229391.89145  24205558.911    24205577.7804
 02  1 27  1 23  0.0000000  0  8 06 24 23 10 30 17 05 15
  20990668.294   -26223614.994 9 -20394158.82847  20990667.933    20990678.2454
  23979528.911    -4991359.889 7  -3524450.29645  23979528.488    23979543.2894
  21688087.797   -14409341.386 9 -11213328.97447  21688087.090    21688099.4714
  20980531.162   -23497007.850 9 -18291521.77647  20980530.191    20980540.7834
  20802095.676   -24466145.459 9 -18735264.28247  20802095.739    20802105.5784
  22952268.810   -16619721.513 8 -12598043.80946  22952268.106    22952282.3574
  22376584.145   -16392956.007 8 -12748892.62246  22376583.373    22376596.6904
  24189765.462    -5542729.831 7  -4294066.50445  24189764.534    24189783.3344
 02  1 27  1 23 30.0000000  0  8 06 24 23 10 30 17 05 15
  20981462.157   -26271993.201 9 -20431856.01447  20981461.776    20981472.0184
  23994466.516    -4912862.349 7  -3463283.36745  23994466.097    23994480.8294
  21673848.674   -14484167.905 9 -11271635.16347  21673847.948    21673860.2524
  20987872.989   -23458426.153 9 -18261458.08047  20987872.019    20987882.5814
  20811555.170   -24416435.302 9 -18696529.09947  20811555.240    20811565.0994
  22940061.193   -16683871.937 8 -12648030.96946  22940060.497    22940074.7554
  22394837.133   -16297036.255 8 -12674150.05346  22394836.368    22394849.6884
  24173999.612    -5625578.702 8  -4358623.83245  24173998.759    24174017.5214
 02  1 27  1 24  0.0000000  0  8 06 24 23 10 30 17 05 15
  20972297.980   -26320150.826 9 -20469381.32647  20972297.601    20972307.8204
  24009399.323    -4834389.842 8  -3402135.95145  24009398.839    24009413.7344
  21659684.071   -14558602.612 9 -11329636.04347  21659683.374    21659695.6144
  20995323.368   -23419273.902 9 -18230949.79347  20995322.401    20995332.9524
  20821114.271   -24366201.767 9 -18657386.08847  20821114.352    20821124.2144
  22927890.823   -16747827.045 8 -12697865.94746  22927890.123    22927904.3104
  22413134.635   -16200882.527 8 -12599225.16446  22413133.860    22413147.2104
  24158263.071    -5708274.272 8  -4423061.73945  24158262.243    24158280.8474
 02  1 27  1 24 30.0000000  0  8 06 24 23 10 30 17 05 15
  20963175.518   -26368089.110 9 -20506735.72547  20963175.146    20963185.3524
  24024326.725    -4755945.706 7  -3341010.64045  24024326.255    24024341.1954
  21645593.857   -14632646.363 9 -11387332.28247  21645593.158    21645605.3484
  21002881.466   -23379555.852 9 -18200000.62947  21002880.478    21002891.0224
  20830772.117   -24315449.383 9 -18617838.77847  20830772.197    20830782.0764
  22915757.002   -16811589.723 8 -12747550.97646  22915756.322    22915770.4404
  22431475.670   -16104500.130 8 -12524122.09146  22431474.903    22431488.2874
  24142555.129    -5790819.360 8  -4487382.37345  24142554.278    24142572.7884
 02  1 27  1 25  0.0000000  0  8 06 24 23 10 30 17 05 15
  20954095.371   -26415805.070 9 -20543916.88547  20954095.012    20954105.1924
  24039248.950    -4677529.038 7  -3279906.72845  24039248.464    24039263.4414
  21631578.660   -14706295.786 9 -11444721.25047  21631577.980    21631590.1134
  21010547.134   -23339272.402 9 -18168610.89147  21010546.142    21010556.6624
  20840528.598   -24264178.747 9 -18577887.63847  20840528.692    20840538.5744
  22903660.105   -16875158.688 8 -12797085.06546  22903659.407    22903673.4514
  22449859.885   -16007890.603 8 -12448842.03046  22449859.146    22449872.5294
  24126876.080    -5873212.224 8  -4551584.39745  24126875.232    24126893.7394
 02  1 27  1 25 30.0000000  0  8 06 24 23 10 30 17 05 15
  20945057.806   -26463297.257 9 -20580923.68447  20945057.449    20945067.5894
  24054165.819    -4599140.771 8  -3218824.94745  24054165.328    24054180.2584
  21617638.933   -14779549.013 9 -11501801.49847  21617638.251    21617650.3084
  21018320.054   -23298425.233 9 -18136781.89847  21018319.061    21018329.5634
  20850383.308   -24212391.937 9 -18537534.28847  20850383.390    20850393.2804
  22891600.036   -16938534.201 8 -12846468.42946  22891599.365    22891613.3234
  22468286.855   -15911056.701 8 -12373387.13346  22468286.129    22468299.5184
  24111226.073    -5955452.622 8  -4615667.60745  24111225.267    24111243.7204
 02  1 27  1 26  0.0000000  0  8 06 24 23 10 30 17 05 15
  20936063.166   -26510564.003 9 -20617754.81247  20936062.785    20936072.8984
  24069077.089    -4520781.891 8  -3157766.05545  24069076.595    24069091.5294
  21603774.963   -14852403.955 9 -11558571.39047  21603774.259    21603786.2704
  21026199.896   -23257016.150 9 -18104515.04547  21026198.925    21026209.4184
  20860335.885   -24160090.804 9 -18496780.16147  20860335.950    20860345.8494
  22879576.748   -17001716.196 8 -12895700.99846  22879576.050    22879589.9924
  22486756.009   -15814001.072 8 -12297759.45846  22486755.303    22486768.6794
  24095605.200    -6037540.086 8  -4679631.65945  24095604.371    24095622.7294
 02  1 27  1 26 30.0000000  0  8 06 24 23 10 30 17 05 15
  20927111.990   -26557602.347 9 -20654407.97047  20927111.612    20927121.7064
  24083982.899    -4442451.733 8  -3096729.54845  24083982.396    24083997.2754
  21589987.348   -14924857.523 9 -11615028.53047  21589986.664    21589998.6464
  21034186.551   -23215045.900 9 -18071810.92747  21034185.566    21034196.0384
  20870386.241   -24107275.902 9 -18455625.69747  20870386.322    20870396.2114
  22867590.513   -17064703.604 8 -12944781.95146  22867589.797    22867603.7384
  22505267.094   -15716725.209 8 -12221960.17446  22505266.328    22505279.7614
  24080013.737    -6119472.946 8  -4743475.25245  24080012.954    24080031.1964
 02  1 27  1 27  0.0000000  0  8 06 24 23 10 30 17 05 15
  20918204.073   -26604413.207 9 -20690883.87547  20918203.709    20918213.7854
  24098882.687    -4364152.707 8  -3035717.30645  24098882.201    24098897.0824
  21576276.017   -14996910.279 9 -11671173.34447  21576275.326    21576287.2654
  21042279.080   -23172519.291 9 -18038673.28247  21042278.094    21042288.5624
  20880533.442   -24053951.812 9 -18414074.45947  20880533.527    20880543.4204
  22855640.830   -17127498.978 8 -12993713.28446  22855640.110    22855653.9814
  22523819.084   -15619234.213 8 -12145993.24946  22523818.305    22523831.7314
  24064451.254    -6201253.468 8  -4807200.12845  24064450.428    24064468.6124
 02  1 27  1 27 30.0000000  0  8 06 24 23 10 30 17 05 15
  20909340.225   -26650992.712 9 -20727179.51347  20909339.855    20909349.9014
  24113776.742    -4285884.132 8  -2974728.78945  24113776.241    24113791.1294
  21562641.714   -15068558.216 9 -11727002.72747  21562641.025    21562652.9404
  21050477.568   -23129435.670 9 -18005101.60947  21050476.598    21050487.0404
  20890777.610   -24000118.363 9 -18372126.32447  20890777.696    20890787.5904
  22843728.120   -17190100.218 8 -13042493.34146  22843727.397    22843741.1634
  22542411.809   -15521528.878 8 -12069859.31646  22542411.063    22542424.5314
  24048918.268    -6282879.399 8  -4870804.55945  24048917.361    24048935.4714
 02  1 27  1 28  0.0000000  0  8 06 24 23 10 30 17 05 15
  20900520.466   -26697340.505 9 -20763294.58747  20900520.091    20900530.1064
  24128664.630    -4207647.926 8  -2913765.49045  24128664.073    24128678.9804
  21549084.577   -15139800.670 9 -11782516.13647  21549083.870    21549095.7554
  21058781.517   -23085798.098 9 -17971098.27847  21058780.550    21058790.9784
  20901118.110   -23945778.813 9 -18329783.81947  20901118.187    20901128.0914
  22831852.168   -17252508.606 8 -13091123.12946  22831851.408    22831865.0854
  22561044.629   -15423613.145 8 -11993561.42746  22561043.864    22561057.3754
  24033414.408    -6364351.671 8  -4934289.24145  24033413.634    24033431.6234
 02  1 27  1 28 30.0000000  0  8 06 24 23 10 30 17 05 15
  20891745.323   -26743453.740 9 -20799226.88947  20891744.966    20891754.9504
  24143546.495    -4129443.221 8  -2852826.71945  24143545.991    24143560.6834
  21535605.223   -15210634.390 9 -11837711.05847  21535604.532    21535616.3814
  21067190.714   -23041607.411 9 -17936663.94747  21067189.748    21067200.1714
  20911554.757   -23890933.845 9 -18287047.48547  20911554.852    20911564.7624
  22820013.028   -17314723.113 8 -13139601.84546  22820012.265    22820025.9054
  22579717.194   -15325488.454 8 -11917100.72346  22579716.447    22579729.9554
  24017940.175    -6445668.718 8  -4997652.98445  24017939.327    24017957.2194
 02  1 27  1 29  0.0000000  0  8 06 24 23 10 30 17 05 15
  20883015.213   -26789330.440 9 -20834974.87447  20883014.850    20883024.8024
  24158422.206    -4051270.803 8  -2791913.11545  24158421.772    24158436.3544
  21522204.070   -15281057.188 9 -11892585.78947  21522203.359    21522215.1814
  21075704.819   -22996865.408 9 -17901800.01747  21075703.834    21075714.2754
  20922087.263   -23835585.181 9 -18243918.65947  20922087.340    20922097.2454
  22808210.829   -17376743.416 8 -13187929.22746  22808210.095    22808223.7274
  22598429.090   -15227157.110 8 -11840478.99346  22598428.354    22598441.9134
  24002495.504    -6526830.139 7  -5060895.45845  24002494.689    24002512.5284
 02  1 27  1 29 30.0000000  0  8 06 24 23 10 30 17 05 15
  20874330.052   -26834970.800 9 -20870538.70147  20874329.692    20874339.6424
  24173291.445    -3973132.592 8  -2731026.15745  24173290.969    24173305.5064
  21508881.097   -15351069.066 9 -11947140.32247  21508880.392    21508892.1884
  21084323.107   -22951575.765 9 -17866509.35347  21084322.118    21084332.5664
  20932714.854   -23779736.759 9 -18200400.40947  20932714.953    20932724.8494
  22796445.191   -17438571.648 8 -13236106.95546  22796444.470    22796458.1254
  22617179.408   -15128623.809 8 -11763699.89446  22617178.663    22617192.2484
  23987080.173    -6607837.279 7  -5124017.70745  23987079.341    23987097.1394
 02  1 27  1 30  0.0000000  0  8 06 24 23 10 30 17 05 15
  20865690.502   -26880371.615 9 -20905915.87048  20865690.134    20865700.0744
  24188154.308    -3895027.465 8  -2670164.98045  24188153.859    24188168.3084
  21495636.963   -15420666.535 9 -12001371.95047  21495636.261    21495648.0344
  21093045.561   -22905738.835 9 -17830792.23147  21093044.579    21093054.9994
  20943437.437   -23723389.141 9 -18156493.17947  20943437.520    20943447.4424
  22784716.422   -17500206.205 8 -13284133.75546  22784715.709    22784729.3204
  22635967.966   -15029889.639 8 -11686764.27346  22635967.226    22635980.8014
  23971694.589    -6688688.196 7  -5187018.23045  23971693.772    23971711.4984
 02  1 27  1 30 30.0000000  0  8 06 24 23 10 30 17 05 15
  20857096.591   -26925532.516 9 -20941106.10048  20857096.223    20857106.1354
  24203010.429    -3816957.470 8  -2609331.17045  24203010.016    24203024.4764
  21482471.850   -15489848.840 9 -12055280.07047  21482471.155    21482482.8824
  21101871.508   -22859358.032 9 -17794651.30447  21101870.529    21101880.9364
  20954254.432   -23666545.371 9 -18112199.33247  20954254.541    20954264.4644
  22773024.286   -17561648.286 8 -13332010.57946  22773023.544    22773037.1884
  22654794.027   -14930958.353 8 -11609675.05346  22654793.283    22654806.8734
  23956338.454    -6769384.026 7  -5249897.90145  23956337.573    23956355.3364
 02  1 27  1 31  0.0000000  0  8 06 24 23 10 30 17 05 15
  20848548.894   -26970450.725 9 -20976107.22248  20848548.530    20848558.4004
  24217859.915    -3738922.223 8  -2548524.44145  24217859.525    24217873.9234
  21469386.323   -15558613.187 9 -12108862.51347  21469385.624    21469397.3194
  21110800.767   -22812434.154 9 -17758087.20347  21110799.798    21110810.2044
  20965165.638   -23609206.668 9 -18067519.82347  20965165.738    20965175.6694
  22761368.937   -17622897.058 8 -13379736.77546  22761368.213    22761381.7924
  22673657.229   -14831831.715 8 -11532433.60446  22673656.494    22673670.1154
  23941012.192    -6849923.364 7  -5312655.62245  23941011.334    23941029.0074
 02  1 27  1 31 30.0000000  0  8 06 24 23 10 30 17 05 15
  20840047.637   -27015124.869 9 -21010918.15548  20840047.256    20840057.1004
  24232702.704    -3660922.593 8  -2487745.45145  24232702.270    24232716.6764
  21456380.573   -15626958.147 9 -12162118.16047  21456379.878    21456391.5344
  21119832.958   -22764969.582 9 -17721101.77747  21119831.985    21119842.3964
  20976170.577   -23551375.380 9 -18022456.48047  20976170.659    20976180.5964
  22749750.270   -17683952.894 8 -13427312.61746  22749749.536    22749763.1214
  22692557.102   -14732512.883 8 -11455042.40546  22692556.370    22692569.9694
  23925715.555    -6930306.399 7  -5375291.55045  23925714.723    23925732.4384
 02  1 27  1 32  0.0000000  0  8 06 24 23 10 30 17 05 15
  20831593.133   -27059553.244 9 -21045537.57748  20831592.759    20831602.5784
  24247538.605    -3582959.024 7  -2426994.56845  24247538.169    24247552.5914
  21443454.977   -15694881.955 9 -12215045.64247  21443454.276    21443465.8844
  21128967.513   -22716966.723 9 -17683696.90247  21128966.551    21128976.9764
  20987268.756   -23493053.895 9 -17977011.16747  20987268.866    20987278.7924
  22738168.323   -17744816.146 8 -13474738.39646  22738167.584    22738181.1044
  22711492.961   -14633004.797 8 -11377503.71246  22711492.221    22711505.8214
  23910448.867    -7010533.013 7  -5437805.58445  23910447.972    23910465.6914
 02  1 27  1 32 30.0000000  0  8 06 24 23 10 30 17 05 15
  20823185.695   -27103734.264 9 -21079964.25848  20823185.319    20823195.1244
  24262367.493    -3505032.566 8  -2366272.61545  24262367.192    24262381.4244
  21430609.823   -15762383.054 9 -12267643.74147  21430609.128    21430620.6874
  21138204.190   -22668427.571 9 -17645874.13747  21138203.236    21138213.6414
  20998459.863   -23434244.203 9 -17931185.43347  20998459.969    20998469.9084
  22726622.945   -17805486.821 8 -13522014.11246  22726622.237    22726635.7114
  22730464.296   -14533310.170 8 -11299819.68946  22730463.507    22730477.1374
  23895211.885    -7090602.954 7  -5500197.53745  23895210.970    23895228.6704
 02  1 27  1 33  0.0000000  0  8 06 24 23 10 30 17 05 15
  20814825.572   -27147666.674 9 -21114197.20648  20814825.196    20814834.9794
  24277189.117    -3427144.178 7  -2305580.32645  24277188.742    24277203.1724
  21417845.379   -15829460.011 9 -12319911.33947  21417844.705    21417856.1974
  21147542.486   -22619354.541 9 -17607635.35647  21147541.512    21147551.8874
  21009743.382   -23374949.040 9 -17884981.40747  21009743.497    21009753.4144
  22715114.133   -17865965.591 8 -13569140.28446  22715113.405    22715126.8384
  22749470.522   -14433432.087 8 -11221992.70146  22749469.770    22749483.4424
  23880004.752    -7170516.266 8  -5562467.43445  23880003.878    23880021.4754
 02  1 27  1 33 30.0000000  0  8 06 24 23 10 30 17 05 15
  20806513.504   -27191346.756 9 -21148233.53648  20806513.121    20806522.8574
  24292003.747    -3349292.257 7  -2244916.44145  24292003.396    24292017.8004
  21405162.394   -15896108.875 9 -12371845.36347  21405161.715    21405173.1754
  21156982.275   -22569747.836 9 -17568980.73147  21156981.317    21156991.6714
  21021119.292   -23315168.358 9 -17838399.05847  21021119.402    21021129.2964
  22703642.278   -17926250.383 8 -13616115.30246  22703641.516    22703654.9314
  22768511.542   -14333371.126 8 -11144023.20546  22768510.778    22768524.5204
  23864827.876    -7250270.728 8  -5624613.54345  23864826.984    23864844.5184
 02  1 27  1 34  0.0000000  0  8 06 24 23 10 30 17 05 15
  20798249.158   -27234775.778 9 -21182074.23448  20798248.772    20798258.4784
  24306810.794    -3271480.154 7  -2184283.60645  24306810.456    24306825.0104
  21392560.703   -15962330.578 9 -12423446.52847  21392560.039    21392571.4614
  21166522.707   -22519612.469 9 -17529914.16147  21166521.752    21166532.1054
  21032586.549   -23254907.315 9 -17791442.39647  21032586.673    21032596.5744
  22692206.614   -17986344.503 8 -13662941.73546  22692205.873    22692219.2564
  22787586.244   -14233133.146 8 -11065915.77946  22787585.492    22787599.2774
  23849680.683    -7329868.851 8  -5686637.81245  23849679.790    23849697.3594
 02  1 27  1 34 30.0000000  0  8 06 24 23 10 30 17 05 15
  20790033.187   -27277950.655 9 -21215716.89648  20790032.810    20790042.4924
  24321610.460    -3193706.640 7  -2123680.83445  24321610.190    24321624.7684
  21380040.830   -16028122.252 9 -12474712.61147  21380040.157    21380051.5594
  21176163.591   -22468949.011 9 -17490436.08847  21176162.638    21176172.9584
  21044145.121   -23194166.728 9 -17744112.06747  21044145.241    21044155.1434
  22680807.581   -18046246.284 8 -13709618.29146  22680806.844    22680820.2094
  22806694.455   -14132719.234 8 -10987671.26246  22806693.714    22806707.4804
  23834563.600    -7409309.064 8  -5748539.03945  23834562.656    23834580.1974
 02  1 27  1 35  0.0000000  0  8 06 24 23 10 30 17 05 15
  20781866.191   -27320867.916 9 -21249158.82748  20781865.824    20781875.5014
  24336402.996    -3115970.979 7  -2063107.56045  24336402.739    24336417.2854
  21367603.435   -16093480.514 9 -12525640.97547  21367602.767    21367614.1074
  21185904.926   -22417757.924 9 -17450546.87847  21185903.954    21185914.2584
  21055794.830   -23132947.021 9 -17696408.40047  21055794.946    21055804.8394
  22669445.460   -18105954.203 8 -13756143.78446  22669444.730    22669458.0484
  22825835.961   -14032130.396 8 -10909290.43646  22825835.223    22825849.0454
  23819476.808    -7488589.457 8  -5810315.71545  23819475.990    23819493.3584
 02  1 27  1 35 30.0000000  0  9 06 24 23 10 30 17 05 26 15
  20773747.797   -27363529.929 9 -21282401.86448  20773747.434    20773757.0994
  24351187.427    -3038277.799 7  -2002567.37645  24351187.254    24351201.8394
  21355248.131   -16158407.732 9 -12576233.45947  21355247.450    21355258.7364
  21195745.370   -22366045.671 9 -17410251.56547  21195744.402    21195754.7204
  21067534.505   -23071254.749 9 -17648336.50247  21067534.609    21067544.5064
  22658119.306   -18165472.894 8 -13802521.81946  22658118.591    22658131.9034
  22845009.407   -13931373.561 8 -10830778.70146  22845008.659    22845022.5004
  24439783.488    -7839682.265 7  -5550433.80345  24439783.431    24439799.6664
  23804419.751    -7567714.199 8  -5871971.08545  23804418.924    23804436.2424
 02  1 27  1 36  0.0000000  0  9 06 24 23 10 30 17 05 26 15
  20765679.196   -27405930.440 9 -21315441.13248  20765678.820    20765688.4484
  24365964.779    -2960622.605 7  -1942056.77045  24365964.544    24365979.1754
  21342976.061   -16222897.319 9 -12626484.93247  21342975.386    21342986.6104
  21205685.503   -22313809.672 9 -17369548.14147  21205684.530    21205694.8694
  21079364.580   -23009087.367 9 -17599894.39647  21079364.660    21079374.5664
  22646830.021   -18224797.676 8 -13848748.75946  22646829.297    22646842.6204
  22864215.176   -13830446.768 8 -10752134.54546  22864214.443    22864228.3334
  24422498.908    -7930512.513 7  -5621210.41745  24422498.756    24422515.0224
  23789393.319    -7646678.315 8  -5933501.29745  23789392.417    23789409.5894
 02  1 27  1 36 30.0000000  0 10 06 24 23 18 10 30 17 05 26 15
  20757660.111   -27448070.569 9 -21348277.50148  20757659.741    20757669.3384
  24380734.304    -2883008.552 7  -1881578.24445  24380733.999    24380748.6954
  21330787.059   -16286950.477 9 -12676396.32947  21330786.364    21330797.5364
  24718868.928                                    24718874.359    24718889.0314
  21215724.391   -22261054.891 9 -17328440.47347  21215723.420    21215733.7234
  21091284.047   -22946450.114 9 -17551086.15347  21091284.138    21091294.0194
  22635577.148   -18283931.329 8 -13894826.76346  22635576.436    22635589.6534
  22883452.219   -13729355.651 8 -10673362.33046  22883451.516    22883465.4484
  24405211.285    -8021359.247 7  -5691999.89445  24405211.134    24405227.2844
  23774396.845    -7725484.325 8  -5994908.28945  23774395.919    23774413.0514
 02  1 27  1 37  0.0000000  0 10 06 24 23 18 10 30 17 05 26 15
  20749690.823   -27489949.236 9 -21380910.13548  20749690.458    20749700.0304
  24395495.723    -2805437.119 8  -1821132.92745  24395495.340    24395510.0424
  21318681.231   -16350566.341 9 -12725966.98047  21318680.555    21318691.6634
  24697631.996                                    24697638.501    24697646.9184
  21225861.465   -22207784.181 9 -17286930.78047  21225860.473    21225870.7664
  21103292.431   -22883345.655 9 -17501913.85047  21103292.525    21103302.3904
  22624360.446   -18342874.858 8 -13940756.62346  22624359.692    22624372.8804
  22902719.934   -13628103.553 8 -10594464.68846  22902719.208    22902733.1524
  24387920.976    -8112220.020 7  -5762800.32145  24387920.844    24387936.8424
  23759430.381    -7804132.397 8  -6056192.20845  23759429.520    23759446.6634
 02  1 27  1 37 30.0000000  0 10 06 24 23 18 10 30 17 05 26 15
  20741772.095   -27531562.165 9 -21413335.69748  20741771.720    20741781.2584
  24410249.349    -2727906.541 7  -1760719.44445  24410248.986    24410263.5054
  21306659.421   -16413740.787 9 -12775193.66647  21306658.747    21306669.8134
  24676406.317     -828088.60054                  24676403.901    24676425.0534
  21236096.693   -22153997.472 9 -17245019.01147  21236095.707    21236105.9694
  21115389.716   -22819774.041 9 -17452377.52747  21115389.790    21115399.6584
  22613180.356   -18401625.887 8 -13986536.47946  22613179.632    22613192.7934
  22922018.261   -13526690.689 8 -10515441.76946  22922017.518    22922031.5064
  24370628.966    -8203089.189 7  -5833607.30645  24370628.895    24370644.8614
  23744494.509    -7882620.087 8  -6117351.15246  23744493.560    23744510.7104
 02  1 27  1 38  0.0000000  0 10 06 24 23 18 10 30 17 05 26 15
  20733903.784   -27572909.852 9 -21445554.58548  20733903.417    20733912.9354
  24424994.725    -2650419.258 8  -1700339.68445  24424994.338    24425008.8174
  21294721.530   -16476474.303 9 -12824076.77247  21294720.852    21294731.8744
  24655192.648    -1202618.54217   -914962.61045  24655190.077    24655207.1884
  21246429.247   -22099699.203 9 -17202708.62647  21246428.284    21246438.5204
  21127575.089   -22755739.537 9 -17402480.51847  21127575.174    21127585.0604
  22602036.512   -18460186.597 8 -14032168.03046  22602035.786    22602048.9214
  22941346.195   -13425121.783 8 -10436297.25546  22941345.487    22941359.4604
  24353335.634    -8293965.695 7  -5904420.02845  24353335.527    24353351.5034
  23729588.735    -7960949.234 8  -6178386.56546  23729587.779    23729604.8944
 02  1 27  1 38 30.0000000  0 10 06 24 23 18 10 30 17 05 26 15
  20726086.376   -27613990.369 9 -21477565.28848  20726085.989    20726095.4904
  24439731.790    -2572975.383 7  -1639993.75845  24439731.426    24439745.8724
  21282867.845   -16538765.168 9 -12872614.95347  21282867.178    21282878.1414
  24633986.653    -1314051.752 7  -1001793.24845  24633984.028    24634002.2794
  21256858.790   -22044891.401 9 -17160001.20147  21256857.824    21256868.0694
  21139848.076   -22691244.437 9 -17352224.60247  21139848.178    21139858.0424
  22590928.867   -18518557.073 8 -14077651.35346  22590928.146    22590941.2024
  22960703.408   -13323399.472 8 -10357033.21746  22960702.646    22960716.6614
  24336041.575    -8384846.169 7  -5975235.83845  24336041.329    24336057.4384
  23714713.091    -8039119.587 8  -6239298.22346  23714712.137    23714729.3214
 02  1 27  1 39  0.0000000  0 10 06 24 23 18 10 30 17 05 26 15
  20718320.111   -27654801.977 9 -21509366.45348  20718319.736    20718329.2084
  24454460.510    -2495575.367 8  -1579682.00645  24454460.110    24454474.6134
  21271098.702   -16600611.816 9 -12920806.99947  21271098.025    21271108.9514
  24612792.002    -1425427.212 7  -1088578.91045  24612789.811    24612808.1754
  21267384.869   -21989576.259 9 -17116898.44947  21267383.907    21267394.1324
  21152208.289   -22626291.049 9 -17301611.58147  21152208.381    21152218.2634
  22579857.380   -18576737.573 8 -14122986.64046  22579856.641    22579869.6644
  22980089.255   -13221526.651 8 -10277651.90346  22980088.495    22980102.4944
  24318747.380    -8475727.375 7  -6046052.25545  24318747.182    24318763.1064
  23699867.786    -8117130.909 8  -6300085.97045  23699866.914    23699883.9654
 02  1 27  1 39 30.0000000  0 10 06 24 23 18 10 30 17 05 26 15
  20710605.617   -27695341.488 9 -21540955.59148  20710605.247    20710614.6954
  24469180.988    -2418218.360 8  -1519403.78145  24469180.609    24469195.1144
  21259414.691   -16662011.093 9 -12968650.44047  21259414.014    21259424.9094
  24591609.292    -1536741.136 7  -1175316.66444  24591607.505    24591625.6144
  21278007.390   -21933754.519 9 -17073400.93847  21278006.403    21278016.6284
  21164655.546   -22560880.269 9 -17250642.15047  21164655.644    21164665.5454
  22568822.313   -18634726.601 8 -14168172.72646  22568821.580    22568834.5614
  22999503.579   -13119504.314 8 -10198154.06546  22999502.795    22999516.8134
  24301453.833    -8566604.699 7  -6116865.63245  24301453.674    24301469.3914
  23685053.035    -8194981.616 8  -6360748.55645  23685052.150    23685069.2324
 02  1 27  1 40  0.0000000  0 10 06 24 23 18 10 30 17 05 26 15
  20702943.260   -27735607.189 9 -21572331.37448  20702942.881    20702952.3174
  24483893.250    -2340904.918 7  -1459159.49445  24483892.794    24483907.3354
  21247816.072   -16722961.564 9 -13016144.16447  21247815.404    21247826.2734
  24570438.737    -1647991.188 7  -1262004.62645  24570437.111    24570455.3214
  21288725.806   -21877428.593 9 -17029510.56247  21288724.813    21288735.0414
  21177189.418   -22495014.481 9 -17199318.17247  21177189.517    21177199.3904
  22557823.593   -18692524.448 8 -14213209.84246  22557822.864    22557835.8074
  23018945.729   -13017335.385 8 -10118542.01046  23018944.976    23018959.0054
  24284161.808    -8657475.043 7  -6187673.56045  24284161.575    24284177.2984
  23670269.029    -8272671.356 8  -6421285.73745  23670268.085    23670285.1214
 02  1 27  1 40 30.0000000  0 10 06 24 23 18 10 30 17 05 26 15
  20695333.162   -27775597.994 9 -21603492.95148  20695332.789    20695342.2224
  24498597.089    -2263635.809 7  -1398949.76645  24498596.605    24498611.1114
  21236303.047   -16783462.339 9 -13063287.47747  21236302.374    21236313.2304
  24549280.741    -1759175.787 7  -1348641.62345  24549279.358    24549297.5174
  21299539.598   -21820601.552 9 -16985229.70947  21299538.626    21299548.8334
  21189809.296   -22428696.704 9 -17147641.98147  21189809.400    21189819.2884
  22546861.156   -18750131.950 8 -14258098.62746  22546860.404    22546873.3074
  23038415.159   -12915023.156 8 -10038818.29646  23038414.427    23038428.4364
  24266871.437    -8748335.648 7  -6258473.89145  24266871.285    24266886.9054
  23655515.454    -8350200.708 8  -6481697.95045  23655514.508    23655531.4204
 02  1 27  1 41  0.0000000  0 10 06 24 23 18 10 30 17 05 26 15
  20687775.854   -27815311.607 9 -21634438.53648  20687775.481    20687784.8994
  24513292.540    -2186410.874 8  -1338774.45345  24513292.031    24513306.5134
  21224875.975   -16843511.140 9 -13110078.60347  21224875.315    21224886.1424
  24528135.723    -1870291.910 7  -1435225.29245  24528134.476    24528152.5474
  21310448.406   -21763275.100 9 -16940559.70347  21310447.424    21310457.6514
  21202514.827   -22361928.653 9 -17095614.93347  21202514.924    21202524.8134
  22535934.990   -18807548.757 8 -14302838.82246  22535934.248    22535947.0774
  23057911.487   -12812569.816 8  -9958984.61846  23057910.760    23057924.7424
  24249583.647    -8839182.770 7  -6329263.71945  24249583.443    24249599.2254
  23640792.515    -8427568.968 8  -6541984.62845  23640791.542    23640808.4334
 02  1 27  1 41 30.0000000  0 10 06 24 23 18 10 30 17 05 26 15
  20680271.588   -27854746.434 9 -21665166.88348  20680271.216    20680280.6064
  24527979.490    -2109230.699 7  -1278634.01245  24527978.904    24527993.3434
  21213535.215   -16903106.730 9 -13156516.58047  21213534.556    21213545.3504
  24507004.143    -1981337.561 7  -1521754.06045  24507003.235    24507020.9354
  21321451.771   -21705451.751 9 -16895502.50747  21321450.797    21321460.9884
  21215305.518   -22294713.084 9 -17043239.17247  21215305.620    21215315.5214
  22525045.049   -18864775.042 8 -14347430.54346  22525044.297    22525057.0874
  23077434.106   -12709978.156 8  -9879043.16446  23077433.375    23077447.3604
  24232299.056    -8930013.338 7  -6400040.63445  24232298.829    24232314.5414
  23626100.201    -8504776.162 8  -6602145.82545  23626099.283    23626116.1264
 02  1 27  1 42  0.0000000  0 10 06 24 23 18 10 30 17 05 26 15
  20672820.475   -27893902.054 9 -21695677.66548  20672820.105    20672829.4574
  24542657.415    -2032096.823 8  -1218529.64745  24542656.902    24542671.4534
  21202280.682   -16962248.954 9 -13202601.28647  21202280.017    21202290.7804
  24485886.297    -2092311.851 8  -1608227.24445  24485885.435    24485902.9484
  21332549.047   -21647135.048 9 -16850060.87547  21332548.055    21332558.2694
  21228180.701   -22227053.630 9 -16990517.52747  21228180.806    21228190.6994
  22514191.030   -18921812.383 8 -14391875.03446  22514190.291    22514203.1004
  23096982.301   -12607252.197 8  -9798997.06746  23096981.552    23096995.5614
  24215018.018    -9020825.293 7  -6470803.00845  24215017.803    24215033.3974
  23611438.366    -8581823.488 8  -6662182.45345  23611437.423    23611454.2714
 02  1 27  1 42 30.0000000  0 10 06 24 23 18 10 30 17 05 26 15
  20665423.027   -27932775.635 9 -21725968.67448  20665422.636    20665431.9554
  24557326.875    -1955008.386 7  -1158460.70245  24557326.307    24557340.8644
  21191113.024   -17020934.876 9 -13248330.42647  21191112.348    21191123.0884
  24464782.707    -2203211.051 7  -1694641.93445  24464781.864    24464799.1214
  21343739.974   -21588326.087 9 -16804235.66847  21343738.987    21343749.1754
  21241140.132   -22158951.399 9 -16937450.85747  21241140.215    21241150.1254
  22503373.194   -18978659.769 8 -14436171.49846  22503372.460    22503385.2524
  23116555.765   -12504393.234 8  -9718847.33446  23116555.062    23116569.0654
  24197741.440    -9111614.295 7  -6541547.48445  24197741.232    24197756.8044
  23596807.227    -8658709.342 8  -6722093.27245  23596806.312    23596823.0914
 02  1 27  1 43  0.0000000  0 10 06 24 23 18 10 30 17 05 26 15
  20658079.360   -27971366.410 9 -21756039.31548  20658078.970    20658088.2734
  24571987.202    -1877967.235 7  -1098428.61745  24571986.708    24572001.2394
  21180032.257   -17079164.301 9 -13293703.85947  21180031.570    21180042.2714
  24443693.611    -2314033.967 7  -1780997.16745  24443692.774    24443709.9694
  21355023.983   -21529028.238 9 -16758029.51447  21355022.995    21355033.1544
  21254183.105   -22090410.104 9 -16884042.06247  21254183.185    21254193.1004
  22492591.262   -19035318.448 8 -14480320.91846  22492590.544    22492603.2844
  23136153.793   -12401405.318 8  -9638597.12246  23136153.074    23136167.1024
  24180469.458    -9202378.073 7  -6612272.28345  24180469.389    24180484.8094
  23582206.817    -8735434.529 8  -6781878.91645  23582205.909    23582222.4704
 02  1 27  1 43 30.0000000  0 10 06 24 23 18 10 30 17 05 26 15
  20650790.266   -28009670.604 9 -21785886.64548  20650789.886    20650799.1584
  24586638.801    -1800971.610 7  -1038432.01245  24586638.394    24586652.7984
  21169038.933   -17136933.916 9 -13338718.99747  21169038.250    21169048.9204
  24422619.729    -2424776.622 7  -1867289.85745  24422618.983    24422636.0974
  21366400.876   -21469242.107 9 -16711442.87847  21366399.899    21366410.0354
  21267309.544   -22021430.260 9 -16830291.54647  21267309.618    21267319.5304
  22481845.573   -19091786.707 8 -14524321.95346  22481844.873    22481857.5184
  23155776.221   -12298289.186 8  -9558246.99746  23155775.540    23155789.5644
  24163203.258    -9293111.522 7  -6682973.45145  24163203.023    24163218.6474
  23567637.251    -8811997.228 8  -6841537.93545  23567636.335    23567652.7124
 02  1 27  1 44  0.0000000  0 10 06 24 23 18 10 30 17 05 26 15
  20643555.554   -28047688.913 9 -21815511.20948  20643555.174    20643564.4104
  24601281.401    -1724024.073 7   -978472.85645  24601281.039    24601295.3914
  21158133.017   -17194244.332 9 -13383376.32147  21158132.330    21158142.9814
  24401561.221    -2535438.746 7  -1953519.79645  24401560.502    24401577.6134
  21377869.722   -21408972.472 9 -16664479.48747  21377868.750    21377878.9144
  21280518.549   -21952016.604 9 -16776202.99547  21280518.623    21280528.5344
  22471135.652   -19148066.841 8 -14568176.39146  22471134.947    22471147.5634
  23175422.139   -12195049.700 8  -9477800.75346  23175421.459    23175435.5084
  24145943.037    -9383813.638 7  -6753650.18145  24145942.792    24145958.0704
  23553098.210    -8888399.473 8  -6901071.93745  23553097.310    23553113.5704
 02  1 27  1 44 30.0000000  0 10 06 24 23 18 10 30 17 05 26 15
  20636375.626   -28085419.183 9 -21844911.32348  20636375.245    20636384.4954
  24615914.904    -1647124.559 7   -918551.13445  24615914.497    24615928.7434
  21147314.813   -17251093.760 9 -13427674.43347  21147314.139    21147324.7314
  24380518.619    -2646017.570 7  -2039684.82745  24380517.949    24380534.8854
  21389430.219   -21348221.486 9 -16617141.01947  21389429.256    21389439.4324
  21293809.761   -21882170.883 9 -16721777.77247  21293809.842    21293819.7474
  22460461.602   -19204158.694 8 -14611884.11946  22460460.897    22460473.4564
  23195091.045   -12091689.229 8  -9397260.25246  23195090.353    23195104.4544
  24128689.467    -9474480.603 7  -6824299.50745  24128689.257    24128704.4734
  23538589.936    -8964640.550 8  -6960480.34245  23538588.984    23538605.1004
 02  1 27  1 45  0.0000000  0 10 06 24 23 18 10 30 17 05 26 15
  20629251.167   -28122858.001 9 -21874084.32648  20629250.797    20629260.0304
  24630539.495    -1570271.653 7   -858665.71645  24630538.982    24630553.3464
  21136584.900   -17307479.286 9 -13471611.06447  21136584.218    21136594.7714
  24359492.588    -2756509.255 7  -2125781.94845  24359491.865    24359508.7674
  21401082.220   -21286989.663 9 -16569427.87347  21401081.250    21401091.4094
  21307182.945   -21811894.400 9 -16667016.88747  21307183.014    21307192.9264
  22449823.608   -19260060.916 8 -14655444.07547  22449822.901    22449835.4244
  23214782.781   -11988208.851 8  -9316626.30246  23214782.051    23214796.2044
  24111443.450    -9565107.573 7  -6894917.64745  24111443.275    24111458.6974
  23524112.598    -9040718.807 8  -7019761.88345  23524111.647    23524127.6394
 02  1 27  1 45 30.0000000  0 10 06 24 23 18 10 30 17 05 26 15
  20622182.369   -28160004.559 9 -21903029.59948  20622181.991    20622191.2034
  24645154.847    -1493467.021 7   -798817.90745  24645154.265    24645168.6254
  21125943.344   -17363400.635 9 -13515186.00447  21125942.654    21125953.1674
  24338483.182    -2866912.693 7  -2211810.28045  24338482.540    24338499.3594
  21412825.052   -21225280.466 9 -16521342.75147  21412824.100    21412834.2244
  21320637.426   -21741190.499 9 -16611922.95447  21320637.520    21320647.4304
  22439221.418   -19315774.696 8 -14698857.19847  22439220.721    22439233.2104
  23234496.594   -11884612.100 8  -9235901.67646  23234495.903    23234510.1154
  24094205.560    -9655692.298 7  -6965502.85045  24094205.469    24094220.8124
  23509666.050    -9116635.291 8  -7078917.35545  23509665.078    23509680.9534
 02  1 27  1 46  0.0000000  0 10 06 24 23 18 10 30 17 05 26 15
  20615169.370   -28196857.806 9 -21931746.32048  20615168.996    20615178.1794
  24659760.681    -1416711.462 7   -739008.35345  24659760.313    24659774.5974
  21115390.233   -17418856.943 9 -13558398.57347  21115389.550    21115400.0094
  24317490.933    -2977226.133 7  -2297768.49645  24317490.393    24317507.0454
  21424658.123   -21163097.049 9 -16472888.10347  21424657.169    21424667.2814
  21334172.655   -21670062.341 9 -16556498.41747  21334172.750    21334182.6794
  22428655.063   -19371300.762 8 -14742124.05047  22428654.346    22428666.7844
  23254231.921   -11780902.327 8  -9155088.99246  23254231.271    23254245.5264
  24076976.289    -9746232.020 7  -7036052.97845  24076976.276    24076991.3834
  23495250.134    -9192390.154 8  -7137946.89145  23495249.228    23495264.9694
 02  1 27  1 46 30.0000000  0 10 06 24 23 18 10 30 17 05 26 15
  20608212.536   -28233415.900 9 -21960233.04848  20608212.152    20608221.3094
  24674357.279    -1340005.251 7   -679237.24045  24674356.938    24674371.1844
  21104925.858   -17473846.935 9 -13601247.77747  21104925.174    21104935.6134
  24296516.354    -3087447.008 7  -2383654.58745  24296515.594    24296532.4274
  21436580.988   -21100441.880 9 -16424065.86147  21436580.025    21436590.1304
  21347788.181   -21598512.458 9 -16500745.26947  21347788.264    21347798.1754
  22418124.263   -19426639.577 8 -14785244.98947  22418123.557    22418135.9514
  23273988.268   -11677082.438 8  -9074190.49946  23273987.573    23274001.9304
  24059756.248    -9836723.551 7  -7106565.56945  24059756.257    24059771.1794
  23480865.043    -9267983.361 8  -7196850.44145  23480864.156    23480879.8314
 02  1 27  1 47  0.0000000  0 10 06 24 23 18 10 30 17 05 26 15
  20601312.351   -28269675.920 9 -21988487.51248  20601311.979    20601321.1324
  24688944.948    -1263347.542 7   -619503.91745  24688944.380    24688958.6034
  21094550.729   -17528368.113 9 -13643731.67547  21094550.057    21094560.4604
  24275559.929    -3197572.220 7  -2469466.12345  24275559.161    24275575.8504
  21448593.357   -21037316.418 9 -16374877.15647  21448592.398    21448602.4994
  21361483.635   -21526542.334 9 -16444664.66047  21361483.723    21361493.6394
  22407629.300   -19481789.913 8 -14828219.06047  22407628.602    22407640.9864
  23293765.353   -11573153.951 8  -8993207.38646  23293764.592    23293779.0194
  24042546.109    -9927162.369 7  -7177037.06445  24042546.062    24042561.0604
  23466510.909    -9343413.714 8  -7255627.09646  23466510.053    23466525.6444
 02  1 27  1 47 30.0000000  0 10 06 24 23 18 10 30 17 05 26 15
  20594469.094   -28305637.137 9 -22016509.14248  20594468.726    20594477.8534
  24703523.001    -1186739.504 7   -559809.30445  24703522.269    24703536.6894
  21084264.944   -17582419.877 9 -13685849.79547  21084264.248    21084274.6084
  24254622.037    -3307600.280 7  -2555201.94745  24254621.336    24254637.7764
  21460694.584   -20973723.795 9 -16325324.43247  21460693.641    21460703.6974
  21375258.420   -21454155.304 9 -16388259.18747  21375258.496    21375268.4034
  22397170.017   -19536753.058 8 -14871047.27347  22397169.313    22397181.6324
  23313562.465   -11469120.373 8  -8912142.37946  23313561.686    23313576.0694
  24025346.400   -10017545.977 7  -7247465.54945  24025346.360    24025361.4234
  23452187.711    -9418681.795 8  -7314277.29946  23452186.829    23452202.3864
 02  1 27  1 48  0.0000000  0 10 06 24 23 18 10 30 17 05 26 15
  20587683.335   -28341296.258 9 -22044295.37448  20587682.944    20587692.0474
  24718091.660    -1110179.862 7   -500152.39245  24718090.882    24718105.5384
  21074068.978   -17635999.347 9 -13727599.89447  21074068.316    21074078.6204
  24233703.476    -3417527.299 7  -2640859.05245  24233702.736    24233719.1964
  21472884.560   -20909664.910 8 -16275408.39247  21472883.592    21472893.6424
  21389112.409   -21381352.326 9 -16331529.60347  21389112.476    21389122.3684
  22386746.607   -19591527.512 8 -14913728.45847  22386745.928    22386758.1744
  23333379.278   -11364982.794 8  -8830996.34546  23333378.478    23333392.8774
  24008158.179   -10107869.386 7  -7317847.12145  24008157.968    24008173.1834
  23437895.672    -9493785.839 8  -7372799.66946  23437894.843    23437910.3504
 02  1 27  1 48 30.0000000  0 10 06 24 23 18 10 30 17 05 26 15
  20580954.664   -28376655.247 9 -22071847.74048  20580954.272    20580963.3624
  24732650.558    -1033672.642 7   -440536.34545  24732649.852    24732664.4824
  21063962.415   -17689109.131 9 -13768984.00247  21063961.743    21063972.0164
  24212803.868    -3527354.587 8  -2726438.42845  24212803.136    24212819.3534
  21485162.001   -20845146.194 8 -16225134.04247  21485161.053    21485171.1234
  21403044.298   -21308139.739 9 -16274480.83747  21403044.361    21403054.2404
  22376358.407   -19646117.143 8 -14956265.62147  22376357.710    22376369.8904
  23353214.641   -11260747.635 8  -8749774.26146  23353213.857    23353228.2884
  23990981.443   -10198133.021 7  -7388182.12245  23990981.180    23990996.3424
  23423634.245    -9568729.716 8  -7431197.24746  23423633.367    23423648.8234
 02  1 27  1 49  0.0000000  0 10 06 24 23 18 10 30 17 05 26 15
  20574284.141   -28411708.688 9 -22099162.01948  20574283.760    20574292.8314
  24747200.128     -957214.246 7   -380958.33645  24747199.600    24747213.9074
  21053946.185   -17741744.242 9 -13809998.23747  21053945.527    21053955.7574
  24191924.309    -3637076.077 8  -2811935.38245  24191923.441    24191939.7104
  21497527.236   -20780166.275 8 -16174500.31547  21497526.292    21497536.3764
  21417054.341   -21234516.385 9 -16217112.00147  21417054.432    21417064.3134
  22366005.996   -19700518.633 8 -14998656.18547  22366005.267    22366017.3914
  23373068.721   -11156413.925 8  -8668475.39846  23373067.951    23373082.4324
  23973817.392   -10288329.876 7  -7458465.08845  23973817.232    23973832.1344
  23409403.888    -9643509.351 8  -7489466.83146  23409402.999    23409418.5084
 02  1 27  1 49 30.0000000  0 10 06 24 23 18 10 30 17 05 26 15
  20567671.496   -28446457.919 9 -22126239.25348  20567671.128    20567680.1774
  24761739.579     -880808.414 7   -321421.28545  24761738.995    24761753.4394
  21044019.924   -17793906.656 9 -13850644.14047  21044019.249    21044029.4514
  24171064.633    -3746692.947 8  -2897350.79045  24171063.811    24171080.0834
  21509979.193   -20714730.973 8 -16123511.74647  21509978.202    21509988.2944
  21431141.429   -21160488.332 9 -16159427.81747  21431141.509    21431151.4114
  22355688.751   -19754735.390 8 -15040902.80847  22355688.020    22355700.0684
  23392940.464   -11051987.512 8  -8587104.29146  23392939.694    23392954.2294
  23956665.945   -10378459.842 8  -7528695.92845  23956665.756    23956680.6064
  23395204.209    -9718127.893 8  -7547610.88446  23395203.308    23395218.8754
 02  1 27  1 50  0.0000000  0 10 06 24 23 18 10 30 17 05 26 15
  20561117.668   -28480898.187 9 -22153075.72948  20561117.305    20561126.2984
  24776269.808     -804452.179 7   -261922.87645  24776269.175    24776283.6334
  21034184.371   -17845592.194 9 -13890918.44547  21034183.698    21034193.8974
  24150225.881    -3856199.869 8  -2982680.52045  24150225.027    24150241.2624
  21522517.870   -20648839.729 8 -16072167.88747  21522516.882    21522526.9584
  21445305.623   -21086054.960 9 -16101427.79547  21445305.704    21445315.6124
  22345407.226   -19808764.510 8 -15083003.21747  22345406.477    22345418.4594
  23412829.918   -10947468.023 8  -8505660.65446  23412829.175    23412843.8274
  23939528.616   -10468516.416 7  -7598869.58945  23939528.400    23939543.1054
  23381035.726    -9792582.399 8  -7605627.14046  23381034.867    23381050.4374
 02  1 27  1 50 30.0000000  0 10 06 24 23 18 10 30 17 05 26 15
  20554622.815   -28515028.479 9 -22179670.67248  20554622.441    20554631.4244
  24790790.331     -728146.521 7   -202463.87245  24790789.673    24790803.9744
  21024439.703   -17896800.282 9 -13930820.71647  21024439.034    21024449.1874
  24129408.445    -3965595.214 8  -3067923.31145  24129407.679    24129423.7314
  21535142.674   -20582495.801 8 -16020471.29347  21535141.692    21535151.7294
  21459546.326   -21011219.593 9 -16043114.53247  21459546.405    21459556.3034
  22335161.171   -19862607.030 8 -15124958.23247  22335160.441    22335172.3474
  23432736.431   -10842858.793 8  -8424147.09246  23432735.714    23432750.4504
  23922405.645   -10558497.129 7  -7668984.14445  23922405.444    23922420.0054
  23366898.449    -9866873.393 8  -7663515.98246  23366897.594    23366913.1084
 02  1 27  1 51  0.0000000  0 10 06 24 23 18 10 30 17 05 26 15
  20548186.936   -28548848.780 9 -22206024.06748  20548186.577    20548195.5504
  24805300.692     -651893.578 7   -143045.94445  24805300.138    24805314.4414
  21014785.721   -17947531.567 9 -13970351.45847  21014785.067    21014795.1964
  24108612.283    -4074878.397 8  -3153078.70245  24108611.616    24108627.5434
  21547852.822   -20515703.387 8 -15968425.23547  21547851.843    21547861.9034
  21473862.673   -20935986.626 9 -15984491.44347  21473862.784    21473872.6614
  22324950.282   -19916264.845 8 -15166769.32247  22324949.549    22324961.3804
  23452659.214   -10738164.318 8  -8342567.11645  23452658.453    23452673.2904
  23905297.513   -10648400.193 7  -7739038.19445  23905297.347    23905311.7914
  23352791.961    -9941002.410 8  -7721278.62246  23352791.110    23352806.6224
 02  1 27  1 51 30.0000000  0 10 06 24 23 18 10 30 17 05 26 15
  20541810.799   -28582355.098 9 -22232132.79948  20541810.451    20541819.4104
  24819801.578     -575690.892 7    -83667.17845  24819800.899    24819815.4384
  21005223.178   -17997782.680 9 -14009508.04147  21005222.517    21005232.6054
  24087838.365    -4184044.933 8  -3238143.19245  24087837.727    24087853.4794
  21560648.246   -20448462.944 8 -15916030.05547  21560647.275    21560657.3324
  21488254.606   -20860356.508 9 -15925558.88647  21488254.701    21488264.5944
  22314774.895   -19969735.997 8 -15208434.97347  22314774.164    22314785.9424
  23472598.150   -10633385.080 8  -8260921.08245  23472597.409    23472612.2054
  23888205.084   -10738220.081 7  -7809027.42745  23888204.881    23888219.3794
  23338716.619   -10014967.353 8  -7778913.41746  23338715.814    23338731.3534
 02  1 27  1 52  0.0000000  0 10 06 24 23 18 10 30 17 05 26 15
  20535494.683   -28615546.328 9 -22257996.00748  20535494.323    20535503.2434
  24834292.605     -499540.028 7    -24328.81645  24834292.097    24834306.4444
  20995752.097   -18047552.967 9 -14048289.95347  20995751.444    20995761.5064
  24067087.071    -4293093.317 8  -3323115.61845  24067086.344    24067102.0594
  21573528.316   -20380777.501 8 -15863288.12547  21573527.358    21573537.4304
  21502721.465   -20784332.505 9 -15866319.40747  21502721.586    21502731.4984
  22304634.904   -20023021.339 8 -15249955.83347  22304634.163    22304645.9144
  23492552.525   -10528524.528 8  -8179211.69545  23492551.814    23492566.6194
  23871129.021   -10827953.980 7  -7878949.66845  23871128.822    23871143.3944
  23324672.589   -10088768.470 8  -7836420.55046  23324671.766    23324687.2054
 02  1 27  1 52 30.0000000  0 10 06 24 23 18 10 30 17 05 26 15
  20529238.491   -28648422.659 9 -22283613.83548  20529238.124    20529247.0014
  24848773.338     -423442.854 7     34967.73145  24848772.843    24848787.3194
  20986372.357   -18096843.343 9 -14086697.91347  20986371.698    20986381.7324
  24046358.205    -4402023.242 7  -3407995.73845  24046357.424    24046373.1034
  21586492.121   -20312651.999 8 -15810203.28747  21586491.193    21586501.2564
  21517262.413   -20707919.306 9 -15806776.66147  21517262.539    21517272.4444
  22294529.811   -20076123.030 8 -15291333.60347  22294529.079    22294540.7814
  23512521.560   -10423587.141 8  -8097442.42745  23512520.830    23512535.6974
  23854069.541   -10917600.463 7  -7948803.78445  23854069.362    23854083.9594
  23310659.336   -10162407.625 8  -7893801.49946  23310658.567    23310673.8974
 02  1 27  1 53  0.0000000  0 10 06 24 23 18 10 30 17 05 26 15
  20523042.924   -28680980.192 9 -22308983.25548  20523042.563    20523051.4174
  24863244.251     -347397.198 7     94224.12845  24863243.894    24863258.2264
  20977084.525   -18145650.604 9 -14124729.42447  20977083.867    20977093.8734
  24025652.728    -4510830.032 7  -3492779.93245  24025651.908    24025667.5274
  21599539.664   -20244086.661 8 -15756775.72047  21599538.731    21599548.7564
  21531877.345   -20631117.442 9 -15746931.05947  21531877.451    21531887.3704
  22284460.032   -20129039.187 8 -15332566.79647  22284459.310    22284470.9874
  23532505.130   -10318573.321 8  -8015613.59445  23532504.396    23532519.2504
  23837027.789   -11007154.032 7  -8018585.51245  23837027.610    23837042.2424
  23296677.328   -10235882.659 8  -7951054.57046  23296676.507    23296691.8364
 02  1 27  1 53 30.0000000  0  9 06 23 18 10 30 17 05 26 15
  20516908.106   -28713218.581 9 -22334103.98948  20516907.750    20516916.5654
  20967888.639   -18193974.975 9 -14162384.65647  20967887.973    20967897.9294
  24004970.762    -4619512.687 8  -3577467.38745  24004970.016    24004985.4774
  21612670.163   -20175085.370 8 -15703008.44747  21612669.231    21612679.2414
  21546565.503   -20553930.777 9 -15686785.61347  21546565.593    21546575.4984
  22274425.316   -20181771.367 8 -15373656.63347  22274424.597    22274436.2544
  23552502.526   -10213487.072 8  -7933728.32345  23552501.792    23552516.6724
  23820004.187   -11096612.527 7  -8088293.14145  23820003.955    23820018.6084
  23282726.263   -10309194.926 8  -8008180.80446  23282725.435    23282740.7424
 02  1 27  1 54  0.0000000  0  9 06 23 18 10 30 17 05 26 15
  20510834.341   -28745136.100 9 -22358974.69248  20510833.975    20510842.7734
  20958784.803   -18241815.417 9 -14199662.80047  20958784.126    20958794.0284
  23984312.828    -4728069.031 7  -3662056.44745  23984312.196    23984327.6444
  21625883.146   -20105650.660 8 -15648903.44947  21625882.193    21625892.1974
  21561326.333   -20476362.173 9 -15626342.54447  21561326.434    21561336.3144
  22264425.573   -20234319.827 8 -15414603.31347  22264424.829    22264436.4204
  23572513.126   -10108331.143 8  -7851788.76845  23572512.410    23572527.3034
  23802999.370   -11185972.596 7  -8157924.10445  23802999.177    23803013.6824
  23268806.294   -10382344.123 8  -8065179.99146  23268805.481    23268820.7214
 02  1 27  1 54 30.0000000  0  9 06 23 18 10 30 17 05 26 15
  20504822.078   -28776730.254 9 -22383593.42948  20504821.717    20504830.5174
  20949773.417   -18289169.968 9 -14236562.33347  20949772.754    20949782.6294
  23963679.640    -4836496.173 8  -3746544.85445  23963678.971    23963694.2894
  21639178.249   -20035784.279 8 -15594462.07947  21639177.290    21639187.2794
  21576159.514   -20398413.464 9 -15565603.28847  21576159.586    21576169.4774
  22254460.872   -20286684.036 8 -15455406.42947  22254460.138    22254471.6914
  23592536.726   -10003107.363 8  -7769796.33445  23592535.927    23592550.8614
  23786013.939   -11275230.019 7  -8227475.05645  23786013.826    23786028.1824
  23254917.482   -10455329.341 8  -8122051.39546  23254916.686    23254931.8644
 02  1 27  1 55  0.0000000  0  9 06 23 18 10 30 17 05 26 15
  20498872.047   -28807997.492 9 -22407957.42248  20498871.687    20498880.4504
  20940855.021   -18336036.041 9 -14273081.23247  20940854.358    20940864.1954
  23943071.768    -4944790.007 8  -3830929.39945  23943071.148    23943086.2374
  21652555.323   -19965487.170 8 -15539685.06847  21652554.398    21652564.3454
  21591064.800   -20320085.636 9 -15504568.61847  21591064.887    21591074.7814
  22244531.495   -20338862.398 8 -15496064.72747  22244530.772    22244542.2814
  23612573.088    -9897816.549 8  -7687751.66245  23612572.226    23612587.1014
  23769049.166   -11364379.503 7  -8296941.93845  23769049.050    23769063.2744
  23241060.296   -10528148.960 8  -8178793.74346  23241059.490    23241074.5504
 02  1 27  1 55 30.0000000  0  9 06 23 18 10 30 17 05 26 15
  20492983.877   -28838939.730 9 -22432068.17948  20492983.513    20492992.2624
  20932029.093   -18382416.210 9 -14309221.50848  20932028.418    20932038.2324
  23922489.062    -5052951.816 8  -3915211.08845  23922488.436    23922503.3874
  21666013.177   -19894765.730 8 -15484577.41847  21666012.222    21666022.1604
  21606041.038   -20241385.093 9 -15443243.52247  21606041.109    21606051.0184
  22234636.774   -20390858.924 8 -15536581.35147  22234636.042    22234647.4874
  23632620.907    -9792465.121 8  -7605659.76045  23632620.017    23632634.9444
  23752104.943   -11453421.486 8  -8366325.03345  23752104.770    23752118.7944
  23227233.949   -10600806.431 8  -8235409.74546  23227233.061    23227248.0554
 02  1 27  1 56  0.0000000  0  9 06 23 18 10 30 17 05 26 15
  20487158.396   -28869552.573 9 -22455922.25348  20487158.036    20487166.7534
  20923296.301   -18428306.821 9 -14344980.30748  20923295.644    20923305.4104
  23901932.385    -5160976.856 8  -3999386.21245  23901931.768    23901946.5944
  21679551.800   -19823619.911 8 -15429139.08247  21679550.809    21679560.7404
  21621088.128   -20162312.018 9 -15381628.14347  21621088.192    21621098.1164
  22224777.116   -20442671.171 8 -15576954.37247  22224776.388    22224787.7674
  23652680.208    -9687053.061 8  -7523520.62545  23652679.371    23652694.3404
  23735182.192   -11542349.732 8  -8435619.51845  23735182.176    23735196.0434
  23213438.919   -10673298.780 8  -8291897.07046  23213438.061    23213453.0404
 02  1 27  1 56 30.0000000  0  9 06 23 18 10 30 17 05 26 15
  20481395.693   -28899835.470 9 -22479519.22748  20481395.315    20481404.0344
  20914656.662   -18473707.875 9 -14380357.63448  20914655.995    20914665.7544
  23881402.044    -5268863.812 8  -4083453.75245  23881401.400    23881416.0744
  21693170.376   -19752053.493 8 -15373373.00747  21693169.411    21693179.3354
  21636205.426   -20082870.081 8 -15319725.33847  21636205.487    21636215.4384
  22214952.278   -20494300.386 8 -15617184.77247  22214951.569    22214962.9084
  23672750.341    -9581584.162 8  -7441337.19645  23672749.526    23672764.5604
  23718281.596   -11631161.895 8  -8504823.56045  23718281.575    23718295.4464
  23199675.173   -10745627.155 8  -8348256.61846  23199674.280    23199689.2224
 02  1 27  1 57  0.0000000  0  9 06 23 18 10 30 17 05 26 15
  20475696.288   -28929785.737 9 -22502857.01448  20475695.911    20475704.6124
  20906110.558   -18518617.442 9 -14415351.98748  20906109.891    20906119.6244
  23860898.467    -5376609.499 8  -4167411.20945  23860897.844    23860912.5314
  21706868.725   -19680068.008 8 -15317280.38247  21706867.738    21706877.6844
  21651392.548   -20003061.076 9 -15257536.51047  21651392.623    21651402.5754
  22205162.431   -20545745.963 8 -15657272.08447  22205161.707    22205173.0124
  23692830.903    -9476060.091 8  -7359110.77745  23692830.124    23692845.2444
  23701403.923   -11719853.746 8  -8573933.83545  23701403.901    23701417.5444
  23185942.743   -10817790.782 8  -8404487.79546  23185941.857    23185956.7224
 02  1 27  1 57 30.0000000  0  9 06 23 18 10 30 17 05 26 15
  20470060.245   -28959403.025 9 -22525935.33948  20470059.863    20470068.5544
  20897657.855   -18563036.153 9 -14449963.85148  20897657.183    20897666.9184
  23840421.994    -5484212.956 8  -4251257.85045  23840421.450    23840436.0514
  21720646.033   -19607667.606 8 -15260864.44547  21720645.060    21720654.9824
  21666648.758   -19922889.227 8 -15195064.94247  21666648.841    21666658.7784
  22195407.209   -20597009.529 8 -15697217.57547  22195406.470    22195417.7364
  23712921.369    -9370484.746 8  -7276844.40845  23712920.576    23712935.6954
  23684549.576   -11808422.928 8  -8642948.52345  23684549.548    23684563.0444
  23172241.449   -10889790.920 8  -8460591.55346  23172240.542    23172255.3274
 02  1 27  1 58  0.0000000  0  9 06 23 18 10 30 17 05 26 15
  20464487.683   -28988686.541 9 -22548753.58048  20464487.310    20464495.9644
  20889298.591   -18606964.003 9 -14484193.22648  20889297.920    20889307.6204
  23819973.012    -5591672.788 8  -4334992.55745  23819972.396    23819986.8854
  21734501.665   -19534855.911 8 -15204128.01647  21734500.688    21734510.5644
  21681973.313   -19842358.219 8 -15132313.51047  21681973.382    21681983.2984
  22185686.335   -20648092.190 8 -15737022.09747  22185685.610    22185696.8624
  23733020.927    -9264861.668 8  -7194540.84445  23733020.122    23733035.2574
  23667719.002   -11896867.083 8  -8711865.78245  23667719.010    23667732.3694
  23158571.069   -10961628.389 8  -8516568.54546  23158570.176    23158584.8534
 02  1 27  1 58 30.0000000  0  9 06 23 18 10 30 17 05 26 15
  20458979.710   -29017630.885 9 -22571307.53648  20458979.343    20458987.9734
  20881033.593   -18650396.429 9 -14518036.56248  20881032.922    20881042.5984
  23799552.320    -5698983.093 8  -4418610.72745  23799551.704    23799566.1924
  21748435.676   -19461631.876 8 -15147070.29347  21748434.712    21748444.6024
  21697366.433   -19761467.088 8 -15069281.46647  21697366.486    21697376.3684
  22176000.559   -20698990.575 8 -15776683.03047  22175999.855    22176011.0834
  23753129.766    -9159189.838 8  -7112199.30445  23753128.930    23753144.0964
  23650913.564   -11985179.083 8  -8780680.05645  23650913.624    23650926.8914
  23144932.287   -11033299.458 8  -8572415.86746  23144931.458    23144946.0424
 02  1 27  1 59  0.0000000  0  9 06 23 18 10 30 17 05 26 15
  20453535.956   -29046237.495 9 -22593598.31848  20453535.592    20453544.2044
  20872862.424   -18693335.727 9 -14551495.64348  20872861.769    20872871.4084
  23779159.868    -5806144.761 8  -4502113.06545  23779159.212    23779173.7724
  21762447.012   -19388001.282 8 -15089695.76647  21762446.072    21762455.9734
  21712826.883   -19680221.814 8 -15005973.47447  21712826.933    21712836.8294
  22166349.191   -20749708.045 8 -15816202.98847  22166348.487    22166359.6654
  23773246.732    -9053475.205 8  -7029824.40045  23773245.884    23773261.0884
  23634133.406   -12073358.680 8  -8849391.15245  23634133.401    23634146.6174
  23131324.693   -11104807.096 8  -8628135.83946  23131323.868    23131338.3264
 02  1 27  1 59 30.0000000  0  9 06 23 18 10 30 17 05 26 15
  20448156.995   -29074503.876 9 -22615623.98648  20448156.636    20448165.2244
  20864785.414   -18735780.192 9 -14584569.13748  20864784.740    20864794.3574
  23758796.225    -5913154.968 8  -4585497.36145  23758795.609    23758810.3104
  21776535.458   -19313965.941 8 -15032005.85747  21776534.489    21776544.3884
  21728354.305   -19598624.464 8 -14942391.13347  21728354.373    21728364.2764
  22156732.406   -20800244.065 8 -15855581.55547  22156731.714    22156742.8224
  23793371.484    -8947719.401 8  -6947417.40745  23793370.672    23793385.8284
  23617379.223   -12161401.545 8  -8917995.69145  23617379.169    23617392.4024
  23117748.354   -11176150.500 8  -8683727.82546  23117747.497    23117761.8764
 02  1 27  2  0  0.0000000  0  9 06 23 18 10 30 17 05 26 15
  20442843.129   -29102428.172 9 -22637383.10048  20442842.755    20442851.3204
  20856802.766   -18777728.882 9 -14617256.31648  20856802.107    20856811.6854
  23738461.930    -6020011.145 8  -4668761.64245  23738461.365    23738476.0734
  21790700.452   -19239528.367 8 -14974002.52547  21790699.463    21790709.3334
  21743948.283   -19516677.645 8 -14878536.49147  21743948.358    21743958.2724
  22147150.077   -20850598.949 8 -15894818.98347  22147149.398    22147160.4804
  23813503.652    -8841924.878 8  -6864980.25345  23813502.785    23813517.9104
  23600651.676   -12249304.060 8  -8986490.85845  23600651.589    23600664.7944
  23104203.184   -11247329.539 8  -8739191.72946  23104202.344    23104216.6444
 02  1 27  2  0 30.0000000  0  9 06 23 18 10 30 17 05 26 15
  20437594.795   -29130008.187 9 -22658873.94548  20437594.428    20437602.9424
  20848914.665   -18819180.676 9 -14649556.30648  20848914.007    20848923.5484
  23718157.569    -6126710.604 8  -4751903.76545  23718156.942    23718171.5684
  21804941.510   -19164690.861 8 -14915687.55547  21804940.534    21804950.4254
  21759608.264   -19434383.843 8 -14814411.48047  21759608.346    21759618.2694
  22137602.290   -20900772.282 8 -15933914.94347  22137601.607    22137612.6964
  23833642.697    -8736093.799 8  -6782514.60845  23833641.842    23833657.0104
  23583951.598   -12337062.416 8  -9054873.69145  23583951.531    23583964.6134
  23090689.428   -11318343.902 8  -8794527.31946  23090688.599    23090702.8474
 02  1 27  2  1  0.0000000  0  9 06 23 18 10 30 17 05 26 15
  20432411.811   -29157244.480 9 -22680096.95548  20432411.446    20432419.9424
  20841120.878   -18860136.890 9 -14681470.12348  20841120.203    20841129.7184
  23697883.017    -6233253.269 8  -4834923.70245  23697882.308    23697896.9364
  21819257.731   -19089458.407 8 -14857064.83547  21819256.763    21819266.6504
  21775333.361   -19351748.036 8 -14750019.97647  21775333.440    21775343.3634
  22128088.538   -20950766.744 8 -15972871.52547  22128087.874    22128098.9104
  23853787.821    -8630231.029 8  -6700024.26545  23853787.017    23853802.1674
  23567279.210   -12424675.395 8  -9123143.23045  23567279.013    23567292.1544
  23077206.577   -11389195.802 8  -8849736.30546  23077205.674    23077219.9064
 02  1 27  2  1 30.0000000  0  9 06 23 18 10 30 17 05 26 15
  20427295.019   -29184133.183 9 -22701049.11448  20427294.638    20427303.1144
  20833421.955   -18900594.576 9 -14712995.47848  20833421.303    20833430.7844
  23677639.085    -6339634.776 8  -4917818.03945  23677638.433    23677652.9474
  21833649.077   -19013831.321 8 -14798134.61647  21833648.090    21833657.9494
  21791123.413   -19268770.707 8 -14685362.35347  21791123.499    21791133.4254
  22118609.245   -21000580.330 8 -16011687.16747  22118608.556    22118619.5544
  23873938.897    -8524337.025 8  -6617509.57645  23873938.026    23873953.2194
  23550635.636   -12512137.097 8  -9191294.89845  23550635.446    23550648.4764
  23063755.047   -11459882.842 8  -8904816.81646  23063754.146    23063768.3444
 02  1 27  2  2  0.0000000  0  9 06 23 18 10 30 17 05 26 15
  20422244.699   -29210672.510 9 -22721729.03748  20422244.325    20422252.7754
  20825818.052   -18940552.957 9 -14744131.77148  20825817.407    20825826.8394
  23657426.219    -6445852.670 8  -5000584.87745  23657425.536    23657440.0844
  21848114.929   -18937812.501 8 -14738899.15247  21848113.955    21848123.8154
  21806977.956   -19185454.710 8 -14620440.82847  21806978.033    21806987.9734
  22109164.342   -21050213.196 8 -16050361.98547  22109163.635    22109174.5954
  23894095.511    -8418414.157 8  -6534972.39345  23894094.632    23894109.7684
  23534021.471   -12599444.201 8  -9259326.11045  23534021.227    23534034.2174
  23050334.936   -11530404.758 8  -8959768.66946  23050334.067    23050348.1404
 02  1 27  2  2 30.0000000  0  9 06 23 18 10 30 17 05 26 15
  20417261.006   -29236861.722 9 -22742136.14148  20417260.635    20417269.0424
  20818309.135   -18980012.229 9 -14774879.14448  20818308.475    20818317.8814
  23637244.639    -6551905.941 8  -5083223.43545  23637243.957    23637258.4434
  21862654.710   -18861405.439 8 -14679361.16347  21862653.710    21862663.5644
  21822896.153   -19101804.006 8 -14555258.49047  21822896.253    21822906.2144
  22099753.568   -21099666.558 8 -16088896.92947  22099752.850    22099763.7764
  23914256.901    -8312466.048 8  -6452415.54445  23914256.035    23914271.1614
  23517437.145   -12686594.021 8  -9327234.74745  23517436.928    23517449.9274
  23036946.071   -11600762.365 8  -9014592.47546  23036945.185    23036959.2214
 02  1 27  2  3  0.0000000  0  9 06 23 18 10 30 17 05 26 15
  20412344.124   -29262699.720 9 -22762269.57348  20412343.759    20412352.1704
  20810895.222   -19018972.152 9 -14805237.41448  20810894.568    20810903.9374
  23617094.890    -6657792.603 8  -5165732.15345  23617094.166    23617108.4484
  21877267.700   -18784613.416 8 -14619523.21347  21877266.713    21877276.5614
  21838877.496   -19017821.585 8 -14489817.67947  21838877.609    21838887.5814
  22090376.853   -21148941.091 8 -16127292.53147  22090376.141    22090386.9974
  23934422.463    -8206495.770 8  -6369841.41745  23934421.585    23934436.7494
  23500883.271   -12773583.651 8  -9395018.57245  23500883.098    23500896.0594
  23023588.318   -11670956.332 8  -9069288.78346  23023587.483    23023601.5044
 02  1 27  2  3 30.0000000  0  9 06 23 18 10 30 17 05 26 15
  20407494.699   -29288183.348 9 -22782126.87548  20407494.326    20407502.7284
  20803576.715   -19057430.530 9 -14835204.87348  20803576.064    20803585.4124
  23596977.526    -6763509.116 8  -5248108.28445  23596976.744    23596990.9374
  21891953.721   -18707437.738 8 -14559386.31047  21891952.746    21891962.5854
  21854921.656   -18933509.074 8 -14424119.64647  21854921.762    21854931.7464
  22081034.332   -21198035.727 8 -16165547.95147  22081033.639    22081044.4554
  23954591.988    -8100504.586 8  -6287251.01645  23954591.122    23954606.3324
  23484360.830   -12860408.122 8  -9462673.69745  23484360.706    23484373.5774
  23010262.017   -11740985.292 8  -9123856.50846  23010261.188    23010275.1994
 02  1 27  2  4  0.0000000  0  9 06 23 18 10 30 17 05 26 15
  20402712.967   -29313311.231 9 -22801706.97548  20402712.586    20402720.9824
  20796353.774   -19095387.091 9 -14864781.30448  20796353.105    20796362.4244
  23576892.820    -6869053.524 8  -5330350.29745  23576892.108    23576906.1354
  21906712.179   -18629881.508 8 -14498952.87047  21906711.219    21906721.0494
  21871028.081   -18848869.483 8 -14358166.73847  21871028.192    21871038.1764
  22071725.959   -21246950.995 8 -16203663.61247  22071725.253    22071736.0464
  23974764.935    -7994495.386 7  -6204646.56045  23974764.086    23974779.3254
  23467870.494   -12947064.163 8  -9530197.58045  23467870.352    23467883.2524
  22996967.114   -11810849.345 8  -9178295.73046  22996966.272    22996980.2394
 02  1 27  2  4 30.0000000  0  9 06 23 18 10 30 17 05 26 15
  20397998.914   -29338083.481 9 -22821009.95348  20397998.540    20398006.9234
  20789226.057   -19132843.148 9 -14893967.73248  20789225.399    20789234.6694
  23556840.842    -6974425.504 8  -5412457.95845  23556840.120    23556854.1124
  21921542.248   -18551949.116 8 -14438226.31947  21921541.233    21921551.0524
  21887195.807   -18763907.773 8 -14291962.82847  21887195.880    21887205.8614
  22062451.350   -21295689.078 8 -16241641.20747  22062450.633    22062461.3434
  23994940.431    -7888472.573 7  -6122031.50545  23994939.669    23994954.9274
  23451412.479   -13033550.266 8  -9597589.05845  23451412.386    23451425.1884
  22983703.328   -11880550.212 8  -9232607.79846  22983702.434    22983716.3194
 02  1 27  2  5  0.0000000  0  9 06 23 18 10 30 17 05 26 15
  20393353.401   -29362495.564 9 -22840032.27848  20393353.026    20393361.3864
  20782194.278   -19169794.913 9 -14922761.20348  20782193.607    20782202.8504
  23536822.790    -7079619.731 8  -5494427.10545  23536822.097    23536836.0364
  21936443.882   -18473640.544 8 -14377206.64547  21936442.877    21936452.6684
  21903424.796   -18678623.726 8 -14225507.75347  21903424.894    21903434.8804
  22053210.930   -21344247.310 8 -16279478.65647  22053210.221    22053220.8864
  24015118.575    -7782435.745 7  -6039405.52845  24015117.790    24015133.2194
  23434988.097   -13119859.936 8  -9664843.04945  23434988.046    23435000.6974
  22970471.014   -11950085.135 8  -9286790.55346  22970470.135    22970483.9454
 02  1 27  2  5 30.0000000  0  9 06 23 18 10 30 17 05 26 15
  20388776.035   -29386549.324 9 -22858775.39848  20388775.664    20388784.0094
  20775257.856   -19206245.499 9 -14951164.15248  20775257.199    20775266.4144
  23516838.288    -7184637.694 8  -5576258.91045  23516837.633    23516851.4424
  21951415.947   -18394961.775 8 -14315898.50247  21951414.952    21951424.7334
  21919713.946   -18593023.747 8 -14158806.49747  21919714.048    21919724.0384
  22044003.956   -21392629.418 8 -16317178.87747  22044003.264    22044013.9214
  24035298.279    -7676390.991 7  -5956773.36845  24035297.490    24035313.1704
  23418597.318   -13205993.268 8  -9731959.66145  23418597.273    23418609.7604
  22957269.617   -12019457.516 8  -9340846.66846  22957268.734    22957282.5104
 02  1 27  2  6  0.0000000  0  9 06 23 18 10 30 17 05 26 15
  20384267.998   -29410238.970 9 -22877234.78848  20384267.635    20384275.9664
  20768417.751   -19242190.192 9 -14979172.89748  20768417.084    20768426.2844
  23496888.530    -7289473.176 8  -5657948.52545  23496887.924    23496901.5324
  21966458.703   -18315911.551 8 -14254300.91647  21966457.718    21966467.4854
  21936063.469   -18507106.573 8 -14091858.07247  21936063.549    21936073.5764
  22034831.288   -21440831.618 8 -16354738.90647  22034830.595    22034841.2144
  24055479.701    -7570336.696 7  -5874133.76045  24055478.949    24055494.6514
  23402241.497   -13291942.622 8  -9798932.90945  23402241.366    23402253.8914
  22944099.999   -12088663.331 8  -9394772.97946  22944099.111    22944112.8074
 02  1 27  2  6 30.0000000  0  9 06 23 18 10 30 17 05 26 15
  20379828.564   -29433568.096 9 -22895413.25548  20379828.199    20379836.5184
  20761673.000   -19277633.574 9 -15006791.01348  20761672.334    20761681.5034
  23476972.932    -7394129.043 8  -5739498.18045  23476972.290    23476985.7504
  21981570.574   -18236497.962 8 -14192420.17947  21981569.606    21981579.3684
  21952471.781   -18420880.459 8 -14024668.91047  21952471.850    21952481.8874
  22025691.786   -21488859.348 8 -16392162.98147  22025691.102    22025701.7084
  24075661.519    -7464280.721 7  -5791492.84345  24075660.797    24075676.5524
  23385920.316   -13377709.720 8  -9865764.14445  23385920.235    23385932.6714
  22930961.073   -12157707.633 8  -9448573.44446  22930960.177    22930973.8274
 02  1 27  2  7  0.0000000  0  9 06 23 18 10 30 17 05 26 15
  20375459.123   -29456529.367 9 -22913305.08148  20375458.764    20375467.0574
  20755024.835   -19312569.519 9 -15034013.72148  20755024.156    20755033.3034
  23457092.942    -7498597.364 8  -5820901.70045  23457092.374    23457105.6954
  21996752.220   -18156717.856 8 -14130253.84947  21996751.236    21996761.0364
  21968939.449   -18334342.442 8 -13957236.72047  21968939.530    21968949.5684
  22016586.544   -21536707.229 8 -16429446.92047  22016585.865    22016596.4664
  24095844.228    -7358219.937 7  -5708848.18145  24095843.584    24095859.4144
  23369635.614   -13463285.319 8  -9932446.17245  23369635.549    23369647.7864
  22917853.981   -12226584.772 8  -9502243.63946  22917853.091    22917866.6074
 02  1 27  2  7 30.0000000  0  9 06 23 18 10 30 17 05 26 15
  20371159.318   -29479124.701 9 -22930911.75548  20371158.960    20371167.2334
  20748472.665   -19347001.034 9 -15060843.37148  20748471.992    20748481.1004
  23437248.381    -7602879.780 8  -5902160.36045  23437247.782    23437261.0134
  22012002.387   -18076577.527 8 -14067806.82547  22012001.409    22012011.2374
  21985465.202   -18247499.192 8 -13889566.68547  21985465.249    21985475.2824
  22007514.772   -21584379.181 8 -16466593.77947  22007514.085    22007524.6344
  24116026.625    -7252160.645 7  -5626204.67145  24116025.952    24116041.8664
  23353387.300   -13548669.609 8  -9998979.14545  23353387.277    23353399.3894
  22904778.018   -12295298.453 8  -9555786.47746  22904777.133    22904790.5614
 02  1 27  2  8  0.0000000  0  9 06 23 18 10 30 17 05 26 15
  20366929.506   -29501352.256 9 -22948231.85748  20366929.138    20366937.3884
  20742016.585   -19380927.468 9 -15087279.45648  20742015.921    20742025.0104
  23417439.612    -7706973.848 8  -5983272.26345  23417439.045    23417452.2204
  22027320.632   -17996079.546 8 -14005081.11747  22027319.654    22027329.4774
  22002048.529   -18160353.394 8 -13821660.89847  22002048.589    22002058.6324
  21998476.429   -21631875.347 8 -16503603.66347  21998475.752    21998486.2854
  24136208.491    -7146105.068 7  -5543564.06545  24136207.751    24136223.6934
  23337176.136   -13633858.943 8 -10065360.19645  23337176.109    23337188.1044
  22891733.135   -12363848.546 8  -9609201.84446  22891732.284    22891745.6534
 02  1 27  2  8 30.0000000  0  9 06 23 18 10 30 17 05 26 15
  20362770.295   -29523208.849 9 -22965262.88948  20362769.938    20362778.1404
  20735657.022   -19414346.757 9 -15113320.35948  20735656.354    20735665.4294
  23397667.511    -7810875.376 8  -6064234.12045  23397666.953    23397680.0614
  22042706.658   -17915225.301 8 -13942077.79246  22042705.683    22042715.5324
  22018689.205   -18072906.225 8 -13753520.26647  22018689.288    22018699.2954
  21989471.894   -21679194.264 8 -16540475.43347  21989471.176    21989481.6834
  24156389.444    -7040054.233 7  -5460927.13645  24156388.740    24156404.6454
  23321003.074   -13718848.044 8 -10131585.22945  23321003.056    23321015.0154
  22878719.838   -12432233.298 8  -9662488.36846  22878718.933    22878732.2224
 02  1 27  2  9  0.0000000  0  9 06 23 18 10 30 17 05 26 15
  20358681.581   -29544694.962 9 -22982005.23648  20358681.208    20358689.3944
  20729393.670   -19447260.451 9 -15138967.29748  20729393.010    20729402.0544
  23377932.038    -7914584.188 8  -6145045.80345  23377931.416    23377944.5524
  22058159.601   -17834019.372 8 -13878800.42346  22058158.625    22058168.4864
  22035386.309   -17985162.602 8 -13685148.63247  22035386.389    22035396.3994
  21980500.578   -21726338.170 8 -16577210.83047  21980499.877    21980510.3744
  24176568.511    -6934012.534 7  -5378297.34145  24176567.870    24176583.7604
  23304868.408   -13803635.602 8 -10197653.24345  23304868.326    23304880.3004
  22865737.583   -12500454.581 8  -9715647.52746  22865736.670    22865749.8644
 02  1 27  2  9 30.0000000  0  9 06 23 18 10 30 17 05 26 15
  20354663.779   -29565808.255 9 -22998457.07248  20354663.410    20354671.5714
  20723226.730   -19479667.514 9 -15164219.45448  20723226.069    20723235.0774
  23358233.750    -8018097.702 8  -6225705.31045  23358233.112    23358246.2974
  22073679.011   -17752464.172 8 -13815250.89546  22073678.060    22073687.8894
  22052139.270   -17897125.080 8 -13616548.00047  22052139.342    22052149.4004
  21971562.671   -21773306.949 8 -16613809.77247  21971561.974    21971572.4154
  24196745.567    -6827981.980 7  -5295676.23745  24196744.882    24196760.8274
  23288772.823   -13888217.372 8 -10263560.90445  23288772.718    23288784.6934
  22852786.475   -12568511.933 8  -9768678.94246  22852785.606    22852798.6714
 02  1 27  2 10  0.0000000  0  9 06 23 18 10 30 17 05 26 15
  20350717.422   -29586546.271 9 -23014616.49448  20350717.062    20350725.1914
  20717156.484   -19511566.525 9 -15189075.73248  20717155.822    20717164.8074
  23338573.311    -8121412.689 8  -6306210.13346  23338572.673    23338585.7904
  22089264.590   -17670561.102 8 -13751430.30846  22089263.661    22089273.4824
  22068947.882   -17808795.389 8 -13547719.70447  22068947.955    22068958.0294
  21962658.214   -21820099.780 8 -16650271.62047  21962657.509    21962667.8904
  24216920.193    -6721964.129 7  -5213065.01345  24216919.545    24216935.5124
  23272717.252   -13972588.864 8 -10329304.71645  23272717.223    23272729.0294
  22839866.762   -12636404.415 8  -9821581.89046  22839865.861    22839878.8754
 02  1 27  2 10 30.0000000  0  9 06 23 18 10 30 17 05 26 15
  20346842.638   -29606908.102 9 -23030482.77848  20346842.264    20346850.3814
  20711182.807   -19542957.966 9 -15213536.49548  20711182.157    20711191.1054
  23318950.894    -8224527.923 8  -6386559.28146  23318950.207    23318963.2444
  22104915.713   -17588313.959 8 -13687341.60146  22104914.756    22104924.5894
  22085811.304   -17720177.472 8 -13478666.82047  22085811.371    22085821.4554
  21953787.034   -21866717.854 8 -16686597.28847  21953786.300    21953796.6514
  24237091.866    -6615962.300 7  -5130466.27545  24237091.130    24237107.0414
  23256702.215   -14056747.561 8 -10394882.71645  23256702.121    23256713.9934
  22826978.194   -12704132.978 8  -9874357.11046  22826977.323    22826990.2724
 02  1 27  2 11  0.0000000  0  9 06 23 18 10 30 17 05 26 15
  20343039.747   -29626891.991 9 -23046054.56648  20343039.377    20343047.4834
  20705305.860   -19573841.183 9 -15237601.24148  20705305.206    20705314.1404
  23299366.877    -8327441.084 8  -6466750.98846  23299366.265    23299379.1424
  22120631.810   -17505725.423 8 -13622986.87846  22120630.826    22120640.6784
  22102729.115   -17631273.858 8 -13409391.31947  22102729.179    22102739.2874
  21944949.044   -21913161.198 8 -16722786.82547  21944948.339    21944958.6634
  24257259.902    -6509978.844 7  -5047881.84945  24257259.199    24257275.1404
  23240728.410   -14140689.617 8 -10460291.91445  23240728.279    23240740.0884
  22814120.878   -12771697.476 8  -9927004.48646  22814120.024    22814132.8994
 02  1 27  2 11 30.0000000  0  9 06 23 18 10 30 17 05 26 15
  20339309.206   -29646495.823 9 -23061330.20748  20339308.850    20339316.9304
  20699525.754   -19604215.383 9 -15261269.35548  20699525.087    20699534.0014
  23279821.866    -8430149.648 8  -6546783.25446  23279821.306    23279834.0494
  22136412.429   -17422797.797 8 -13558367.93546  22136411.431    22136421.2534
  22119700.818   -17542087.067 8 -13339895.15847  22119700.870    22119710.9594
  21936144.369   -21959429.608 8 -16758840.04047  21936143.674    21936153.9904
  24277424.081    -6404015.933 7  -4965313.42545  24277423.409    24277439.1494
  23224796.555   -14224411.065 8 -10525529.21345  23224796.418    23224808.1934
  22801294.889   -12839097.246 8  -9979523.51346  22801294.023    22801306.8514
 02  1 27  2 12  0.0000000  0  9 06 23 18 10 30 17 05 26 15
  20335650.990   -29665719.588 9 -23076309.69348  20335650.632    20335658.7044
  20693842.243   -19634081.944 9 -15284541.90148  20693841.592    20693850.4804
  23260315.941    -8532652.806 8  -6626655.46946  23260315.319    23260328.0024
  22152256.805   -17339535.188 8 -13493487.96346  22152255.792    22152265.5884
  22136725.499   -17452621.730 8 -13270181.94847  22136725.564    22136735.6684
  21927372.638   -22005525.000 8 -16794758.43147  21927371.946    21927382.2384
  24297583.558    -6298077.612 7  -4882764.17445  24297582.874    24297598.5854
  23208907.064   -14307909.898 8 -10590593.03645  23208906.979    23208918.6434
  22788499.972   -12906333.738 8 -10031915.30946  22788499.131    22788511.9144
 02  1 27  2 12 30.0000000  0  9 06 23 18 10 30 17 05 26 15
  20332065.774   -29684559.727 9 -23090990.25148  20332065.414    20332073.4704
  20688255.805   -19663438.557 9 -15307417.09148  20688255.159    20688264.0304
  23240849.840    -8634946.290 8  -6706364.29546  23240849.265    23240861.8174
  22168164.711   -17255938.510 8 -13428347.67846  22168163.720    22168173.4674
  22153803.024   -17362878.752 8 -13200252.39547  22153803.121    22153813.2514
  21918634.163   -22051445.605 8 -16830540.63947  21918633.456    21918643.7434
  24317738.301    -6192164.411 7  -4800234.48745  24317737.581    24317753.2484
  23193061.053   -14391180.762 8 -10655479.22645  23193060.959    23193072.5164
  22775736.501   -12973405.159 8 -10084178.47846  22775735.647    22775748.3634
 02  1 27  2 13  0.0000000  0  9 06 23 18 10 30 17 05 26 15
  20328553.689   -29703015.600 9 -23105371.38048  20328553.325    20328561.3584
  20682766.281   -19692285.831 9 -15329895.38748  20682765.629    20682774.4664
  23221423.836    -8737029.185 8  -6785909.01846  23221423.304    23221435.7244
  22184135.436   -17172011.523 8 -13362950.01446  22184134.463    22184144.1974
  22170932.652   -17272862.003 8 -13130109.51946  22170932.753    22170942.8934
  21909928.674   -22097192.727 8 -16866187.66247  21909927.983    21909938.2604
  24337887.499    -6086279.724 7  -4717727.03845  24337886.891    24337902.4894
  23177258.831   -14474221.016 8 -10720185.71645  23177258.778    23177270.2844
  22763004.214   -13040312.729 8 -10136313.99246  22763003.351    22763016.0194
 02  1 27  2 13 30.0000000  0  9 06 23 18 10 30 17 05 26 15
  20325115.076   -29721085.437 9 -23119451.70748  20325114.686    20325122.7094
  20677373.816   -19720623.147 9 -15351976.31848  20677373.163    20677381.9754
  23202038.427    -8838898.827 8  -6865287.58746  23202037.834    23202050.1894
  22200168.549   -17087756.652 8 -13297296.86146  22200167.594    22200177.3574
  22188113.870   -17182574.219 8 -13059755.44346  22188113.968    22188124.1094
  21901256.247   -22142766.253 8 -16901699.41647  21901255.557    21901265.7904
  24358030.891    -5980425.649 7  -4635243.42845  24358030.336    24358045.7874
  23161501.285   -14557026.875 8 -10784709.56845  23161501.137    23161512.6534
  22750303.239   -13107055.614 8 -10188321.17046  22750302.404    22750314.9314
 02  1 27  2 14  0.0000000  0  9 06 23 18 10 30 17 05 26 15
  20321749.880   -29738769.323 9 -23133231.29348  20321749.506    20321757.5094
  20672078.064   -19748451.891 9 -15373660.95548  20672077.419    20672086.2174
  23182693.692    -8940554.809 8  -6944499.66146  23182693.076    23182705.3424
  22216263.263   -17003178.192 8 -13231391.55946  22216262.312    22216272.0784
  22205345.878   -17092019.810 8 -12989193.60246  22205345.969    22205356.0974
  21892616.481   -22188168.077 8 -16937077.37647  21892615.788    21892625.9934
  24378167.552    -5874606.162 7  -4552786.80845  24378166.897    24378182.8394
  23145788.646   -14639596.432 8 -10849049.28045  23145788.514    23145800.0514
  22737633.288   -13173635.694 8 -10240201.50546  22737632.455    22737644.8404
 02  1 27  2 14 30.0000000  0  9 06 23 18 10 30 17 05 26 15
  20318458.836   -29756063.578 9 -23146707.27748  20318458.454    20318466.4234
  20666879.601   -19775769.606 9 -15394947.39148  20666878.958    20666887.7344
  23163390.399    -9041992.837 8  -7023541.90146  23163389.800    23163401.9064
  22232419.445   -16918276.832 8 -13165234.66446  22232418.477    22232428.2274
  22222628.388   -17001199.667 8 -12918424.70346  22222628.464    22222638.6234
  21884009.806   -22233396.368 8 -16972320.11947  21884009.106    21884019.2484
  24398297.756    -5768821.746 7  -4470357.49745  24398297.200    24398313.0514
  23130122.042   -14721924.105 8 -10913200.51545  23130122.000    23130133.4464
  22724994.665   -13240050.979 8 -10291953.43146  22724993.845    22725006.1614
 02  1 27  2 15  0.0000000  0  9 06 23 18 10 30 17 05 26 15
  20315242.026   -29772967.752 9 -23159879.29748  20315241.651    20315249.5834
  20661778.202   -19802577.382 9 -15415836.47448  20661777.559    20661786.2984
  23144128.717    -9143211.853 8  -7102413.49046  23144128.124    23144140.1514
  22248636.390   -16833056.327 8 -13098829.06646  22248635.420    22248645.1564
  22239960.713   -16910117.942 8 -12847451.96846  22239960.765    22239970.9144
  21875435.832   -22278452.556 8 -17007428.74647  21875435.122    21875445.2484
  24418420.683    -5663076.068 7  -4387958.38245  24418419.919    24418436.0424
  23114501.995   -14804007.373 8 -10977161.30346  23114501.924    23114513.3614
  22712387.194   -13306302.671 8 -10343577.88446  22712386.332    22712398.5884
 02  1 27  2 15 30.0000000  0  9 06 23 18 10 30 17 05 26 15
  20312099.752   -29789480.376 9 -23172746.20948  20312099.376    20312107.2824
  20656773.832   -19828875.067 9 -15436328.08148  20656773.184    20656781.8864
  23124909.084    -9244210.005 8  -7181112.97046  23124908.520    23124920.4304
  22264913.492   -16747519.581 8 -13032177.05846  22264912.512    22264922.2774
  22257342.289   -16818777.702 8 -12776277.79746  22257342.312    22257352.4234
  21866894.563   -22323336.972 8 -17042403.52347  21866893.845    21866903.9454
  24438535.674    -5557371.668 7  -4305591.42745  24438534.934    24438550.9544
  23098929.054   -14885842.992 8 -11040929.11946  23098928.994    23098940.3734
  22699810.839   -13372390.825 8 -10395074.91246  22699809.969    22699822.1374
 02  1 27  2 16  0.0000000  0  9 06 23 18 10 30 17 05 26 15
  20309032.368   -29805599.178 9 -23185306.25348  20309032.010    20309039.8954
  20651866.767   -19854661.684 9 -15456421.45348  20651866.111    20651874.7764
  23105732.011    -9344984.594 8  -7259638.25146  23105731.436    23105743.2284
  22281250.374   -16661668.728 8 -12965280.28646  22281249.412    22281259.1284
  22274772.555   -16727181.159 8 -12704903.90846  22274772.586    22274782.7034
  21858386.011   -22368049.263 8 -17077244.17047  21858385.305    21858395.3864
  24458642.519    -5451710.360 8  -4223258.05145  24458641.795    24458657.7744
  23083404.073   -14967426.597 8 -11104500.56146  23083404.022    23083415.3434
  22687265.739   -13438314.636 8 -10446443.88946  22687264.874    22687277.0374
 02  1 27  2 16 30.0000000  0  9 06 23 18 10 30 17 05 26 15
  20306040.159   -29821323.177 9 -23197558.65748  20306039.791    20306047.6584
  20647056.861   -19879937.552 9 -15476116.84148  20647056.211    20647064.8494
  23086597.876    -9445533.439 8  -7337987.61946  23086597.292    23086609.0184
  22297646.408   -16575506.886 8 -12898141.18346  22297645.422    22297655.1844
  22292250.978   -16635331.636 8 -12633332.89446  22292251.016    22292261.1734
  21849910.148   -22412590.054 8 -17111951.18047  21849909.443    21849919.5054
  24478740.505    -5346095.105 7  -4140960.57545  24478739.801    24478755.8024
  23067927.621   -15048755.252 8 -11167873.34346  23067927.507    23067938.7814
  22674751.892   -13504074.365 8 -10497685.01946  22674751.027    22674763.1274
 02  1 27  2 17  0.0000000  0  9 06 23 18 10 30 17 05 26 15
  20303123.134   -29836652.086 9 -23209503.20148  20303122.761    20303130.6264
  20642343.886   -19904703.935 9 -15495415.23048  20642343.233    20642351.8444
  23067506.813    -9545856.029 8  -7416160.70246  23067506.228    23067517.8434
  22314100.869   -16489038.070 8 -12830762.88946  22314099.880    22314109.6524
  22309776.694   -16543233.364 8 -12561568.06046  22309776.723    22309786.9044
  21841466.595   -22456960.755 8 -17146525.63747  21841465.898    21841475.9264
  24498829.019    -5240529.433 7  -4058701.72445  24498828.344    24498844.3824
  23052500.029   -15129826.632 8 -11231045.65546  23052499.927    23052511.1814
  22662269.028   -13569671.323 8 -10548799.32046  22662268.149    22662280.2024
 02  1 27  2 17 30.0000000  0  9 06 23 18 10 30 17 05 26 15
  20300281.925   -29851582.405 9 -23221137.15748  20300281.568    20300289.4204
  20637728.304   -19928958.734 9 -15514314.98048  20637727.649    20637736.2234
  23048459.642    -9645948.219 8  -7494154.24646  23048459.054    23048470.5614
  22330613.639   -16402263.079 8 -12763146.01146  22330612.639    22330622.3974
  22327349.574   -16450887.465 8 -12489610.26346  22327349.608    22327359.7744
  21833055.705   -22501159.880 8 -17180966.40047  21833055.011    21833065.0174
  24518908.095    -5135014.003 8  -3976482.02445  24518907.403    24518923.4514
  23037122.489   -15210635.351 8 -11294013.28646  23037122.373    23037133.6234
  22649817.460   -13635103.769 8 -10599785.42546  22649816.619    22649828.6144
 02  1 27  2 18  0.0000000  0 10 06 23 18 10 30 22 17 05 26 15
  20297515.833   -29866117.990 9 -23232463.53048  20297515.483    20297523.3384
  20633209.121   -19952707.049 9 -15532820.06848  20633208.437    20633216.9964
  23029455.642    -9745813.154 8  -7571970.72846  23029455.081    23029466.5434
  22347183.060   -16315190.127 8 -12695296.95446  22347182.078    22347191.8504
  22344967.973   -16358302.190 8 -12417465.94746  22344968.040    22344978.2354
  24289763.626    -4200917.960 8  -3251584.36245  24289762.718    24289778.2524
  21824676.418   -22545192.900 8 -17215277.72647  21824675.722    21824685.7074
  24538976.198    -5029556.449 8  -3894307.42345  24538975.461    24538991.5224
  23021794.603   -15291183.167 8 -11356777.63546  23021794.463    23021805.6264
  22637396.136   -13700377.102 8 -10650647.56246  22637395.328    22637407.3204
 02  1 27  2 18 30.0000000  0 10 06 23 18 10 30 22 17 05 26 15
  20294825.777   -29880254.054 9 -23243478.58548  20294825.425    20294833.2544
  20628786.878   -19975945.582 9 -15550927.92348  20628786.209    20628794.7524
  23010495.998    -9845445.427 8  -7649605.92846  23010495.456    23010506.8174
  22363809.317   -16227818.684 8 -12627215.29946  22363808.318    22363818.0774
  22362632.002   -16265477.170 8 -12345134.80846  22362632.082    22362642.3184
  24277243.694    -4266709.072 8  -3302849.90545  24277242.735    24277258.3514
  21816329.331   -22589056.872 8 -17249457.31947  21816328.630    21816338.5854
  24559033.426    -4924155.757 7  -3812177.13945  24559032.625    24559048.6684
  23006517.725   -15371463.241 8 -11419333.36246  23006517.630    23006528.6404
  22625005.811   -13765487.818 8 -10701382.98846  22625005.015    22625016.9634
 02  1 27  2 19  0.0000000  0 10 06 23 18 10 30 22 17 05 26 15
  20292212.676   -29893985.709 9 -23254178.52348  20292212.324    20292220.1294
  20624462.296   -19998670.983 9 -15568635.94248  20624461.622    20624470.1424
  22991581.693    -9944839.679 8  -7727055.67546  22991581.160    22991592.3984
  22380492.461   -16140148.048 8 -12558900.51646  22380491.478    22380501.2304
  22380341.690   -16172412.261 8 -12272616.74846  22380341.782    22380352.0164
  24264805.861    -4332068.997 8  -3353779.48745  24264804.866    24264820.3354
  21808014.973   -22632748.716 9 -17283502.78247  21808014.276    21808024.1984
  24579079.931    -4818811.238 7  -3730090.62645  24579079.198    24579095.2694
  22991292.971   -15451468.842 8 -11481675.20946  22991292.829    22991303.8224
  22612647.086   -13830432.760 8 -10751989.25946  22612646.281    22612658.1414
 02  1 27  2 19 30.0000000  0 10 06 23 18 10 30 22 17 05 26 15
  20289676.822   -29907311.505 9 -23264562.20848  20289676.469    20289684.2744
  20620235.353   -20020883.302 9 -15585944.15648  20620234.689    20620243.1824
  22972713.083   -10043993.895 8  -7804318.38346  22972712.542    22972723.6034
  22397231.957   -16052181.238 8 -12490354.94046  22397231.010    22397240.7394
  22398096.526   -16079110.157 8 -12199913.85646  22398096.621    22398106.8914
  24252450.444    -4396995.757 8  -3404371.52245  24252449.480    24252464.6584
  21799733.287   -22676268.820 8 -17317414.41647  21799732.579    21799742.4844
  24599115.227    -4713525.429 7  -3648049.88045  24599114.448    24599130.5714
  22976121.214   -15531196.464 8 -11543800.45646  22976121.033    22976132.0024
  22600319.868   -13895211.982 8 -10802466.39346  22600319.075    22600330.8834
 02  1 27  2 20  0.0000000  0 10 06 23 18 10 30 22 17 05 26 15
  20287218.042   -29920232.174 9 -23274630.20548  20287217.682    20287225.4774
  20616105.665   -20042584.605 9 -15602854.17848  20616105.008    20616113.4684
  22953890.112   -10142908.291 8  -7881394.24146  22953889.513    22953900.5044
  22414026.950   -15963922.893 8 -12421582.19646  22414025.993    22414035.7094
  22415895.412   -15985576.205 8 -12127030.29446  22415895.548    22415905.8404
  24240177.498    -4461489.478 8  -3454626.13845  24240176.415    24240191.6164
  21791483.845   -22719619.481 9 -17351194.02447  21791483.160    21791492.9974
  24619138.638    -4608302.592 7  -3566058.18445  24619137.805    24619154.0294
  22961002.631   -15610644.765 8 -11605708.05546  22961002.449    22961013.2654
  22588023.783   -13959827.700 8 -10852816.13646  22588022.948    22588034.7454
 02  1 27  2 20 30.0000000  0 10 06 23 18 10 30 22 17 05 26 15
  20284836.770   -29932745.787 9 -23284381.01948  20284836.400    20284844.1784
  20612073.310   -20063774.532 9 -15619365.72648  20612072.639    20612081.0884
  22935113.216   -10241579.963 8  -7958280.96846  22935112.653    22935123.6214
  22430876.974   -15875375.496 8 -12352584.22046  22430876.018    22430885.7244
  22433738.025   -15891812.962 8 -12053968.07146  22433738.136    22433748.3824
  24227987.421    -4525547.812 8  -3504541.49945  24227986.325    24228001.3524
  21783266.666   -22762800.499 8 -17384841.43347  21783265.979    21783275.7914
  24639149.540    -4503144.832 7  -3484117.18545  24639148.782    24639165.0194
  22945937.875   -15689809.812 8 -11667394.94346  22945937.708    22945948.5024
  22575758.835   -14024279.598 8 -10903038.22346  22575757.988    22575769.7294
 02  1 27  2 21  0.0000000  0 10 06 23 18 10 30 22 17 05 26 15
  20282533.087   -29944851.420 9 -23293813.92748  20282532.725    20282540.4924
  20608138.151   -20084453.562 9 -15635479.17248  20608137.483    20608145.9164
  22916382.750   -10340007.582 8  -8034977.53846  22916382.199    22916393.1004
  22447781.369   -15786542.244 8 -12283363.50446  22447780.415    22447790.0934
  22451623.617   -15797823.736 8 -11980729.74846  22451623.744    22451633.9864
  24215880.429    -4589169.441 8  -3554116.56845  24215879.396    24215894.3284
  21775081.613   -22805812.791 8 -17418357.36347  21775080.896    21775090.6964
  24659147.469    -4398055.179 7  -3402229.28045  24659146.699    24659162.9424
  22930927.546   -15768688.649 8 -11728858.80546  22930927.429    22930938.2114
  22563524.976   -14088568.248 8 -10953133.12346  22563524.138    22563535.7974
 02  1 27  2 21 30.0000000  0 10 06 23 18 10 30 22 17 05 26 15
  20280307.525   -29956546.585 9 -23302926.99948  20280307.156    20280314.9214
  20604300.392   -20104620.778 9 -15651193.80948  20604299.720    20604308.1184
  22897699.369   -10438188.162 8  -8111481.62246  22897698.814    22897709.6834
  22464739.816   -15697424.914 8 -12213921.41846  22464738.855    22464748.5374
  22469551.824   -15703610.618 8 -11907316.97446  22469551.953    22469562.2114
  24203857.213    -4652351.177 8  -3603348.85045  24203856.080    24203871.0884
  21766928.821   -22848655.438 9 -17451741.10947  21766928.119    21766937.8924
  24679132.234    -4293034.868 7  -3320395.40845  24679131.333    24679147.7784
  22915972.574   -15847276.811 8 -11790096.16746  22915972.442    22915983.2524
  22551322.373   -14152692.754 8 -11003100.12046  22551321.535    22551333.1664
 02  1 27  2 22  0.0000000  0  9 06 23 18 10 30 22 17 26 15
  20278160.020   -29967831.632 9 -23311720.48848  20278159.642    20278167.3914
  20600559.646   -20124278.120 9 -15666511.13748  20600558.990    20600567.3734
  22879062.983   -10536121.402 8  -8187792.98646  22879062.475    22879073.3034
  22481751.531   -15608027.994 8 -12144261.47746  22481750.538    22481760.2684
  22487521.773   -15609178.342 8 -11833733.41746  22487521.872    22487532.1314
  24191917.628    -4715093.209 7  -3652238.52945  24191916.555    24191931.2824
  21758807.906   -22891330.574 8 -17484994.33147  21758807.192    21758816.9514
  22901073.209   -15925572.591 8 -11851105.69446  22901073.107    22901083.9044
  22539150.707   -14216654.605 8 -11052940.38346  22539149.872    22539161.4654
 02  1 27  2 22 30.0000000  0  9 06 23 18 10 30 22 17 26 15
  20276091.884   -29978699.448 9 -23320188.87048  20276091.514    20276099.2404
  20596917.031   -20143419.900 9 -15681426.73648  20596916.372    20596924.7244
  22860475.285   -10633799.301 8  -8263905.40946  22860474.743    22860485.5614
  22498816.907   -15518348.423 8 -12074381.27946  22498815.974    22498825.6914
  22505533.895   -15514524.211 8 -11759976.98946  22505534.003    22505544.2744
  24180063.241    -4777387.728 7  -3700779.48545  24180062.143    24180076.7364
  21750719.857   -22933832.937 8 -17518112.92747  21750719.151    21750728.8684
  22886231.343   -16003566.693 8 -11911880.15646  22886231.212    22886241.9504
  22527011.079   -14280448.128 8 -11102649.48646  22527010.246    22527021.7644
 02  1 27  2 23  0.0000000  0  9 06 23 18 10 30 22 17 26 15
  20274102.113   -29989155.659 9 -23328336.52648  20274101.751    20274109.4594
  20593371.149   -20162053.299 9 -15695946.19348  20593370.496    20593378.8144
  22841935.232   -10731227.028 8  -8339822.91246  22841934.659    22841945.3694
  22515934.214   -15428396.192 8 -12004288.64346  22515933.304    22515943.0004
  22523586.359   -15419658.235 8 -11686055.48846  22523586.446    22523596.7064
  24168292.860    -4839239.995 7  -3748975.83645  24168291.750    24168306.4084
  21742663.380   -22976169.470 8 -17551102.30947  21742662.668    21742672.3614
  22871446.146   -16081262.836 8 -11972422.43946  22871445.968    22871456.7344
  22514902.140   -14344080.516 8 -11152233.03346  22514901.298    22514912.7864
 02  1 27  2 23 30.0000000  0  9 06 23 18 10 30 22 17 26 15
  20272191.064   -29999198.084 9 -23336161.74248  20272190.694    20272198.3694
  20589922.097   -20180177.863 9 -15710069.14848  20589921.444    20589929.7504
  22823443.330   -10828401.661 8  -8415543.19346  22823442.750    22823453.3854
  22533103.117   -15338173.164 8 -11933984.98446  22533102.218    22533111.8924
  22541678.661   -15324582.739 8 -11611970.71246  22541678.761    22541689.0154
  24156607.178    -4900647.478 7  -3796825.56845  24156606.080    24156620.7384
  21734638.517   -23018339.960 9 -17583962.30247  21734637.804    21734647.4934
  22856718.394   -16158656.828 8 -12032729.26546  22856718.224    22856728.9754
  22502823.981   -14407550.983 8 -11201690.40546  22502823.120    22502834.5614
 02  1 27  2 24  0.0000000  0  9 06 23 18 10 30 22 17 26 15
  20270358.980   -30008825.622 9 -23343663.68548  20270358.613    20270366.2684
  20586569.846   -20197793.752 9 -15723795.74348  20586569.185    20586577.4704
  22804999.891   -10925321.655 8  -8491065.07546  22804999.318    22805009.8344
  22550322.957   -15247682.321 8 -11863472.64446  22550322.067    22550331.6904
  22559810.232   -15229300.865 8 -11537725.14746  22559810.328    22559820.5934
  24145006.585    -4961608.353 7  -3844327.32545  24145005.551    24145020.1214
  21726645.154   -23060344.782 9 -17616693.21847  21726644.447    21726654.1084
  22842048.827   -16235745.346 8 -12092798.07346  22842048.659    22842059.3384
  22490776.622   -14470859.762 8 -11251021.80346  22490775.770    22490787.1714
 02  1 27  2 24 30.0000000  0  9 06 23 18 10 30 22 17 26 15
  20268606.529   -30018034.707 9 -23350839.55148  20268606.156    20268613.8094
  20583314.758   -20214899.126 9 -15737124.53348  20583314.108    20583322.3764
  22786605.804   -11021982.668 8  -8566385.15946  22786605.232    22786615.6414
  22567593.655   -15156924.208 8 -11792752.03046  22567592.750    22567602.4034
  22577980.862   -15133813.488 8 -11463319.43746  22577980.969    22577991.2604
  24133491.557    -5022118.971 7  -3891478.19545  24133490.423    24133505.1974
  21718683.665   -23102182.177 9 -17649293.67047  21718682.969    21718692.5814
  22827438.436   -16312522.775 8 -12152624.46646  22827438.283    22827448.8634
  22478760.356   -14534004.940 8 -11300225.71546  22478759.489    22478770.8994
 02  1 27  2 25  0.0000000  0  9 06 23 18 10 30 22 17 26 15
  20266933.628   -30026825.620 9 -23357689.57048  20266933.264    20266940.9144
  20580156.445   -20231495.799 9 -15750056.92848  20580155.795    20580164.0484
  22768260.980   -11118384.424 8  -8641503.21946  22768260.422    22768270.7744
  22584914.385   -15065903.307 8 -11721826.65246  22584913.480    22584923.0874
  22596189.742   -15038125.245 8 -11388757.21246  22596189.873    22596200.1834
  24122062.291    -5082178.890 7  -3938277.86845  24122061.096    24122075.9684
  21710753.690   -23143854.009 9 -17681765.10247  21710752.989    21710762.5534
  22812887.589   -16388987.515 8 -12212207.20446  22812887.417    22812897.9244
  22466774.904   -14596988.367 8 -11349303.58246  22466774.077    22466785.4354
 02  1 27  2 25 30.0000000  0  9 06 23 18 10 30 22 17 26 15
  20265340.718   -30035196.071 9 -23364211.95548  20265340.357    20265348.0084
  20577095.073   -20247583.061 9 -15762592.38048  20577094.424    20577102.6524
  22749966.109   -11214523.985 8  -8716416.98046  22749965.557    22749975.7804
  22602284.768   -14974621.451 8 -11650697.94446  22602283.825    22602293.4494
  22614436.464   -14942238.282 8 -11314040.13546  22614436.581    22614446.8674
  24110719.276    -5141785.486 7  -3984724.30545  24110718.158    24110732.9504
  21702855.368   -23185359.510 9 -17714106.92947  21702854.686    21702864.1944
  22798397.108   -16465135.052 8 -12271542.76746  22798396.908    22798407.3304
  22454820.449   -14659808.917 8 -11398254.54646  22454819.622    22454830.9344
 02  1 27  2 26  0.0000000  0  9 06 23 18 10 30 22 17 26 15
  20263827.956   -30043145.538 9 -23370406.30548  20263827.594    20263835.2564
  20574130.486   -20263161.889 9 -15774731.64948  20574129.836    20574138.0374
  22731721.365   -11310400.157 8  -8791125.50546  22731720.807    22731730.8754
  22619704.104   -14883082.153 8 -11579368.62146  22619703.185    22619712.8204
  22632720.293   -14846156.276 8 -11239171.08246  22632720.404    22632730.6824
  24099462.701    -5200937.773 7  -4030816.72845  24099461.580    24099476.5604
  21694988.479   -23226699.890 9 -17746320.10047  21694987.783    21694997.2744
  22783967.417   -16540962.705 8 -12330629.08146  22783967.228    22783977.5894
  22442896.843   -14722467.288 8 -11447079.13246  22442896.027    22442907.2814
 02  1 27  2 26 30.0000000  0  9 06 23 18 10 30 22 17 26 15
  20262395.942   -30050670.582 9 -23376269.93448  20262395.585    20262403.2414
  20571262.975   -20278230.484 9 -15786473.33448  20571262.322    20571270.5114
  22713527.543   -11406008.682 8  -8865625.47546  22713526.983    22713537.0144
  22637172.385   -14791285.912 8 -11507839.09446  22637171.423    22637181.0774
  22651041.065   -14749880.088 8 -11164150.71446  22651041.160    22651051.4644
  24088293.309    -5259631.878 7  -4076552.15545  24088292.323    24088307.3434
  21687153.397   -23267873.147 9 -17778403.04947  21687152.687    21687162.1334
  22769599.634   -16616464.896 8 -12389461.77146  22769599.525    22769609.8004
  22431004.576   -14784961.405 8 -11495775.73446  22431003.749    22431014.9354
 02  1 27  2 27  0.0000000  0  9 06 23 18 10 30 22 17 26 15
  20261044.290   -30057773.369 9 -23381804.53448  20261043.931    20261051.5934
  20568491.832   -20292792.618 9 -15797820.37648  20568491.180    20568499.3624
  22695384.340   -11501351.056 8  -8939918.04446  22695383.763    22695393.8114
  22654688.336   -14699238.879 8 -11436114.14746  22654687.396    22654697.0564
  22669397.537   -14653416.198 8 -11088984.09046  22669397.632    22669407.9324
  24077210.971    -5317869.424 7  -4121931.82045  24077210.045    24077224.8614
  21679349.426   -23308882.894 9 -17810358.58947  21679348.709    21679358.1084
  22755293.792   -16691641.663 8 -12448040.88446  22755293.738    22755303.9884
  22419142.898   -14847294.663 8 -11544346.99746  22419142.071    22419153.1934
 02  1 27  2 27 30.0000000  0  9 06 23 18 10 30 22 17 26 15
  20259773.947   -30064449.016 9 -23387006.29148  20259773.581    20259781.2324
  20565817.662   -20306845.148 9 -15808770.32048  20565816.991    20565825.1644
  22677292.781   -11596421.984 8  -9013999.08446  22677292.198    22677302.2664
  22672252.108   -14606940.504 8 -11364193.33946  22672251.207    22672260.8114
  22687789.851   -14556764.097 8 -11013670.80946  22687789.940    22687800.2854
  24066216.387    -5375645.304 7  -4166951.74945  24066215.446    24066230.1804
  21671577.100   -23349726.165 8 -17842184.39647  21671576.370    21671585.7754
  22741051.266   -16766486.237 8 -12506361.14446  22741051.178    22741061.3224
  22407312.421   -14909463.891 8 -11592790.43646  22407311.541    22407322.7024
 02  1 27  2 28  0.0000000  0  9 06 23 18 10 30 22 17 26 15
  20258584.891   -30070697.339 9 -23391875.07448  20258584.534    20258592.1754
  20563240.186   -20320389.481 9 -15819324.27448  20563239.536    20563247.6734
  22659253.004   -11691220.559 8  -9087867.90846  22659252.437    22659262.5274
  22689863.083   -14514394.396 8 -11292079.49546  22689862.175    22689871.7664
  22706217.169   -14459927.885 8 -10938214.07346  22706217.273    22706227.6454
  24055309.770    -5432958.931 7  -4211611.47845  24055308.896    24055323.6034
  21663836.248   -23390404.122 9 -17873881.39647  21663835.529    21663844.9134
  22726872.389   -16840996.162 8 -12564420.64546  22726872.244    22726882.3654
  22395512.968   -14971470.102 8 -11641106.85146  22395512.110    22395523.1754
 02  1 27  2 28 30.0000000  0  9 06 23 18 10 30 22 17 26 15
  20257476.949   -30076519.435 9 -23396411.73148  20257476.591    20257484.2104
  20560758.907   -20333428.405 9 -15829484.39948  20560758.263    20560766.3924
  22641265.023   -11785747.255 8  -9161524.86246  22641264.449    22641274.5244
  22707520.187   -14421605.877 8 -11219776.75246  22707519.271    22707528.8614
  22724678.511   -14362913.041 8 -10862618.13546  22724678.592    22724689.0244
  24044491.134    -5489810.969 8  -4255911.53545  24044490.216    24044504.7924
  21656126.303   -23430919.676 9 -17905451.85647  21656125.577    21656134.9134
  22712757.338   -16915170.613 8 -12622218.73946  22712757.216    22712767.2734
  22383743.988   -15033315.909 8 -11689298.27346  22383743.128    22383754.1664
 02  1 27  2 29  0.0000000  0  9 06 23 18 10 30 22 17 26 15
  20256450.819   -30081911.684 9 -23400613.44248  20256450.471    20256458.0514
  20558374.211   -20345959.931 9 -15839249.15148  20558373.544    20558381.6664
  22623329.626   -11879997.749 8  -9234966.59246  22623329.006    22623339.0334
  22725223.369   -14328575.042 8 -11147285.19646  22725222.456    22725232.1114
  22743173.701   -14265720.185 8 -10786883.48946  22743173.778    22743184.2244
  24033761.017    -5546197.393 8  -4299848.77345  24033760.015    24033774.5814
  21648447.715   -23471270.483 9 -17936893.93747  21648447.002    21648456.3024
  22698707.191   -16989003.806 8 -12679750.92746  22698707.102    22698717.1194
  22372006.003   -15094999.069 8 -11737362.95546  22372005.113    22372016.1554
 02  1 27  2 29 30.0000000  0  9 06 23 18 10 30 22 17 26 15
  20255506.792   -30086872.457 9 -23404478.93548  20255506.435    20255514.0154
  20556085.997   -20357984.192 9 -15848618.63348  20556085.328    20556093.4324
  22605447.234   -11973969.746 8  -9308191.31146  22605446.605    22605456.5364
  22742972.157   -14235304.465 8 -11074606.82746  22742971.248    22742980.9174
  22761702.264   -14168351.943 8 -10711012.17446  22761702.331    22761712.8004
  24023119.780    -5602116.334 8  -4343421.75145  24023118.841    24023133.3364
  21640800.520   -23511456.486 9 -17968207.60947  21640799.796    21640809.0774
  22684722.730   -17062491.984 8 -12737014.26146  22684722.633    22684732.6384
  22360299.097   -15156518.979 8 -11785300.43846  22360298.208    22360309.2174
 02  1 27  2 30  0.0000000  0  9 06 23 18 10 30 22 17 26 15
  20254644.719   -30091402.637 9 -23408008.90348  20254644.352    20254651.9134
  20553893.917   -20369503.443 9 -15857594.60448  20553893.256    20553901.3304
  22587617.771   -12067663.331 8  -9381199.08646  22587617.148    22587627.0754
  22760765.695   -14141798.895 8 -11001745.35446  22760764.761    22760774.4264
  22780263.277   -14070813.353 8 -10635008.12046  22780263.362    22780273.8694
  24012567.564    -5657567.931 8  -4386630.54945  24012566.596    24012581.0014
  21633184.186   -23551479.997 9 -17999394.66347  21633183.479    21633192.7354
  22670804.152   -17135633.696 8 -12794007.63846  22670804.059    22670814.0434
  22348622.755   -15217877.930 8 -11833112.48246  22348621.871    22348632.8464
 02  1 27  2 30 30.0000000  0  9 06 23 18 10 30 22 17 26 15
  20253865.286   -30095498.364 9 -23411200.33948  20253864.921    20253872.4614
  20551798.284   -20380515.661 9 -15866175.48548  20551797.627    20551805.6814
  22569842.132   -12161073.970 8  -9453986.37046  22569841.504    22569851.4184
  22778603.901   -14048058.593 8 -10928700.97446  22778602.951    22778612.6094
  22798856.558   -13973104.939 8 -10558871.73546  22798856.660    22798867.2064
  24002105.061    -5712548.201 8  -4429472.08045  24002103.999    24002118.2574
  21625599.229   -23591338.739 9 -18030453.32647  21625598.520    21625607.7604
  22656952.665   -17208423.185 8 -12850726.55446  22656952.588    22656962.5534
  22336977.527   -15279073.322 8 -11880797.08046  22336976.693    22336987.6154
 02  1 27  2 31  0.0000000  0  9 06 23 18 10 30 22 17 26 15
  20253168.305   -30099160.908 9 -23414054.22648  20253167.944    20253175.4654
  20549798.587   -20391023.738 9 -15874363.53348  20549797.931    20549805.9724
  22552120.297   -12254202.156 8  -9526553.56746  22552119.683    22552129.5154
  22796485.843   -13954088.373 8 -10855477.43146  22796484.882    22796494.6004
  22817481.251   -13875232.026 8 -10482607.17246  22817481.366    22817491.9294
  23991732.008    -5767057.995 8  -4471947.02345  23991731.021    23991745.1924
  21618045.092   -23631035.577 9 -18061385.83947  21618044.379    21618053.6244
  22643168.428   -17280859.472 8 -12907170.25146  22643168.301    22643178.2174
  22325363.025   -15340107.645 8 -11928356.15746  22325362.183    22325373.0784
 02  1 27  2 31 30.0000000  0  9 06 23 18 10 30 22 17 26 15
  20252554.336   -30102387.093 9 -23416568.09348  20252553.969    20252561.4824
  20547895.196   -20401025.972 9 -15882157.41948  20547894.539    20547902.5584
  22534452.952   -12347044.062 8  -9598897.68446  22534452.324    22534462.0484
  22814411.357   -13859889.021 8 -10782075.34546  22814410.402    22814420.1564
  22836136.993   -13777195.613 8 -10406215.20846  22836137.111    22836147.6734
  23981449.172    -5821093.582 8  -4514052.43445  23981448.189    23981462.3174
  21610522.148   -23670568.409 9 -18092190.54947  21610521.457    21610530.6844
  22629452.293   -17352937.207 8 -12963334.55946  22629452.176    22629462.0784
  22313779.464   -15400979.068 8 -11975788.30046  22313778.623    22313789.5084
 02  1 27  2 32  0.0000000  0  9 06 23 18 10 30 22 17 26 15
  20252023.499   -30105176.413 9 -23418741.54248  20252023.136    20252030.6504
  20546087.764   -20410523.784 9 -15889558.24748  20546087.090    20546095.1044
  22516840.202   -12439598.721 8  -9671017.97046  22516839.577    22516849.2384
  22832379.831   -13765464.194 8 -10708497.55946  22832378.863    22832388.5944
  22854823.141   -13678999.468 8 -10329698.79446  22854823.255    22854833.8024
  23971256.731    -5874654.354 8  -4555787.86645  23971255.705    23971269.7974
  21603030.228   -23709938.473 9 -18122868.42647  21603029.524    21603038.7204
  22615804.975   -17424653.690 8 -13019217.38046  22615804.844    22615814.7934
  22302226.830   -15461688.268 8 -12023094.03246  22302225.980    22302236.7844
 02  1 27  2 32 30.0000000  0  9 06 23 18 10 30 22 17 26 15
  20251575.870   -30107528.541 9 -23420574.32748  20251575.506    20251583.0184
  20544376.116   -20419518.455 9 -15896567.02348  20544375.445    20544383.4254
  22499282.314   -12531864.966 8  -9742913.53546  22499281.732    22499291.2904
  22850390.557   -13670817.197 8 -10634746.66546  22850389.635    22850399.2764
  22873538.949   -13580647.533 8 -10253060.96946  22873539.058    22873549.6474
  23961154.874    -5927739.375 8  -4597152.58945  23961153.759    23961167.7924
  21595569.068   -23749146.685 9 -18153420.18947  21595568.369    21595577.5324
  22602226.831   -17496006.540 8 -13074816.84746  22602226.734    22602236.6194
  22290704.884   -15522236.106 8 -12070274.03046  22290704.037    22290714.7684
 02  1 27  2 33  0.0000000  0  9 06 23 18 10 30 22 17 26 15
  20251211.753   -30109441.850 9 -23422065.16648  20251211.398    20251218.8924
  20542760.168   -20428010.059 9 -15903183.79548  20542759.494    20542767.4484
  22481779.807   -12623840.338 8  -9814582.44146  22481779.249    22481788.7454
  22868443.103   -13575950.412 8 -10560824.49746  22868442.197    22868451.7884
  22892283.910   -13482142.234 8 -10176303.64846  22892284.031    22892294.5964
  23951143.855    -5980346.792 8  -4638145.16345  23951142.669    23951156.6924
  21588138.708   -23788192.979 9 -18183845.78247  21588138.003    21588147.1634
  22588718.603   -17566991.916 8 -13130129.97446  22588718.506    22588728.3304
  22279213.610   -15582622.346 8 -12117328.09746  22279212.782    22279223.5294
 02  1 27  2 33 30.0000000  0  9 06 23 18 10 30 22 17 26 15
  20250931.364   -30110915.163 9 -23423213.15048  20250931.012    20250938.4884
  20541239.801   -20435999.262 9 -15909409.08748  20541239.146    20541247.0874
  22464332.975   -12715523.220 8  -9886023.43046  22464332.397    22464341.8634
  22886537.048   -13480866.239 8 -10486732.94546  22886536.120    22886545.7494
  22911057.465   -13383486.583 8 -10099429.16246  22911057.575    22911068.2024
  23941224.009    -6032475.009 8  -4678764.33845  23941222.827    23941236.7924
  21580739.166   -23827077.446 9 -18214145.27347  21580738.476    21580747.6074
  22575281.021   -17637606.422 8 -13185154.11446  22575280.908    22575290.7454
  22267753.141   -15642846.940 8 -12164256.20446  22267752.316    22267763.0594
 02  1 27  2 34  0.0000000  0  9 06 23 18 10 30 22 17 26 15
  20250735.174   -30111945.920 9 -23424016.28948  20250734.828    20250742.2904
  20539815.193   -20443485.403 9 -15915242.38048  20539814.542    20539822.4614
  22446942.422   -12806910.351 8  -9957233.97846  22446941.846    22446951.2444
  22904672.025   -13385566.368 8 -10412473.32546  22904671.056    22904680.7004
  22929859.320   -13284682.250 8 -10022438.83346  22929859.459    22929870.1084
  23931395.785    -6084121.306 8  -4719008.00045  23931394.690    23931408.5214
  21573370.639   -23865799.108 9 -18244317.91147  21573369.947    21573379.0424
  22561914.798   -17707845.721 8 -13239885.89346  22561914.712    22561924.4814
  22256323.708   -15702908.658 8 -12211057.39446  22256322.859    22256333.5604
 02  1 27  2 34 30.0000000  0  9 06 23 18 10 30 22 17 26 15
  20250622.962   -30112535.411 9 -23424475.58448  20250622.616    20250630.0544
  20538485.754   -20450471.364 9 -15920685.92748  20538485.103    20538493.0094
  22429608.018   -12898002.159 8 -10028214.42046  22429607.456    22429616.7994
  22922847.143   -13290055.573 8 -10338049.34146  22922846.174    22922855.8494
  22948688.499   -13185734.651 8  -9945336.87746  22948688.643    22948699.2544
  23921659.219    -6135286.538 7  -4758876.80845  23921658.131    23921671.9864
  21566032.568   -23904360.604 9 -18274365.74447  21566031.877    21566040.9374
  22548620.146   -17777708.690 8 -13294324.42546  22548620.045    22548629.7944
  22244924.755   -15762809.947 8 -12257733.58046  22244923.880    22244934.5544
 02  1 27  2 35  0.0000000  0  9 06 23 18 10 30 22 17 26 15
  20250595.288   -30112680.734 9 -23424588.78048  20250594.935    20250602.3724
  20537251.720   -20456955.978 9 -15925738.81248  20537251.067    20537258.9404
  22412330.510   -12988795.170 8 -10098962.03546  22412329.957    22412339.2644
  22941062.204   -13194335.134 8 -10263462.00546  22941061.194    22941070.8554
  22967544.699   -13086645.104 8  -9868124.29546  22967544.839    22967555.4214
  23912014.718    -6185967.527 8  -4798368.28945  23912013.658    23912027.4044
  21558725.255   -23942760.384 9 -18304287.55747  21558724.566    21558733.5714
  22535398.068   -17847190.216 8 -13348465.72946  22535398.029    22535407.7714
  22233556.614   -15822549.148 8 -12304283.46246  22233555.790    22233566.4454
 02  1 27  2 35 30.0000000  0  9 06 23 18 10 30 22 17 26 15
  20250652.121   -30112381.854 9 -23424355.84048  20250651.776    20250659.1974
  20536112.768   -20462940.948 9 -15930402.35948  20536112.115    20536119.9804
  22395109.986   -13079288.701 8 -10169476.29246  22395109.429    22395118.7094
  22959316.487   -13098408.445 8 -10188713.96546  22959315.447    22959325.0964
  22986427.169   -12987417.381 8  -9790804.04546  22986427.337    22986437.8604
  23902462.545    -6236163.846 7  -4837482.13045  23902461.480    23902474.9904
  21551448.428   -23980999.852 9 -18334084.45047  21551447.743    21551456.7434
  22522249.105   -17916288.196 8 -13402308.15646  22522249.072    22522258.6894
  22222219.148   -15882127.406 8 -12350707.92446  22222218.299    22222228.9134
 02  1 27  2 36  0.0000000  0  9 06 23 18 10 30 22 17 26 15
  20250793.905   -30111636.570 9 -23423775.05548  20250793.547    20250800.9704
  20535069.042   -20468425.710 9 -15934676.13648  20535068.378    20535076.2224
  22377947.109   -13169479.630 8 -10239754.76946  22377946.550    22377955.7874
  22977609.630   -13002277.240 8 -10113806.53746  22977608.583    22977618.2254
  23005335.547   -12888053.451 8  -9713377.66346  23005335.727    23005346.2494
  23893003.013    -6285872.991 7  -4876216.34345  23893002.049    23893015.3874
  21544202.362   -24019077.854 9 -18363755.52547  21544201.680    21544210.6344
  22509174.015   -17984998.052 8 -13455848.15846  22509173.943    22509183.4944
  22210912.574   -15941543.504 8 -12397006.03346  22210911.676    22210922.2494
 02  1 27  2 36 30.0000000  0  9 06 23 18 10 30 22 17 26 15
  20251020.467   -30110445.708 9 -23422847.07048  20251020.121    20251027.5324
  20534119.933   -20473412.900 9 -15938562.19348  20534119.275    20534127.0954
  22360841.808   -13259367.950 8 -10309797.45146  22360841.252    22360850.4574
  22995940.802   -12905946.124 8 -10038743.35646  22995939.812    22995949.4524
  23024268.875   -12788558.341 8  -9635849.06746  23024268.990    23024279.5964
  23883636.056    -6335095.520 7  -4914571.39345  23883635.214    23883648.3664
  21536986.613   -24056996.777 9 -18393302.65247  21536985.915    21536994.8324
  22496172.898   -18053318.733 8 -13509084.90246  22496172.854    22496182.3374
  22199636.483   -16000799.402 8 -12443179.31846  22199635.572    22199646.0994
 02  1 27  2 37  0.0000000  0  9 06 23 18 10 30 22 17 26 15
  20251332.487   -30108805.916 9 -23421569.26348  20251332.135    20251339.5254
  20533265.871   -20477900.889 9 -15942059.26048  20533265.216    20533273.0194
  22343794.834   -13348949.655 8 -10379601.22046  22343794.293    22343803.4434
  23014310.047   -12809415.415 8  -9963524.63946  23014309.045    23014318.6824
  23043227.045   -12688932.645 8  -9558218.71346  23043227.206    23043237.7884
  23874362.390    -6383827.513 7  -4952544.20745  23874361.584    23874374.8764
  21529801.513   -24094754.369 9 -18422724.06547  21529800.799    21529809.7014
  22483246.910   -18121244.512 8 -13562013.93446  22483246.893    22483256.3754
  22188391.250   -16059892.911 8 -12489226.06246  22188390.347    22188400.8194
 02  1 27  2 37 30.0000000  0  9 06 23 18 10 30 22 17 26 15
  20251730.156   -30106715.915 9 -23419940.64748  20251729.809    20251737.1904
  20532506.663   -20481890.227 9 -15945167.76848  20532506.002    20532513.7884
  22326806.612   -13438222.830 8 -10449164.59146  22326806.014    22326815.1204
  23032716.809   -12712687.355 8  -9888152.14046  23032715.763    23032725.4214
  23062209.552   -12589179.099 8  -9480488.72946  23062209.665    23062220.2714
  23865182.353    -6432067.698 7  -4990133.80645  23865181.650    23865194.7864
  21522647.124   -24132350.646 9 -18452019.77847  21522646.432    21522655.2824
  22470396.717   -18188771.935 8 -13614632.57146  22470396.708    22470406.1914
  22177176.898   -16118823.823 8 -12535146.10346  22177176.021    22177186.4334
 02  1 27  2 38  0.0000000  0  9 06 23 18 10 30 22 17 26 15
  20252212.991   -30104178.563 9 -23417963.44648  20252212.625    20252219.9924
  20531841.442   -20485385.806 9 -15947891.52448  20531840.772    20531848.5674
  22309876.600   -13527189.761 8 -10518489.33046  22309876.025    22309885.0904
  23051159.815   -12615768.766 8  -9812631.18146  23051158.785    23051168.4674
  23081215.072   -12489304.658 8  -9402664.53746  23081215.197    23081225.7664
  23856095.485    -6479818.505 7  -5027342.04645  23856094.600    23856107.9884
  21515522.596   -24169789.938 9 -18481193.15947  21515521.884    21515530.7274
  22457622.232   -18255901.859 8 -13666941.44846  22457622.182    22457631.6134
  22165992.723   -16177596.289 8 -12580942.68146  22165991.863    22166002.2564
 02  1 27  2 38 30.0000000  0  9 06 23 18 10 30 22 17 26 15
  20252782.154   -30101187.479 9 -23415632.68648  20252781.791    20252789.1464
  20531271.065   -20488382.819 9 -15950226.79248  20531270.407    20531278.1814
  22293006.291   -13615843.076 8 -10587569.69146  22293005.743    22293014.7574
  23069639.597   -12518656.784 8  -9736959.52546  23069638.582    23069648.3084
  23100244.004   -12389307.065 8  -9324744.38946  23100244.134    23100254.6744
  23847103.085    -6527073.316 7  -5064163.82145  23847102.295    23847115.4954
  21508428.919   -24207067.023 9 -18510240.15547  21508428.225    21508437.0384
  22444925.095   -18322625.556 8 -13718933.79646  22444925.022    22444934.3724
  22154839.786   -16236204.822 8 -12626611.50946  22154838.924    22154849.2834
 02  1 27  2 39  0.0000000  0  9 06 23 18 10 30 22 17 26 15
  20253436.859   -30097746.624 9 -23412951.45548  20253436.498    20253443.8494
  20530794.499   -20490886.964 9 -15952178.00448  20530793.847    20530801.5834
  22276195.053   -13704186.214 8 -10656408.37046  22276194.482    22276203.4854
  23088154.681   -12421359.181 8  -9661143.23946  23088153.674    23088163.4524
  23119294.889   -12289194.022 8  -9246734.26646  23119295.025    23119305.6564
  23838204.482    -6573835.780 7  -5100601.94745  23838203.555    23838216.6514
  21501365.147   -24244187.143 9 -18539164.84547  21501364.445    21501373.2244
  22432304.913   -18388944.830 8 -13770611.01446  22432304.778    22432314.0964
  22143717.136   -16294654.407 8 -12672156.48046  22143716.275    22143726.5894
 02  1 27  2 39 30.0000000  0  9 06 23 18 10 30 22 17 26 15
  20254177.981   -30093852.021 9 -23409916.65748  20254177.615    20254184.9514
  20530412.143   -20492896.001 9 -15953743.41748  20530411.482    20530419.1984
  22259443.756   -13792214.297 8 -10725001.54146  22259443.188    22259452.1184
  23106705.146   -12323875.441 8  -9585181.90646  23106704.192    23106713.9934
  23138367.761   -12188965.701 8  -9168634.33046  23138367.841    23138378.5144
  23829400.295    -6620101.588 7  -5136653.06445  23829399.350    23829412.4294
  21494331.737   -24281147.580 9 -18567965.10347  21494331.034    21494339.8044
  22419762.758   -18454853.546 8 -13821968.30746  22419762.632    22419771.9634
  22132625.195   -16352942.435 8 -12717575.56446  22132624.323    22132634.5714
 02  1 27  2 40  0.0000000  0  9 06 23 18 10 30 22 17 26 15
  20255005.542   -30089503.073 9 -23406527.82748  20255005.172    20255012.4894
  20530123.766   -20494411.159 9 -15954923.99248  20530123.112    20530130.8064
  22242752.714   -13879925.838 8 -10793348.06046  22242752.123    22242761.0104
  23125290.578   -12226208.211 8  -9509077.59646  23125289.655    23125299.4274
  23157461.931   -12088625.446 8  -9090447.18146  23157462.032    23157472.7384
  23820690.694    -6665869.862 7  -5172316.48945  23820689.750    23820702.9254
  21487328.653   -24317948.777 9 -18596641.28547  21487327.943    21487336.7244
  22407299.268   -18520348.988 8 -13873003.57746  22407299.180    22407308.4594
  22121563.911   -16411069.234 8 -12762869.01546  22121563.061    22121573.2714
 02  1 27  2 40 30.0000000  0  9 06 23 18 10 30 22 17 26 15
  20255919.606   -30084699.302 9 -23402784.58548  20255919.239    20255926.5484
  20529929.104   -20495433.841 9 -15955720.81448  20529928.436    20529936.1204
  22226122.070   -13967319.855 8 -10861447.14546  22226121.467    22226130.3544
  23143910.257   -12128360.951 8  -9432832.99946  23143909.335    23143919.1244
  23176576.756   -11988176.687 8  -9012175.47446  23176576.830    23176587.5384
  23812076.048    -6711139.840 7  -5207591.64045  23812075.084    23812088.2744
  21480355.685   -24354591.514 9 -18625193.99247  21480354.990    21480363.7514
  22394915.017   -18585428.288 8 -13923714.57846  22394914.913    22394924.1114
  22110533.190   -16469035.362 8 -12808037.25846  22110532.327    22110542.5784
 02  1 27  2 41  0.0000000  0  9 06 23 18 10 30 22 17 26 15
  20256920.949   -30079437.073 9 -23398684.11248  20256920.586    20256927.8784
  20529828.544   -20495962.179 9 -15956132.44048  20529827.866    20529835.5294
  22209552.750   -14054391.792 8 -10929295.26146  22209552.157    22209560.9934
  23162564.197   -12030333.576 8  -9356448.05646  23162563.301    23162573.1604
  23195712.121   -11887619.705 8  -8933819.44846  23195712.202    23195722.9514
  23803556.905    -6755907.594 7  -5242475.45945  23803555.881    23803569.0654
  21473413.403   -24391073.297 9 -18653621.28347  21473412.686    21473421.4174
  22382611.022   -18650085.767 8 -13974096.89746  22382610.911    22382620.0654
  22099533.569   -16526838.041 8 -12853078.13647  22099532.702    22099542.9514
 02  1 27  2 41 30.0000000  0  9 06 23 18 10 30 22 17 26 15
  20258008.460   -30073722.049 9 -23394230.81048  20258008.113    20258015.3774
  20529820.636   -20496003.365 9 -15956164.46248  20529819.951    20529827.6034
  22193043.882   -14141146.274 8 -10996896.00747  22193043.266    22193052.0374
  23181250.754   -11932135.219 8  -9279929.88446  23181249.854    23181259.7094
  23214866.363   -11786963.794 8  -8855386.35246  23214866.442    23214877.1734
  23795132.362    -6800178.427 7  -5276972.05645  23795131.363    23795144.4754
  21466500.443   -24427400.755 9 -18681928.31547  21466499.712    21466508.4394
  22370386.713   -18714324.459 8 -14024152.87746  22370386.594    22370395.7024
  22088563.805   -16584483.821 8 -12897996.75047  22088562.946    22088573.1474
 02  1 27  2 42  0.0000000  0  9 06 23 18 10 30 22 17 26 15
  20259182.958   -30067549.811 9 -23389421.23548  20259182.600    20259189.8554
  20529905.946   -20495554.872 9 -15955814.91948  20529905.272    20529912.8934
  22176596.269   -14227578.448 8 -11064245.59647  22176595.672    22176604.3904
  23199970.056   -11833764.968 8  -9203277.75846  23199969.115    23199978.9584
  23234039.524   -11686208.595 8  -8776875.87746  23234039.559    23234050.3484
  23786803.289    -6843947.709 7  -5311077.84345  23786802.290    23786815.3284
  21459617.469   -24463570.696 9 -18710112.60647  21459616.747    21459625.4544
  22358243.232   -18778138.075 8 -14073877.63646  22358243.150    22358252.1864
  22077624.563   -16641969.348 8 -12942790.48747  22077623.689    22077633.8724
 02  1 27  2 42 30.0000000  0  9 06 23 18 10 30 22 17 26 15
  20260445.121   -30060916.897 9 -23384252.68948  20260444.766    20260452.0064
  20530084.686   -20494615.229 9 -15955082.65848  20530084.009    20530091.6084
  22160210.854   -14313683.830 8 -11131340.54047  22160210.246    22160218.9474
  23218722.061   -11735222.844 8  -9126491.71046  23218721.104    23218730.8844
  23253231.459   -11585354.705 8  -8698288.49946  23253231.502    23253242.3204
  23778570.347    -6887211.789 7  -5344789.94745  23778569.339    23778582.3744
  21452764.900   -24499580.817 9 -18738172.35647  21452764.170    21452772.8734
  22346181.769   -18841521.006 8 -14123266.78746  22346181.670    22346190.6454
  22066716.248   -16699292.087 8 -12987457.37547  22066715.371    22066725.5494
 02  1 27  2 43  0.0000000  0  9 06 23 18 10 30 22 17 26 15
  20261794.468   -30053825.871 9 -23378727.17748  20261794.112    20261801.3394
  20530356.099   -20493188.738 9 -15953971.04048  20530355.421    20530363.0154
  22143887.263   -14399464.404 8 -11198182.38547  22143886.637    22143895.3174
  23237505.573   -11636514.744 8  -9049576.33746  23237504.581    23237514.3944
  23272440.940   -11484408.235 8  -8619628.98446  23272441.034    23272451.9044
  23770433.043    -6929972.892 8  -5378110.13245  23770432.033    23770445.1084
  21445942.071   -24535434.685 9 -18766110.36447  21445941.344    21445950.0324
  22334202.191   -18904473.385 8 -14172320.45446  22334202.104    22334211.0424
  22055838.260   -16756455.604 8 -13032000.18547  22055837.382    22055847.5694
 02  1 27  2 43 30.0000000  0  9 06 23 18 10 30 22 17 26 15
  20263231.717   -30046272.987 9 -23372841.77348  20263231.377    20263238.5884
  20530720.492   -20491273.495 9 -15952478.57948  20530719.819    20530727.4004
  22127626.203   -14484915.862 8 -11264767.77547  22127625.584    22127634.2734
  23256320.715   -11537640.579 8  -8972531.55246  23256319.765    23256329.5944
  23291668.078   -11383369.558 8  -8540897.62946  23291668.153    23291678.9884
  23762392.129    -6972227.195 8  -5411035.40045  23762391.159    23762404.2324
  21439149.423   -24571129.845 9 -18793924.70347  21439148.726    21439157.3864
  22322305.646   -18966989.523 8 -14221034.19046  22322305.530    22322314.4504
  22044991.057   -16813457.181 8 -13076416.81047  22044990.211    22045000.3274
 02  1 27  2 44  0.0000000  0  9 06 23 18 10 30 22 17 26 15
  20264756.638   -30038259.422 9 -23366597.39648  20264756.291    20264763.4874
  20531177.360   -20488872.330 9 -15950607.47648  20531176.682    20531184.2484
  22111427.748   -14570038.367 8 -11331096.83147  22111427.148    22111435.8504
  23275166.539   -11438605.115 8  -8895361.07446  23275165.608    23275175.4584
  23310911.765   -11282243.603 8  -8462098.25346  23310911.881    23310922.6954
  23754447.602    -7013975.563 8  -5443566.44045  23754446.569    23754459.6774
  21432386.629   -24606668.396 9 -18821617.00147  21432385.908    21432394.5394
  22310492.351   -19029068.254 8 -14269407.08746  22310492.218    22310501.1624
  22034174.313   -16870298.962 8 -13120708.92147  22034173.430    22034183.5054
 02  1 27  2 44 30.0000000  0  9 06 23 18 10 30 22 17 26 15
  20266369.679   -30029782.622 9 -23359992.06048  20266369.324    20266376.5034
  20531726.824   -20485984.782 9 -15948357.37448  20531726.142    20531733.6914
  22095292.579   -14654828.682 8 -11397167.04347  22095291.978    22095300.6684
  23294042.939   -11339408.996 8  -8818065.42946  23294042.000    23294051.8634
  23330171.789   -11181031.764 8  -8383231.96146  23330171.898    23330182.7324
  23746599.923    -7055215.450 8  -5475701.26445  23746598.872    23746611.7794
  21425653.851   -24642049.076 9 -18849186.28647  21425653.129    21425661.7534
  22298763.113   -19090705.029 8 -14317435.61046  22298763.038    22298771.9364
  22023388.210   -16926979.260 8 -13164875.19047  22023387.357    22023397.4114
 02  1 27  2 45  0.0000000  0  9 06 23 18 10 30 22 17 26 15
  20268070.813   -30020843.015 9 -23353026.09748  20268070.447    20268077.6214
  20532368.363   -20482613.090 9 -15945730.01948  20532367.688    20532375.2264
  22079220.717   -14739286.208 8 -11462977.94147  22079220.134    22079228.7614
  23312949.196   -11240056.253 8  -8740647.71746  23312948.252    23312958.1124
  23349447.352   -11079737.966 8  -8304301.81946  23349447.464    23349458.3684
  23738848.932    -7095946.708 8  -5507439.73945  23738847.908    23738860.7224
  21418950.887   -24677273.030 9 -18876633.43547  21418950.169    21418958.7854
  22287118.419   -19151897.854 8 -14365118.19446  22287118.349    22287127.1824
  22012632.672   -16983499.250 8 -13208916.55947  22012631.823    22012641.8414
 02  1 27  2 45 30.0000000  0  9 06 23 18 10 30 22 17 26 15
  20269860.007   -30011440.562 9 -23345699.47548  20269859.648    20269866.8074
  20533101.774   -20478758.764 9 -15942726.58648  20533101.100    20533108.6284
  22063212.345   -14823410.149 8 -11528528.91047  22063211.777    22063220.3404
  23331884.691   -11140549.754 8  -8663110.21046  23331883.733    23331893.6044
  23368737.818   -10978365.901 8  -8225310.68446  23368737.939    23368748.8724
  23731194.780    -7136169.219 8  -5538781.78745  23731193.807    23731206.4864
  21412277.614   -24712341.165 9 -18903959.17047  21412276.879    21412285.4764
  22275558.648   -19212644.337 8 -14412452.97946  22275558.552    22275567.3724
  22001907.474   -17039859.699 8 -13252833.61247  22001906.617    22001916.6254
 02  1 27  2 46  0.0000000  0  9 06 23 18 10 30 22 17 26 15
  20271737.859   -30001572.317 9 -23338009.89848  20271737.488    20271744.6414
  20533927.192   -20474420.946 9 -15939346.40848  20533926.509    20533934.0154
  22047268.073   -14907197.141 8 -11593817.32247  22047267.495    22047276.0244
  23350849.298   -11040890.269 8  -8585453.47045  23350848.304    23350858.1504
  23388043.069   -10876916.425 8  -8146259.23746  23388043.135    23388054.1274
  23723638.002    -7175879.685 8  -5569724.83846  23723637.058    23723649.6494
  21405634.305   -24747251.626 9 -18931162.04047  21405633.568    21405642.1584
  22264084.738   -19272939.525 8 -14459436.10546  22264084.665    22264093.4574
  21991213.021   -17096058.744 8 -13296624.89747  21991212.171    21991222.1564
 02  1 27  2 46 30.0000000  0  9 06 23 18 10 30 22 17 26 15
  20273704.232   -29991238.799 9 -23329957.76748  20273703.867    20273711.0134
  20534844.209   -20469601.775 9 -15935591.15048  20534843.534    20534851.0134
  22031388.074   -14990646.529 8 -11658842.67047  22031387.498    22031395.9924
  23369842.210   -10941081.550 8  -8507680.45545  23369841.176    23369851.0834
  23407362.189   -10775393.793 8  -8067150.77646  23407362.310    23407373.3154
  23716178.594    -7215078.414 8  -5600269.13146  23716177.692    23716190.2114
  21399020.727   -24782005.834 9 -18958243.15547  21399019.997    21399028.5734
  22252697.077   -19332781.536 8 -14506066.11246  22252697.009    22252705.7734
  21980549.102   -17152097.501 8 -13340291.28347  21980548.243    21980558.1664
 02  1 27  2 47  0.0000000  0  9 06 23 18 10 30 22 17 26 15
  20275759.054   -29980440.398 9 -23321543.39148  20275758.704    20275765.8354
  20535852.393   -20464303.653 9 -15931462.68548  20535851.716    20535859.1624
  22015572.331   -15073758.047 8 -11723604.74447  22015571.787    22015580.2044
  23388862.846   -10841127.271 8  -8429794.03845  23388861.908    23388871.8254
  23426694.552   -10673802.081 8  -7987988.47945  23426694.637    23426705.6014
  23708816.472    -7253765.776 8  -5630414.95346  23708815.519    23708828.1484
  21392436.589   -24816605.343 9 -18985203.72347  21392435.845    21392444.4064
  22241395.983   -19392168.720 8 -14552341.70646  22241395.902    22241404.6844
  21969915.393   -17207977.299 8 -13383833.80947  21969914.555    21969924.4134
 02  1 27  2 47 30.0000000  0  9 06 23 18 10 30 22 17 26 15
  20277902.955   -29969174.062 9 -23312764.38848  20277902.620    20277909.7374
  20536951.897   -20458525.391 9 -15926960.08048  20536951.225    20536958.6744
  21999821.726   -15156527.545 8 -11788100.31147  21999821.171    21999829.5404
  23407911.173   -10741027.829 8  -8351794.48445  23407910.261    23407920.1784
  23446039.819   -10572142.037 8  -7908772.94745  23446039.924    23446050.9294
  23701552.332    -7291938.539 8  -5660159.78346  23701551.368    23701563.9944
  21385882.332   -24851047.883 9 -19012041.96347  21385881.592    21385890.1324
  22230182.406   -19451095.845 8 -14598258.81246  22230182.325    22230191.0984
  21959312.395   -17263695.878 8 -13427250.71447  21959311.525    21959321.3134
 02  1 27  2 48  0.0000000  0  9 06 23 18 10 30 22 17 26 15
  20280135.744   -29957440.470 9 -23303621.29648  20280135.384    20280142.4994
  20538142.297   -20452269.427 9 -15922085.25048  20538141.631    20538149.0554
  21984136.130   -15238955.226 8 -11852329.53647  21984135.550    21984143.9154
  23426986.404   -10640786.987 8  -8273684.74345  23426985.525    23426995.4124
  23465397.341   -10470418.019 8  -7829507.55845  23465397.393    23465408.4224
  23694386.031    -7329597.048 8  -5689503.89946  23694385.069    23694397.6444
  21379357.634   -24885335.152 9 -19038759.21247  21379356.889    21379365.4084
  22219056.719   -19509561.363 8 -14643816.22946  22219056.617    22219065.3404
  21948739.693   -17319254.914 8 -13470543.31847  21948738.835    21948748.6114
 02  1 27  2 48 30.0000000  0  9 06 23 18 10 30 22 17 26 15
  20282457.974   -29945236.980 9 -23294112.04348  20282457.617    20282464.7174
  20539423.730   -20445535.126 9 -15916837.68448  20539423.063    20539430.4914
  21968516.291   -15321037.523 8 -11916289.63547  21968515.703    21968524.0224
  23446088.357   -10540405.626 8  -8195465.52345  23446087.481    23446097.3574
  23484766.969   -10368630.834 8  -7750192.94245  23484767.024    23484777.9624
  23687318.177    -7366738.526 8  -5718445.12846  23687317.222    23687329.6234
  21372862.779   -24919465.341 9 -19065354.06847  21372862.056    21372870.5504
  22208019.770   -19567560.496 8 -14689010.23546  22208019.648    22208028.3374
  21938197.767   -17374652.466 8 -13513710.08747  21938196.913    21938206.6384
 02  1 27  2 49  0.0000000  0  9 06 23 18 10 30 22 17 26 15
  20284869.310   -29932565.106 9 -23284237.81948  20284868.948    20284876.0424
  20540795.658   -20438325.466 9 -15911219.70748  20540794.994    20540802.3984
  21952962.055   -15402774.884 8 -11979980.95147  21952961.481    21952969.7984
  23465216.173   -10439888.205 8  -8117140.27645  23465215.329    23465225.1824
  23504147.531   -10266785.632 8  -7670833.10645  23504147.557    23504158.4914
  23680348.347    -7403364.198 8  -5746984.43545  23680347.417    23680359.7634
  21366397.441   -24953440.643 9 -19091828.22347  21366396.702    21366405.1664
  22197071.711   -19625092.082 8 -14733839.91046  22197071.618    22197080.2974
  21927686.204   -17429890.516 8 -13556752.57547  21927685.350    21927695.0134
 02  1 27  2 49 30.0000000  0  9 06 23 18 10 30 22 17 26 15
  20287369.784   -29919424.881 9 -23273998.64248  20287369.426    20287376.5214
  20542257.649   -20430642.486 9 -15905232.91148  20542256.972    20542264.3654
  21937473.609   -15484166.678 8 -12043402.99947  21937473.044    21937481.3054
  23484369.346   -10339237.801 8  -8038711.40745  23484368.480    23484378.3184
  23523538.451   -10164886.113 8  -7591430.96345  23523538.513    23523549.4004
  23673476.706    -7439474.016 8  -5775121.76345  23673475.725    23673488.1224
  21359961.361   -24987262.138 9 -19118182.53047  21359960.617    21359969.0624
  22186213.026   -19682154.339 8 -14778303.88546  22186212.955    22186221.5904
  21917204.858   -17484969.908 8 -13599671.44547  21917203.986    21917213.6104
 02  1 27  2 50  0.0000000  0  9 06 23 18 10 30 22 17 26 15
  20289960.028   -29905812.880 9 -23263391.85748  20289959.673    20289966.7494
  20543809.973   -20422484.564 9 -15898876.03448  20543809.307    20543816.7024
  21922051.745   -15565208.639 8 -12106552.45247  21922051.180    21922059.3684
  23503547.821   -10238454.193 8  -7960178.75345  23503546.943    23503556.8334
  23542939.694   -10062932.452 8  -7511986.63445  23542939.752    23542950.6544
  23666703.921    -7475064.342 8  -5802854.30645  23666702.952    23666715.2624
  21353555.049   -25020927.041 9 -19144414.81647  21353554.312    21353562.7454
  22175444.733   -19738741.537 8 -14822397.67546  22175444.670    22175453.2544
  21906754.204   -17539887.843 8 -13642464.51247  21906753.310    21906762.9424
 02  1 27  2 50 30.0000000  0  9 06 23 18 10 30 22 17 26 15
  20292640.100   -29891728.778 9 -23252417.20148  20292639.738    20292646.8064
  20545452.420   -20413853.076 9 -15892150.14548  20545451.760    20545459.1564
  21906696.697   -15645899.570 8 -12169428.37947  21906696.110    21906704.2504
  23522751.201   -10137540.208 8  -7881544.49045  23522750.269    23522760.1404
  23562350.643    -9960927.841 8  -7432502.60545  23562350.644    23562361.5564
  23660030.172    -7510134.673 8  -5830181.65845  23660029.163    23660041.3834
  21347178.447   -25054436.001 9 -19170525.59447  21347177.716    21347186.1074
  22164767.386   -19794851.007 8 -14866119.21946  22164767.312    22164775.8524
  21896334.182   -17594644.795 8 -13685132.14747  21896333.304    21896342.8844
 02  1 27  2 51  0.0000000  0  9 06 23 18 10 30 22 17 26 15
  20295409.677   -29877174.455 9 -23241076.13748  20295409.321    20295416.3754
  20547184.284   -20404751.915 9 -15885058.27548  20547183.621    20547191.0194
  21891408.229   -15726240.581 8 -12232031.64047  21891407.644    21891415.7334
  23541978.426   -10036500.868 8  -7802812.55145  23541977.468    23541987.3184
  23581770.212    -9858877.651 8  -7352983.07445  23581770.170    23581781.2314
  23653454.962    -7544686.800 7  -5857105.21245  23653453.955    23653466.2064
  21340830.955   -25087791.763 9 -19196516.99547  21340830.231    21340838.6074
  22154180.860   -19850482.655 8 -14909468.43346  22154180.830    22154189.3454
  21885944.241   -17649243.696 8 -13727676.64547  21885943.377    21885952.8964
 02  1 27  2 51 30.0000000  0  9 06 23 18 10 30 22 17 26 15
  20298269.418   -29862146.181 9 -23229365.76648  20298269.071    20298276.1334
  20549005.849   -20395179.135 9 -15877598.91648  20549005.200    20549012.5894
  21876187.254   -15806226.966 9 -12294358.57747  21876186.671    21876194.7124
  23561229.655    -9935335.348 8  -7723982.28745  23561228.721    23561238.4364
  23601198.431    -9756781.874 8  -7273428.01645  23601198.420    23601209.5244
  23646979.116    -7578716.854 7  -5883621.96145  23646978.138    23646990.3454
  21334513.247   -25120991.139 9 -19222386.52147  21334512.544    21334520.9054
  22143686.524   -19905630.328 8 -14952440.53146  22143686.475    22143694.9804
  21875584.997   -17703681.198 8 -13770095.38547  21875584.149    21875593.6174
 02  1 27  2 52  0.0000000  0  9 06 23 18 10 30 22 17 26 15
  20301219.090   -29846645.434 9 -23217287.22948  20301218.739    20301225.8054
  20550916.546   -20385138.052 9 -15869774.64648  20550915.897    20550923.2874
  21861033.590   -15885859.535 8 -12356409.80747  21861033.002    21861041.0004
  23580503.937    -9834048.485 8  -7645057.48345  23580502.927    23580512.6414
  23620634.411    -9654645.362 8  -7193841.21145  23620634.445    23620645.5684
  23640602.335    -7612226.083 7  -5909732.87845  23640601.393    23640613.5954
  21328224.819   -25154036.554 9 -19248136.08447  21328224.108    21328232.4304
  22133284.411   -19960293.495 8 -14995035.09146  22133284.336    22133292.8024
  21865256.152   -17757959.321 8 -13812389.93947  21865255.289    21865264.7084
 02  1 27  2 52 30.0000000  0 10 06 21 23 18 10 30 22 17 26 15
  20304257.857   -29830676.408 9 -23204843.79748  20304257.515    20304264.5594
  24860153.397    -4842437.716 7  -3731422.59545  24860152.585    24860170.0434
  20552915.280   -20374634.545 9 -15861590.04048  20552914.623    20552921.9904
  21845946.624   -15965141.371 8 -12418187.74147  21845946.057    21845954.0254
  23599799.975    -9732647.317 8  -7566043.58945  23599798.959    23599808.6194
  23640076.729    -9552475.649 8  -7114228.53845  23640076.716    23640087.9094
  23634323.871    -7645218.579 7  -5935441.15145  23634322.859    23634335.1304
  21321964.792   -25186932.782 9 -19273769.40347  21321964.092    21321972.3884
  22122974.122   -20014473.903 8 -15037253.46846  22122974.024    22122982.4544
  21854956.710   -17812082.920 8 -13854564.09247  21854955.839    21854965.2074
 02  1 27  2 53  0.0000000  0 10 06 21 23 18 10 30 22 17 26 15
  20307386.903   -29814233.159 9 -23192030.84648  20307386.549    20307393.5954
  24842435.597    -4935543.128 8  -3803971.70745  24842434.791    24842452.1544
  20555002.734   -20363664.694 9 -15853042.05148  20555002.058    20555009.4184
  21830927.716   -16044065.771 8 -12479687.15347  21830927.154    21830935.1064
  23619118.271    -9631128.945 8  -7486938.37445  23619117.265    23619126.8924
  23659525.852    -9450270.303 8  -7034588.10545  23659525.841    23659537.0764
  23628144.989    -7677688.213 7  -5960742.01345  23628144.006    23628156.1414
  21315734.160   -25219674.491 9 -19299282.31347  21315733.455    21315741.7164
  22112757.251   -20068163.393 8 -15079089.31646  22112757.187    22112765.5494
  21844687.707   -17866046.415 8 -13896613.49047  21844686.848    21844696.1734
 02  1 27  2 53 30.0000000  0 10 06 21 23 18 10 30 22 17 26 15
  20310606.456   -29797314.106 9 -23178847.14148  20310606.100    20310613.1354
  24824744.926    -5028506.330 7  -3876410.01645  24824744.108    24824761.3674
  20557178.858   -20352228.774 9 -15844130.89848  20557178.202    20557185.5524
  21815977.307   -16122630.181 9 -12540906.06047  21815976.754    21815984.6944
  23638458.603    -9529494.906 8  -7407743.01345  23638457.576    23638467.2114
  23678981.343    -9348031.041 7  -6954921.25745  23678981.342    23678992.7034
  23622065.929    -7709633.361 7  -5985634.17945  23622064.965    23622077.0374
  21309533.088   -25252260.994 9 -19324674.28047  21309532.378    21309540.6134
  22102634.552   -20121358.341 8 -15120539.81246  22102634.455    22102642.7854
  21834449.364   -17919848.894 8 -13938537.43547  21834448.516    21834457.8114
 02  1 27  2 54  0.0000000  0 10 06 21 23 18 10 30 22 17 26 15
  20313917.010   -29779916.828 9 -23165290.79048  20313916.668    20313923.6824
  24807081.711    -5121324.627 8  -3948735.42745  24807081.056    24807097.9924
  20559443.875   -20340325.960 9 -15834855.92748  20559443.214    20559450.5474
  21801096.087   -16200831.294 9 -12601841.87247  21801095.516    21801103.4184
  23657820.854    -9427745.703 8  -7328457.93345  23657819.792    23657829.4414
  23698442.956    -9245759.105 8  -6875228.93845  23698443.029    23698454.4994
  23616087.098    -7741051.308 7  -6010115.57145  23616086.214    23616098.2504
  21303361.874   -25284690.425 9 -19349943.86147  21303361.160    21303369.3664
  22092606.809   -20174053.891 8 -15161601.16546  22092606.737    22092615.0334
  21824242.001   -17973488.446 8 -13980334.42447  21824241.162    21824250.4314
 02  1 27  2 54 30.0000000  0 10 06 21 23 18 10 30 22 17 26 15
  20317318.359   -29762042.514 9 -23151362.72548  20317318.013    20317325.0214
  24789446.076    -5213997.998 8  -4020947.92445  24789445.325    24789462.1334
  20561797.104   -20327959.433 9 -15825219.62348  20561796.435    20561803.7824
  21786283.895   -16278669.569 9 -12662494.95547  21786283.310    21786291.1764
  23677204.152    -9325885.401 8  -7249086.28345  23677203.094    23677212.9264
  23717910.114    -9143458.892 8  -6795514.59445  23717910.162    23717921.6364
  23610208.396    -7771943.230 7  -6034187.05345  23610207.484    23610219.6314
  21297220.207   -25316964.773 9 -19375092.60047  21297219.502    21297227.6614
  22082674.317   -20226249.161 8 -15202272.68846  22082674.233    22082682.5144
  21814065.326   -18026966.933 8 -14022005.90847  21814064.488    21814073.7264
 02  1 27  2 55  0.0000000  0 10 06 21 23 18 10 30 22 17 26 15
  20320810.401   -29743691.622 9 -23137063.30148  20320810.056    20320817.0584
  24771838.206    -5306525.912 7  -4093047.09545  24771837.464    24771854.0644
  20564238.133   -20315131.484 9 -15815223.76848  20564237.475    20564244.8104
  21771540.753   -16356144.892 9 -12722865.22147  21771540.157    21771547.9934
  23696607.926    -9223917.650 8  -7169630.90945  23696606.950    23696616.8014
  23737381.889    -9041134.444 8  -6715781.37245  23737381.902    23737393.4384
  23604429.597    -7802309.575 7  -6057849.02745  23604428.754    23604440.7564
  21291107.857   -25349085.036 9 -19400121.27547  21291107.143    21291115.2484
  22072837.306   -20277942.632 8 -15242553.20446  22072837.193    22072845.4484
  21803919.106   -18080285.685 8 -14063552.91347  21803918.252    21803927.4324
 02  1 27  2 55 30.0000000  0 10 06 21 23 18 10 30 22 17 26 15
  20324393.325   -29724863.072 9 -23122391.67748  20324392.986    20324399.9864
  24754258.492    -5398906.439 7  -4165031.41345  24754257.686    24754273.9974
  20566766.847   -20301842.802 9 -15804868.90548  20566766.184    20566773.5034
  21756867.103   -16433254.893 9 -12782950.82147  21756866.515    21756874.2974
  23716031.897    -9121843.700 7  -7090092.77445  23716030.974    23716040.8344
  23756857.821    -8938787.978 8  -6636030.98845  23756857.879    23756869.3274
  23598751.293    -7832149.134 7  -6081100.51445  23598750.405    23598762.3414
  21285024.890   -25381050.804 9 -19425029.56247  21285024.175    21285032.2634
  22063096.464   -20329130.679 8 -15282439.87346  22063096.356    22063104.5744
  21793803.402   -18133443.869 8 -14104974.79647  21793802.505    21793811.6844
 02  1 27  2 56  0.0000000  0 10 06 21 23 18 10 30 22 17 26 15
  20328067.082   -29705557.279 9 -23107348.17748  20328066.742    20328073.7184
  24736706.622    -5491139.668 7  -4236900.95245  24736705.726    24736722.1114
  20569382.768   -20288095.848 9 -15794156.94548  20569382.103    20569389.4094
  21742263.021   -16509999.455 9 -12842751.66347  21742262.435    21742270.1824
  23735475.491    -9019667.229 8  -7010474.75545  23735474.473    23735484.4184
  23776337.203    -8836423.402 8  -6556266.49645  23776337.274    23776348.8024
  23593173.076    -7861462.217 7  -6103941.78745  23593172.147    23593184.0274
  21278971.119   -25412863.201 9 -19449818.34547  21278970.406    21278978.4614
  22053452.084   -20379811.953 8 -15321931.66946  22053451.983    22053460.1714
  21783717.985   -18186442.551 8 -14146272.39047  21783717.107    21783726.3134
 02  1 27  2 56 30.0000000  0 10 06 21 23 18 10 30 22 17 26 15
  20331831.726   -29685773.775 9 -23091932.42948  20331831.376    20331838.3604
  24719183.338    -5583223.412 7  -4308654.00145  24719182.537    24719198.5044
  20572085.689   -20273891.738 9 -15783088.75548  20572085.032    20572092.3244
  21727728.773   -16586376.831 9 -12902266.38347  21727728.177    21727735.9114
  23754938.116    -8917390.565 7  -6930778.67345  23754937.139    23754947.1144
  23795819.606    -8734043.132 8  -6476489.76545  23795819.687    23795831.1804
  23587695.246    -7890248.145 7  -6126372.29445  23587694.229    23587706.0674
  21272946.609   -25444522.019 9 -19474487.46047  21272945.886    21272953.8904
  22043904.702   -20429983.359 8 -15361026.15846  22043904.603    22043912.7734
  21773663.059   -18239281.208 8 -14187445.28347  21773662.227    21773671.3814
 02  1 27  2 57  0.0000000  0 10 06 21 23 18 10 30 22 17 26 15
  20335687.493   -29665511.603 9 -23076143.70148  20335687.147    20335694.1124
  24701688.728    -5675155.923 7  -4380289.21345  24701687.938    24701703.5444
  20574875.437   -20259231.289 9 -15771664.98148  20574874.771    20574882.0494
  21713264.801   -16662384.982 9 -12961493.40147  21713264.230    21713271.9424
  23774419.420    -8815015.264 8  -6851005.72445  23774418.483    23774428.4634
  23815304.548    -8631649.564 8  -6396702.69145  23815304.617    23815316.1224
  23582317.961    -7918505.904 7  -6148391.25845  23582316.962    23582328.6844
  21266951.326   -25476026.885 9 -19499036.61947  21266950.617    21266958.6064
  22034454.952   -20479641.742 8 -15399720.90146  22034454.864    22034463.0014
  21763638.671   -18291959.386 8 -14228493.11547  21763637.797    21763646.9624
 02  1 27  2 57 30.0000000  0 10 06 21 23 18 10 30 22 17 26 15
  20339634.448   -29644769.983 9 -23059981.37248  20339634.104    20339641.0714
  24684223.277    -5766935.137 7  -4451804.96145  24684222.259    24684238.1804
  20577751.845   -20244115.442 9 -15759886.35048  20577751.189    20577758.4354
  21698871.412   -16738022.317 9 -13020431.46847  21698870.835    21698878.5274
  23793919.253    -8712543.224 8  -6771157.41245  23793918.313    23793928.2844
  23834791.558    -8529245.141 8  -6316907.13945  23834791.687    23834803.0364
  23577041.327    -7946234.377 7  -6169997.77645  23577040.315    23577051.9064
  21260985.396   -25507377.519 9 -19523465.59747  21260984.697    21260992.6684
  22025103.379   -20528784.122 8 -15438013.55846  22025103.328    22025111.4134
  21753644.904   -18344476.887 8 -14269415.73947  21753644.026    21753653.1684
 02  1 27  2 58  0.0000000  0 10 06 21 23 18 10 30 22 17 26 15
  20343672.239   -29623551.019 9 -23043447.08748  20343671.899    20343678.8764
  24666786.769    -5858562.202 7  -4523202.15145  24666785.820    24666801.6274
  20580714.162   -20228548.138 9 -15747755.93548  20580713.499    20580720.7274
  21684548.328   -16813290.110 9 -13079081.58447  21684547.740    21684555.4274
  23813436.505    -8609979.556 8  -6691237.67645  23813435.532    23813445.5364
  23854279.638    -8426835.198 8  -6237107.29645  23854279.765    23854291.1324
  23571864.985    -7973435.749 7  -6191193.57745  23571864.018    23571875.4874
  21255048.372   -25538576.446 9 -19547776.36547  21255047.667    21255055.6154
  22015850.015   -20577410.394 8 -15475904.05946  22015849.984    22015858.0084
  21743681.180   -18396836.229 8 -14310215.10547  21743680.313    21743689.4084
 02  1 27  2 58 30.0000000  0 10 06 21 23 18 10 30 22 17 26 15
  20347801.816   -29601850.001 9 -23026537.17948  20347801.470    20347808.4224
  24649380.227    -5950031.853 7  -4594476.66545  24649379.351    24649394.9004
  20583762.947   -20212526.617 9 -15735271.58448  20583762.288    20583769.5034
  21670296.604   -16888183.032 9 -13137439.58947  21670296.017    21670303.6814
  23832971.565    -8507322.486 8  -6611245.15645  23832970.568    23832980.5494
  23873769.074    -8324418.298 8  -6157302.03545  23873769.213    23873780.5174
  23566789.853    -8000105.382 7  -6211975.02645  23566788.952    23566800.3684
  21249140.987   -25569619.609 9 -19571965.75847  21249140.297    21249148.2134
  22006696.181   -20625513.800 8 -15513387.12946  22006696.101    22006704.1114
  21733748.306   -18449033.344 8 -14350888.05647  21733747.440    21733756.4984
 02  1 27  2 59  0.0000000  0 10 06 21 23 18 10 30 22 17 26 15
  20352022.223   -29579671.457 9 -23009255.17448  20352021.868    20352028.8264
  24632002.992    -6041347.446 7  -4665631.13345  24632002.200    24632017.6074
  20586896.891   -20196057.317 9 -15722438.31648  20586896.228    20586903.4524
  21656115.579   -16962704.383 9 -13195508.06447  21656114.994    21656122.6104
  23852522.980    -8404579.149 8  -6531185.42345  23852521.993    23852531.8894
  23893258.249    -8222002.371 8  -6077497.52545  23893258.381    23893269.7884
  23561815.224    -8026247.555 8  -6232345.47145  23561814.286    23561825.6654
  21243262.295   -25600512.008 9 -19596037.67747  21243261.596    21243269.5034
  21997641.378   -20673096.718 8 -15550464.62946  21997641.300    21997649.2854
  21723845.462   -18501072.913 8 -14391438.23947  21723844.576    21723853.5944
 02  1 27  2 59 30.0000000  0 10 06 21 23 18 10 30 22 17 26 15
  20356334.360   -29557010.944 9 -22991597.60448  20356334.003    20356340.9694
  24614656.114    -6132504.044 7  -4736661.72145  24614655.499    24614670.6914
  20590116.577   -20179137.462 9 -15709253.96148  20590115.919    20590123.1244
  21642006.322   -17036848.693 9 -13253282.73347  21642005.731    21642013.2874
  23872091.207    -8301747.812 8  -6451057.12045  23872090.205    23872100.0824
  23912747.510    -8119585.977 8  -5997692.65645  23912747.579    23912759.1394
  23556941.681    -8051857.846 8  -6252301.46045  23556940.769    23556952.1834
  21237413.063   -25631249.549 9 -19619988.93547  21237412.355    21237420.2474
  21988686.871   -20720152.486 8 -15587131.35946  21988686.799    21988694.7424
  21713973.370   -18552950.741 8 -14431862.37447  21713972.480    21713981.4674
 02  1 27  3  0  0.0000000  0 10 06 21 23 18 10 30 22 17 26 15
  20360737.780   -29533870.720 9 -22973566.23648  20360737.425    20360744.3844
  24597339.328    -6223502.572 7  -4807569.12945  24597338.568    24597353.7024
  20593421.264   -20161771.059 9 -15695721.65448  20593420.592    20593427.7914
  21627968.469   -17110617.490 9 -13310764.79547  21627967.880    21627975.4264
  23891675.213    -8198833.312 8  -6370864.00345  23891674.158    23891684.0834
  23932235.927    -8017174.446 8  -5917891.57845  23932235.997    23932247.4584
  23552168.943    -8076938.486 8  -6271844.74945  23552168.093    23552179.3764
  21231592.806   -25661834.974 9 -19643821.66247  21231592.105    21231599.9634
  21979832.678   -20766681.161 8 -15623387.37446  21979832.609    21979840.5174
  21704131.492   -18604669.552 8 -14472162.59147  21704130.583    21704139.5924
 02  1 27  3  0 30.0000000  0 10 06 21 23 18 10 30 22 17 26 15
  20365232.980   -29510248.161 9 -22955159.02148  20365232.623    20365239.5794
  24580053.096    -6314339.687 7  -4878350.77745  24580052.425    24580067.5574
  20596811.109   -20143957.229 9 -15681840.69548  20596810.445    20596817.6254
  21614002.737   -17184007.400 9 -13367951.62547  21614002.158    21614009.6824
  23911275.059    -8095835.453 7  -6290605.94645  23911274.070    23911283.8864
  23951723.361    -7914768.259 8  -5838094.67045  23951723.426    23951734.7964
  23547497.534    -8101486.636 8  -6290973.09945  23547496.677    23547507.9384
  21225801.950   -25692265.927 9 -19667534.02147  21225801.244    21225809.0724
  21971079.691   -20812677.898 8 -15659228.88746  21971079.648    21971087.5344
  21694320.353   -18656226.837 8 -14512336.93947  21694319.446    21694328.4344
 02  1 27  3  1  0.0000000  0 10 06 21 23 18 10 30 22 17 26 15
  20369819.350   -29486146.582 9 -22936378.54548  20369818.988    20369825.9304
  24562797.263    -6405017.282 7  -4949008.12945  24562796.571    24562811.5954
  20600285.077   -20125701.168 9 -15667615.14248  20600284.400    20600291.5744
  21600108.717   -17257020.565 9 -13424844.87747  21600108.126    21600115.6174
  23930889.611    -7992760.276 7  -6210287.62845  23930888.630    23930898.4224
  23971208.448    -7812373.878 8  -5758306.96745  23971208.527    23971219.8454
  23542926.797    -8125505.777 8  -6309689.22745  23542925.902    23542937.1764
  21220039.758   -25722546.038 9 -19691128.83947  21220039.053    21220046.8744
  21962427.704   -20858143.813 8 -15694656.77346  21962427.668    21962435.5434
  21684539.249   -18707626.323 8 -14552388.32347  21684538.347    21684547.3194
 02  1 27  3  1 30.0000000  0 10 06 21 23 18 10 30 22 17 26 15
  20374497.850   -29461560.698 9 -22917220.69048  20374497.499    20374504.4264
  24545572.946    -6495529.421 7  -5019536.55245  24545572.305    24545587.1274
  20603843.887   -20106999.275 9 -15653042.18848  20603843.226    20603850.3924
  21586287.594   -17329650.810 9 -13481439.75647  21586286.995    21586294.4404
  23950519.417    -7889605.067 8  -6129906.96345  23950518.312    23950528.2544
  23990691.696    -7709988.879 7  -5678526.58945  23990691.820    23990703.2164
  23538457.726    -8148990.257 8  -6327988.72745  23538456.885    23538468.2374
  21214307.222   -25752670.398 9 -19714602.30447  21214306.521    21214314.3394
  21953878.193   -20903071.384 8 -15729665.17246  21953878.146    21953886.0254
  21674789.108   -18758862.992 8 -14592312.85047  21674788.207    21674797.1644
 02  1 27  3  2  0.0000000  0 10 06 21 23 18 10 30 22 17 26 15
  20379267.931   -29436493.738 9 -22897687.96948  20379267.577    20379274.5204
  24528379.854    -6585877.560 7  -5089937.20745  24528379.267    24528393.9094
  20607486.596   -20087856.551 9 -15638125.73148  20607485.934    20607493.0934
  21572538.849   -17401900.386 9 -13537738.00547  21572538.273    21572545.6784
  23970163.310    -7786375.671 8  -6049468.46745  23970162.202    23970172.0654
  24010171.978    -7607619.582 7  -5598758.44845  24010172.104    24010183.6144
  23534089.793    -8171943.428 8  -6345874.21845  23534088.940    23534100.3634
  21208603.630   -25782642.661 9 -19737957.24747  21208602.920    21208610.7194
  21945430.899   -20947461.644 8 -15764254.88846  21945430.845    21945438.7464
  21665069.290   -18809940.490 8 -14632113.34647  21665068.396    21665077.3014
 02  1 27  3  2 30.0000000  0 10 06 21 23 18 10 30 22 17 26 15
  20384129.771   -29410944.577 9 -22877779.51048  20384129.411    20384136.3504
  24511218.383    -6676059.832 7  -5160208.62145  24511217.778    24511232.2374
  20611213.053   -20068273.756 9 -15622866.36648  20611212.405    20611219.5284
  21558862.979   -17473767.098 9 -13593737.92347  21558862.410    21558869.7804
  23989821.018    -7683073.389 7  -5968973.18545  23989819.983    23989829.9054
  24029648.959    -7505268.046 7  -5519004.15445  24029649.080    24029660.6434
  23529823.217    -8194364.211 8  -6363344.86145  23529822.293    23529833.7884
  21202929.141   -25812461.881 9 -19761192.93947  21202928.438    21202936.2324
  21937086.464   -20991311.514 8 -15798423.51746  21937086.421    21937094.2854
  21655379.930   -18860857.898 8 -14671789.10447  21655379.033    21655387.8634
 02  1 27  3  3  0.0000000  0 10 06 21 23 18 10 30 22 17 26 15
  20389083.263   -29384913.659 9 -22857495.64748  20389082.902    20389089.8354
  24494088.519    -6766075.645 8  -5230350.33045  24494087.947    24494102.3364
  20615022.847   -20048252.986 9 -15607265.71048  20615022.187    20615029.3144
  21545260.061   -17545250.468 9 -13649439.12747  21545259.477    21545266.8164
  24009491.984    -7579701.252 7  -5888423.47145  24009490.966    24009500.8554
  24049121.895    -7402937.676 7  -5439266.36745  24049121.959    24049133.6894
  23525657.890    -8216252.802 8  -6380400.78845  23525656.947    23525668.4284
  21197283.649   -25842128.791 9 -19784309.94047  21197282.936    21197290.7234
  21928845.233   -21034619.181 8 -15832169.64546  21928845.147    21928852.9964
  21645720.944   -18911615.646 8 -14711340.44047  21645720.020    21645728.8214
 02  1 27  3  3 30.0000000  0 10 06 21 23 18 10 30 22 17 26 15
  20394128.637   -29358399.885 9 -22836835.53948  20394128.279    20394135.2294
  24476990.857    -6855922.803 8  -5300360.63945  24476990.253    24477004.4354
  20618915.835   -20027794.904 9 -15591324.30148  20618915.162    20618922.2714
  21531730.453   -17616348.505 9 -13704840.07747  21531729.874    21531737.1974
  24029176.118    -7476260.219 7  -5807820.08845  24029175.188    24029185.0934
  24068590.575    -7300630.226 7  -5359546.43445  24068590.601    24068602.3384
  23521594.053    -8237608.141 8  -6397041.19645  23521593.130    23521604.5634
  21191667.341   -25871642.472 9 -19807307.54847  21191666.625    21191674.3874
  21920707.819   -21077381.264 8 -15865490.65446  21920707.730    21920715.5504
  21636092.472   -18962212.897 8 -14750766.73847  21636091.606    21636100.3314
 02  1 27  3  4  0.0000000  0 10 06 21 23 18 10 30 22 17 26 15
  20399266.054   -29331402.473 9 -22815798.57148  20399265.712    20399272.6444
  24459925.688    -6945599.236 8  -5370237.93645  24459925.147    24459939.1494
  20622891.894   -20006900.473 9 -15575042.88348  20622891.239    20622898.3224
  21518274.489   -17687059.459 9 -13759939.40747  21518273.899    21518281.2234
  24048873.007    -7372752.251 8  -5727164.55345  24048872.102    24048881.9584
  24088054.428    -7198347.818 8  -5279846.03045  24088054.417    24088066.1424
  23517631.824    -8258429.509 8  -6413265.51945  23517630.913    23517642.3224
  21186080.309   -25901002.418 9 -19830185.36347  21186079.582    21186087.3094
  21912674.719   -21119594.887 8 -15898384.28946  21912674.631    21912682.4534
  21626494.698   -19012649.007 8 -14790067.47647  21626493.830    21626502.5124
 02  1 27  3  4 30.0000000  0 10 06 21 23 18 10 30 22 17 26 15
  20404495.056   -29303923.714 9 -22794386.52748  20404494.712    20404501.6374
  24442892.659    -7035106.730 8  -5439983.58845  24442892.069    24442905.9904
  20626950.170   -19985573.734 9 -15558424.59447  20626949.510    20626956.5904
  21504891.994   -17757384.603 9 -13814738.10347  21504891.384    21504898.6984
  24068581.856    -7269182.129 7  -5646460.56145  24068580.789    24068590.7034
  24107512.472    -7096095.869 8  -5200169.34245  24107512.456    24107524.2584
  23513770.744    -8278719.063 8  -6429075.43645  23513769.876    23513781.1904
  21180522.027   -25930211.165 9 -19852945.36147  21180521.310    21180529.0014
  21904746.002   -21161260.307 8 -15930850.75446  21904745.880    21904753.6954
  21616927.127   -19062926.460 8 -14829244.57647  21616926.244    21616934.8554
 02  1 27  3  5  0.0000000  0 10 06 21 23 18 10 30 22 17 26 15
  20409816.144   -29275961.104 9 -22772597.45548  20409815.799    20409822.7064
  24425892.551    -7124441.337 8  -5509594.54845  24425891.957    24425905.7504
  20631090.899   -19963813.905 9 -15541468.83647  20631090.243    20631097.3004
  21491583.515   -17827320.640 9 -13869233.60647  21491582.907    21491590.1764
  24088302.468    -7165549.687 7  -5565708.01845  24088301.466    24088311.3334
  24126964.650    -6993874.643 8  -5120516.61045  24126964.650    24126976.4914
  23510011.354    -8298474.438 8  -6444469.08845  23510010.419    23510021.7734
  21174993.003   -25959266.312 9 -19875585.67247  21174992.258    21174999.9294
  21896922.467   -21202372.749 8 -15962886.32946  21896922.376    21896930.1684
  21607390.204   -19113042.793 8 -14868296.14147  21607389.316    21607397.8934
 02  1 27  3  5 30.0000000  0 10 06 21 23 18 10 30 22 17 26 15
  20415229.364   -29247514.497 9 -22750431.24448  20415229.021    20415235.9244
  24408925.564    -7213602.115 7  -5579070.06145  24408924.824    24408938.6584
  20635313.743   -19941622.648 9 -15524176.90347  20635313.070    20635320.1064
  21478349.396   -17896865.997 9 -13923424.68047  21478348.769    21478356.0204
  24108034.505    -7061856.946 7  -5484908.51345  24108033.476    24108043.4914
  24146410.398    -6891686.832 8  -5040889.91445  24146410.448    24146422.2634
  23506353.648    -8317695.391 8  -6459446.32145  23506352.711    23506364.0524
  21169493.147   -25988168.023 9 -19898106.41547  21169492.395    21169500.0424
  21889204.579   -21242929.997 8 -15994489.28546  21889204.500    21889212.2954
  21597883.955   -19162998.052 8 -14907222.19247  21597883.067    21597891.6104
 02  1 27  3  6  0.0000000  0 10 06 21 23 18 10 30 22 17 26 15
  20420734.532   -29218584.400 9 -22727888.28648  20420734.210    20420741.0914
  24391991.731    -7302588.018 7  -5648409.33045  24391990.997    24392004.7704
  20639618.237   -19919002.175 9 -15506550.51147  20639617.590    20639624.5984
  21465189.597   -17966020.559 9 -13977311.23947  21465188.999    21465196.2204
  24127777.511    -6958106.876 7  -5404064.33745  24127776.418    24127786.6274
  24165849.150    -6789535.817 8  -4961291.88845  24165849.200    24165861.0324
  23502797.546    -8336382.435 8  -6474007.49045  23502796.653    23502807.9614
  21164022.392   -26016916.786 9 -19920507.97747  21164021.643    21164029.2874
  21881592.711   -21282930.368 8 -16025658.31046  21881592.658    21881600.3884
  21588408.200   -19212792.836 8 -14946023.20647  21588407.347    21588415.8454
 02  1 27  3  6 30.0000000  0 10 06 21 23 18 10 30 22 17 26 15
  20426331.666   -29189171.203 9 -22704968.89048  20426331.325    20426338.2034
  24375091.282    -7391398.626 7  -5717612.00045  24375090.617    24375104.3904
  20644004.033   -19895954.522 9 -15488591.25747  20644003.364    20644010.3634
  21452104.360   -18034783.578 9 -14030892.70447  21452103.768    21452110.9664
  24147530.895    -6854302.253 8  -5323177.63545  24147529.853    24147539.9004
  24185280.278    -6687424.993 8  -4881725.17345  24185280.319    24185292.1314
  23499342.884    -8354536.065 8  -6488153.02245  23499342.015    23499353.2864
  21158580.610   -26045513.189 9 -19942790.82447  21158579.880    21158587.5034
  21874087.143   -21322372.194 8 -16056392.11346  21874087.055    21874094.7394
  21578962.924   -19262427.376 8 -14984699.35447  21578962.076    21578970.5984
 02  1 27  3  7  0.0000000  0 10 06 21 23 18 10 30 22 17 26 15
  20432020.992   -29159273.736 9 -22681672.13748  20432020.627    20432027.4774
  24358224.493    -7480031.703 7  -5786676.36945  24358223.864    24358237.4694
  20648471.018   -19872480.312 9 -15470299.62047  20648470.351    20648477.3304
  21439093.970   -18103153.017 9 -14084167.48147  21439093.385    21439100.5644
  24167294.424    -6750444.164 8  -5242249.27345  24167293.421    24167303.4964
  24204703.553    -6585355.666 8  -4802190.80045  24204703.562    24204715.5004
  23495990.082    -8372155.003 8  -6501881.90445  23495989.215    23496000.4094
  21153168.022   -26073956.170 9 -19964954.11747  21153167.297    21153174.9264
  21866688.506   -21361252.148 8 -16086688.08646  21866688.427    21866696.0464
  21569548.384   -19311900.514 8 -15023249.73547  21569547.543    21569556.0554
 02  1 27  3  7 30.0000000  0 10 06 21 23 18 10 30 22 17 26 15
  20437802.156   -29128893.345 9 -22657999.08448  20437801.804    20437808.6634
  24341391.565    -7568487.456 7  -5855602.58645  24341390.907    24341404.3414
  20653018.550   -19848582.518 9 -15451677.91747  20653017.893    20653024.8564
  21426158.450   -18171129.222 9 -14137135.84347  21426157.860    21426165.0354
  24187067.482    -6646536.191 8  -5161282.03345  24187066.492    24187076.5474
  24224118.149    -6483332.175 8  -4722692.12945  24224118.102    24224130.0974
  23492738.675    -8389240.613 8  -6515195.18946  23492737.756    23492748.9704
  21147784.392   -26102247.082 9 -19986998.91547  21147783.674    21147791.2614
  21859396.886   -21399569.374 8 -16116545.56946  21859396.825    21859404.4734
  21560164.293   -19361213.909 9 -15061675.64047  21560163.430    21560171.9174
 02  1 27  3  8  0.0000000  0 10 06 21 23 18 10 30 22 17 26 15
  20443675.555   -29098028.263 9 -22633948.34747  20443675.208    20443682.0634
  24324593.046    -7656762.478 7  -5924388.00245  24324592.306    24324605.7914
  20657646.722   -19824261.144 9 -15432726.15747  20657646.059    20657653.0204
  21413298.267   -18238709.415 9 -14189795.62547  21413297.683    21413304.8344
  24206849.977    -6542578.476 8  -5080276.03745  24206849.127    24206859.0894
  24243523.773    -6381355.427 7  -4643229.88145  24243523.718    24243535.6944
  23489589.077    -8405791.320 8  -6528091.66746  23489588.127    23489599.3884
  21142430.056   -26130384.150 9 -20008923.83447  21142429.321    21142436.8924
  21852213.076   -21437320.222 8 -16145961.72846  21852212.998    21852220.6344
  21550810.941   -19410365.720 9 -15099975.63247  21550810.075    21550818.5284
 02  1 27  3  8 30.0000000  0 10 06 21 23 18 10 30 22 17 26 15
  20449641.066   -29066679.190 9 -22609520.47947  20449640.718    20449647.5474
  24307829.136    -7744856.266 8  -5993032.23045  24307828.381    24307841.7074
  20662355.013   -19799518.683 9 -15413446.27347  20662354.370    20662361.3164
  21400513.549   -18305893.280 9 -14242146.58047  21400512.963    21400520.0824
  24226641.349    -6438574.103 8  -4999233.69145  24226640.476    24226650.4694
  24262919.801    -6279428.846 7  -4563806.73645  24262919.760    24262931.6974
  23486541.164    -8421807.599 8  -6540571.71746  23486540.287    23486551.4164
  21137104.774   -26158368.207 9 -20030729.52747  21137104.057    21137111.6114
  21845137.366   -21474503.089 8 -16174935.29546  21845137.266    21845144.9004
  21541488.200   -19459356.567 9 -15138150.19947  21541487.339    21541495.7684
 02  1 27  3  9  0.0000000  0 10 06 21 23 18 10 30 22 17 26 15
  20455698.533   -29034846.948 9 -22584716.11547  20455698.185    20455704.9794
  24291099.711    -7832769.025 8  -6061535.42745  24291098.993    24291111.9114
  20667143.000   -19774357.495 9 -15393840.11547  20667142.335    20667149.2764
  21387804.277   -18372680.606 9 -14294188.54547  21387803.682    21387810.7524
  24246441.086    -6334526.076 7  -4918157.35145  24246440.169    24246450.2084
  24282305.672    -6177555.873 7  -4484425.36645  24282305.710    24282317.5694
  23483594.783    -8437290.462 8  -6552636.10046  23483593.877    23483604.9824
  21131808.526   -26186199.977 9 -20052416.55947  21131807.794    21131815.3334
  21838169.922   -21511116.767 8 -16203465.34246  21838169.860    21838177.4594
  21532195.953   -19508187.067 9 -15176199.82147  21532195.102    21532203.5074
 02  1 27  3  9 30.0000000  0 10 06 21 23 18 10 30 22 17 26 15
  20461848.070   -29002530.920 9 -22559534.78047  20461847.718    20461854.4904
  24274405.141    -7920498.707 8  -6129895.96445  24274404.390    24274417.1404
  20672010.490   -19748778.487 9 -15373908.38247  20672009.826    20672016.7724
  21375170.786   -18439069.727 9 -14345920.22147  21375170.188    21375177.2294
  24266248.931    -6230435.584 7  -4837047.88145  24266248.026    24266258.0644
  24301680.927    -6075738.560 7  -4405087.36045  24301680.897    24301693.0604
  23480750.004    -8452239.220 8  -6564284.29646  23480749.086    23480760.1224
  21126541.374   -26213878.808 9 -20073984.41647  21126540.650    21126548.1844
  21831311.345   -21547158.422 8 -16231549.66846  21831311.268    21831318.8524
  21522934.351   -19556856.708 9 -15214124.09647  21522933.513    21522941.8524
 02  1 27  3 10  0.0000000  0 10 06 21 23 18 10 30 22 17 26 15
  20468089.791   -28969730.361 9 -22533975.87847  20468089.427    20468096.1974
  24257745.702    -8008043.490 7  -6198112.43545  24257745.083    24257757.7804
  20676957.290   -19722782.742 9 -15353651.91247  20676956.631    20676963.5504
  21362613.365   -18505058.909 9 -14397340.25547  21362612.771    21362619.7944
  24286064.472    -6126304.390 7  -4755906.71345  24286063.518    24286073.4944
  24321045.081    -5973978.855 7  -4325794.26045  24321045.041    24321057.5164
  23478007.000    -8466653.177 8  -6575515.77946  23478006.075    23478017.0474
  21121303.463   -26241403.891 9 -20095432.46547  21121302.737    21121310.2844
  21824562.141   -21582625.357 8 -16259186.14947  21824562.060    21824569.6254
  21513703.569   -19605364.495 9 -15251922.24947  21513702.704    21513710.9934
 02  1 27  3 10 30.0000000  0 10 06 21 23 18 10 30 22 17 26 15
  20474423.455   -28936446.544 9 -22508040.41847  20474423.112    20474429.8734
  24241121.543    -8095403.058 8  -6266184.58645  24241120.852    24241133.5594
  20681982.817   -19696373.246 9 -15333073.04647  20681982.152    20681989.0714
  21350131.990   -18570648.430 9 -14448448.87247  21350131.412    21350138.4304
  24305887.082    -6022135.817 7  -4674736.44545  24305886.145    24305896.1494
  24340397.709    -5872280.696 7  -4246549.13245  24340397.693    24340410.1684
  23475365.467    -8480533.665 8  -6586331.57046  23475364.593    23475375.5604
  21116094.571   -26268776.462 9 -20116761.67347  21116093.853    21116101.4034
  21817922.492   -21617516.768 8 -16286374.17047  21817922.377    21817929.9514
  21504503.413   -19653711.527 9 -15289595.15047  21504502.533    21504510.7554
 02  1 27  3 11  0.0000000  0 10 06 21 23 18 10 30 22 17 26 15
  20480849.342   -28902678.376 9 -22481727.54547  20480848.983    20480855.7514
  24224533.067    -8182575.310 8  -6334110.76645  24224532.346    24224544.9694
  20687086.988   -19669550.489 9 -15312172.15847  20687086.318    20687093.2364
  21337727.139   -18635836.074 9 -14499244.33547  21337726.539    21337733.5254
  24325716.627    -5917930.873 7  -4593537.81045  24325715.717    24325725.5744
  24359738.415    -5770645.615 7  -4167353.15245  24359738.414    24359750.8844
  23472825.800    -8493879.697 8  -6596730.90846  23472824.882    23472835.6884
  21110914.954   -26295995.324 9 -20137971.11747  21110914.248    21110921.7714
  21811392.942   -21651829.450 8 -16313111.24547  21811392.837    21811400.3474
  21495333.976   -19701896.615 9 -15327141.85647  21495333.101    21495341.2944
 02  1 27  3 11 30.0000000  0 10 06 21 23 18 10 30 22 17 26 15
  20487367.062   -28868427.440 9 -22455038.49047  20487366.711    20487373.4594
  24207980.080    -8269560.413 8  -6401891.14545  24207979.435    24207991.9804
  20692269.210   -19642317.556 9 -15290951.65347  20692268.531    20692275.4534
  21325398.633   -18700622.383 9 -14549727.07547  21325398.034    21325404.9594
  24345552.557    -5813692.911 7  -4512313.45045  24345551.556    24345561.5034
  24379066.342    -5669077.497 7  -4088209.34245  24379066.313    24379078.8864
  23470387.376    -8506692.884 8  -6606715.04546  23470386.470    23470397.2754
  21105764.337   -26323061.804 9 -20159061.81747  21105763.614    21105771.1104
  21804973.631   -21685562.740 8 -16339396.83747  21804973.531    21804980.9914
  21486195.082   -19749921.236 9 -15364563.52247  21486194.208    21486202.3934
 02  1 27  3 12  0.0000000  0 10 06 21 23 18 10 30 22 17 26 15
  20493977.100   -28833691.295 9 -22427971.34347  20493976.735    20493983.4834
  24191463.425    -8356355.035 8  -6469523.08845  24191462.839    24191475.3214
  20697529.607   -19614673.841 9 -15269411.05647  20697528.939    20697535.8474
  21313147.080   -18765004.213 9 -14599894.63147  21313146.496    21313153.3924
  24365394.804    -5709421.721 7  -4431063.18545  24365393.610    24365403.5404
  24398381.528    -5567576.783 7  -4009118.06545  24398381.552    24398394.0364
  23468050.757    -8518970.968 8  -6616282.20946  23468049.857    23468060.6584
  21100643.156   -26349973.501 9 -20180031.90647  21100642.459    21100649.9124
  21798665.343   -21718712.419 8 -16365227.67147  21798665.278    21798672.7174
  21477087.258   -19797782.774 9 -15401858.11547  21477086.393    21477094.5514
 02  1 27  3 12 30.0000000  0 10 06 21 23 18 10 30 22 17 26 15
  20500678.891   -28798473.003 9 -22400528.50347  20500678.536    20500685.2904
  24174982.749    -8442960.669 8  -6537007.78845  24174982.159    24174994.5714
  20702867.271   -19586623.970 9 -15247553.97247  20702866.614    20702873.5164
  21300972.180   -18828983.315 9 -14649748.37547  21300971.584    21300978.4824
  24385242.441    -5605121.986 7  -4349790.67845  24385241.388    24385251.3154
  24417682.790    -5466148.758 7  -3930083.41645  24417682.849    24417695.2534
  23465815.442    -8530716.938 8  -6625434.76446  23465814.525    23465825.2854
  21095550.950   -26376733.181 9 -20200883.54547  21095550.245    21095557.6644
  21792467.986   -21751279.364 8 -16390604.43047  21792467.929    21792475.3374
  21468009.865   -19845484.205 9 -15439027.95547  21468008.987    21468017.1614
 02  1 27  3 13  0.0000000  0 10 06 21 23 18 10 30 22 17 26 15
  20507472.871   -28762770.242 9 -22372708.15347  20507472.532    20507479.2814
  24158538.660    -8529373.588 8  -6604342.31645  24158538.142    24158550.4394
  20708282.356   -19558167.351 9 -15225379.94647  20708281.705    20708288.5824
  21288874.526   -18892556.306 9 -14699285.67347  21288873.959    21288880.8564
  24405095.457    -5500793.305 7  -4268495.63045  24405094.395    24405104.4144
  24436970.151    -5364793.839 8  -3851105.74645  24436970.277    24436982.6934
  23463681.822    -8541928.617 8  -6634170.97046  23463680.912    23463691.6434
  21090488.112   -26403338.390 9 -20221614.81447  21090487.399    21090494.8114
  21786382.372   -21783259.258 8 -16415523.75047  21786382.321    21786389.6824
  21458963.426   -19893022.911 9 -15476070.99847  21458962.579    21458970.7264
 02  1 27  3 13 30.0000000  0 10 06 21 23 18 10 30 22 17 26 15
  20514358.892   -28726583.976 9 -22344511.05147  20514358.535    20514365.2954
  24142131.479    -8615593.665 8  -6671526.56745  24142130.821    24142143.1114
  20713774.432   -19529306.407 9 -15202890.85547  20713773.753    20713780.6134
  21276854.210   -18955723.184 9 -14748506.52147  21276853.641    21276860.5104
  24424953.395    -5396438.746 7  -4187180.40745  24424952.248    24424962.4704
  24456243.040    -5263515.271 8  -3772187.56545  24456243.205    24456255.5034
  23461649.674    -8552606.921 8  -6642491.56646  23461648.739    23461659.5064
  21085454.512   -26429789.775 9 -20242226.22547  21085453.804    21085461.1984
  21780408.648   -21814650.872 8 -16439984.66247  21780408.607    21780415.9544
  21449947.939   -19940399.377 9 -15512987.62047  21449947.071    21449955.2034
 02  1 27  3 14  0.0000000  0 10 06 21 23 18 10 30 22 17 26 15
  20521336.933   -28689914.035 9 -22315937.05647  20521336.584    20521343.3384
  24125761.198    -8701619.209 8  -6738559.24145  24125760.514    24125772.7674
  20719343.093   -19500042.681 9 -15180087.91347  20719342.418    20719349.2714
  21264911.407   -19018482.630 9 -14797409.88947  21264910.829    21264917.6504
  24444815.968    -5292060.200 7  -4105846.48945  24444814.817    24444824.8224
  24475500.873    -5162315.440 8  -3693330.74945  24475501.073    24475513.3914
  23459718.967    -8562751.878 8  -6650396.58246  23459718.065    23459728.7654
  21080450.220   -26456087.165 9 -20262717.63947  21080449.519    21080456.9074
  21774547.317   -21845452.187 8 -16463985.61447  21774547.255    21774554.5544
  21440963.271   -19987613.488 9 -15549777.74247  21440962.411    21440970.5324
 02  1 27  3 14 30.0000000  0 10 06 21 23 18 10 30 22 17 26 15
  20528406.877   -28652761.139 9 -22286986.73447  20528406.510    20528413.2614
  24109427.828    -8787450.193 8  -6805440.31545  24109427.261    24109439.4594
  20724987.950   -19470378.382 9 -15156972.83347  20724987.290    20724994.1384
  21253046.199   -19080834.430 9 -14845995.61647  21253045.633    21253052.4284
  24464682.757    -5187659.893 7  -4024495.59945  24464681.573    24464691.3644
  24494743.152    -5061197.442 8  -3614537.69845  24494743.312    24494755.6514
  23457889.635    -8572364.301 8  -6657886.63846  23457888.692    23457899.3974
  21075475.191   -26482230.769 9 -20283089.22047  21075474.483    21075481.8594
  21768798.552   -21875661.847 8 -16487525.52847  21768798.515    21768805.7734
  21432009.435   -20034665.723 9 -15586441.72747  21432008.579    21432016.6824
 02  1 27  3 15  0.0000000  0 10 06 21 23 18 10 30 22 17 26 15
  20535568.416   -28615126.938 9 -22257661.36547  20535568.062    20535574.7904
  24093131.558    -8873086.806 7  -6872169.90145  24093130.943    24093143.1204
  20730708.465   -19440316.753 9 -15133548.14447  20730707.810    20730714.6294
  21241258.400   -19142779.185 9 -14894264.15847  21241257.823    21241264.6114
  24484552.959    -5083241.407 7  -3943130.55545  24484551.807    24484561.4864
  24513969.094    -4960165.213 7  -3535811.48245  24513969.242    24513981.5674
  23456161.246    -8581445.779 8  -6664962.95446  23456160.358    23456171.0734
  21070529.191   -26508221.926 9 -20303342.00347  21070528.477    21070535.8394
  21763162.422   -21905279.436 8 -16510604.09147  21763162.407    21763169.6464
  21423086.251   -20081557.076 9 -15622980.34547  21423085.397    21423093.4564
 02  1 27  3 15 30.0000000  0 10 06 21 23 18 10 30 22 17 26 15
  20542822.134   -28577008.525 9 -22227958.69047  20542821.770    20542828.4894
  24076873.072    -8958524.872 7  -6938744.77845  24076872.449    24076884.5414
  20736504.852   -19409856.503 9 -15109812.84347  20736504.197    20736510.9974
  21229548.846   -19204312.957 9 -14942212.45947  21229548.270    21229555.0274
  24504426.724    -4978803.857 7  -3861750.64945  24504425.609    24504435.2534
  24533178.679    -4859218.366 7  -3457151.79245  24533178.914    24533191.2414
  23454534.592    -8589993.589 8  -6671623.43845  23454533.654    23454544.3184
  21065612.790   -26534057.592 9 -20323473.62847  21065612.090    21065619.4324
  21757639.885   -21934300.089 8 -16533217.51647  21757639.880    21757647.1054
  21414194.288   -20128284.323 9 -15659391.09547  21414193.423    21414201.4564
 02  1 27  3 16  0.0000000  0 10 06 21 23 18 10 30 22 17 26 15
  20550167.360   -28538408.915 9 -22197881.05547  20550167.015    20550173.7234
  24060652.066    -9043765.647 8  -7005165.92245  24060651.408    24060663.5924
  20742376.205   -19379002.174 9 -15085770.46947  20742375.542    20742382.3414
  21217917.150   -19265437.610 9 -14989841.96647  21217916.572    21217923.2894
  24524303.281    -4874351.938 7  -3780359.55245  24524302.018    24524311.9084
  24552371.069    -4758362.132 7  -3378562.72845  24552371.246    24552383.7514
  23453008.819    -8598010.933 8  -6677870.57345  23453007.831    23453018.4874
  21060725.492   -26559740.290 9 -20343486.05747  21060724.784    21060732.1144
  21752230.810   -21962724.740 8 -16555366.52247  21752230.804    21752237.9854
  21405332.993   -20174850.206 9 -15695676.11247  21405332.147    21405340.1844
 02  1 27  3 16 30.0000000  0 10 06 21 23 18 10 30 22 17 26 15
  20557604.870   -28499324.563 9 -22167425.70547  20557604.517    20557611.2144
  24044469.510    -9128804.407 7  -7071429.65145  24044468.861    24044481.0624
  20748322.922   -19347751.791 9 -15061419.48747  20748322.265    20748329.0504
  21206364.178   -19326148.587 9 -15037149.13647  21206363.590    21206370.3004
  24544183.037    -4769883.446 7  -3698955.55245  24544181.927    24544191.6044
  24571546.529    -4657595.269 7  -3300043.29045  24571546.652    24571559.3064
  23451584.591    -8605494.338 8  -6683701.64746  23451583.666    23451594.3054
  21055868.024   -26585266.172 9 -20363376.29247  21055867.317    21055874.6274
  21746936.226   -21990547.960 8 -16577046.89047  21746936.179    21746943.3354
  21396503.216   -20221250.850 9 -15731832.37147  21396502.360    21396510.3534
 02  1 27  3 17  0.0000000  0 10 06 21 23 18 10 30 22 17 26 15
  20565133.501   -28459761.104 9 -22136597.01947  20565133.155    20565139.8534
  24028324.648    -9213645.417 8  -7137539.29245  24028324.048    24028336.0904
  20754343.669   -19316112.420 9 -15036765.39547  20754343.007    20754349.7854
  21194889.056   -19386450.295 9 -15084137.38547  21194888.464    21194895.1744
  24564064.484    -4665405.930 7  -3617544.51845  24564063.383    24564073.3524
  24590703.449    -4556925.589 7  -3221599.57945  24590703.670    24590716.3124
  23450261.008    -8612449.375 8  -6689120.99746  23450260.063    23450270.7464
  21051039.417   -26610640.356 9 -20383148.31447  21051038.709    21051046.0254
  21741755.350   -22017773.310 8 -16598261.37447  21741755.316    21741762.4424
  21387703.901   -20267491.174 9 -15767863.70547  21387703.021    21387710.9854
 02  1 27  3 17 30.0000000  0 10 06 21 23 18 10 30 22 17 26 15
  20572753.923   -28419715.531 9 -22105392.66647  20572753.569    20572760.2864
  24012218.225    -9298284.650 8  -7203491.70745  24012217.618    24012229.5404
  20760438.718   -19284082.662 9 -15011807.10647  20760438.048    20760444.8024
  21183492.637   -19446338.589 9 -15130803.50247  21183492.034    21183498.7194
  24583947.888    -4560918.137 7  -3536125.48845  24583946.738    24583956.7514
  24609842.023    -4456352.537 7  -3143231.16645  24609842.201    24609855.0084
  23449038.506    -8618873.125 8  -6694126.38046  23449037.559    23449048.2094
  21046240.319   -26635859.627 9 -20402799.63447  21046239.602    21046246.8874
  21736689.212   -22044395.709 8 -16619006.03547  21736689.163    21736696.2804
  21378935.710   -20313567.979 9 -15803767.62247  21378934.831    21378942.7554
 02  1 27  3 18  0.0000000  0 10 06 21 23 18 10 30 22 17 26 15
  20580465.949   -28379188.489 9 -22073813.14147  20580465.610    20580472.3124
  23996150.382    -9382721.186 8  -7269286.17645  23996149.722    23996161.4924
  20766607.596   -19251664.770 9 -14986546.37647  20766606.927    20766613.6714
  21172174.932   -19505813.198 9 -15177147.26647  21172174.329    21172180.9824
  24603832.760    -4456422.164 7  -3454700.07745  24603831.532    24603841.6374
  24628961.573    -4355878.878 7  -3064940.19345  24628961.745    24628974.8954
  23447916.912    -8624766.708 8  -6698718.64346  23447915.996    23447926.5674
  21041470.675   -26660923.995 9 -20422330.24547  21041469.963    21041477.2194
  21731738.099   -22070413.970 8 -16639279.94347  21731738.021    21731745.1234
  21370198.661   -20359481.225 9 -15839544.09047  21370197.790    21370205.6714
 02  1 27  3 18 30.0000000  0 10 06 21 23 18 10 30 22 17 26 15
  20588269.413   -28338180.951 9 -22041859.20647  20588269.068    20588275.7774
  23980121.091    -9466954.497 8  -7334922.29045  23980120.468    23980132.1104
  20772849.883   -19218861.229 9 -14960985.14147  20772849.216    20772855.9634
  21160935.969   -19564874.040 9 -15223168.61447  21160935.360    21160942.0064
  24623718.672    -4351920.786 7  -3373270.44445  24623717.525    24623727.5954
  24648061.450    -4255507.797 7  -2986729.18345  24648061.802    24648074.8614
  23446896.067    -8630131.015 8  -6702898.47646  23446895.133    23446905.6434
  21036730.418   -26685834.084 9 -20441740.64147  21036729.705    21036736.9284
  21726902.034   -22095827.347 8 -16659082.51047  21726901.949    21726909.0314
  21361492.555   -20405231.717 9 -15875193.72847  21361491.677    21361499.5434
 02  1 27  3 19  0.0000000  0 10 06 21 23 18 10 30 22 17 26 15
  20596164.497   -28296691.955 9 -22009530.11147  20596164.172    20596170.8694
  23964130.943    -9550982.450 8  -7400398.39345  23964130.319    23964141.7104
  20779165.448   -19185672.413 9 -14935123.69647  20779164.774    20779171.5484
  21149776.163   -19623518.918 9 -15268865.84447  21149775.565    21149782.1674
  24643605.560    -4247414.897 7  -3291837.31845  24643604.428    24643614.5154
  24667141.945    -4155240.524 7  -2908599.02145  24667142.332    24667155.1164
  23445976.098    -8634965.211 8  -6706665.25346  23445975.169    23445985.5534
  21032019.773   -26710588.335 9 -20461029.61747  21032019.066    21032026.2744
  21722181.696   -22120632.592 8 -16678411.21047  21722181.607    21722188.7134
  21352817.707   -20450817.977 9 -15910715.39847  21352816.813    21352824.6864
 02  1 27  3 19 30.0000000  0 10 06 21 23 18 10 30 22 17 26 15
  20604150.956   -28254722.716 9 -21976826.79547  20604150.613    20604157.2964
  23948179.908    -9634804.517 8  -7465714.04745  23948179.261    23948190.5624
  20785553.833   -19152101.006 9 -14908964.12147  20785553.181    20785559.9444
  21138695.441   -19681748.179 9 -15314239.20747  21138694.846    21138701.3884
  24663492.941    -4142906.819 7  -3210402.45845  24663491.850    24663501.8614
  24686202.040    -4055080.370 7  -2830552.32045  24686202.347    24686215.3364
  23445156.648    -8639270.567 8  -6710019.93746  23445155.746    23445166.0534
  21027338.664   -26735187.507 9 -20480197.74747  21027337.957    21027345.1544
  21717577.208   -22144829.043 8 -16697265.52147  21717577.114    21717584.2224
  21344174.000   -20496240.637 9 -15946109.58047  21344173.097    21344180.9644
 02  1 27  3 20  0.0000000  0 10 06 21 23 18 10 30 22 17 26 15
  20612228.695   -28212273.879 9 -21943749.76547  20612228.341    20612235.0244
  23932268.262    -9718419.893 8  -7530868.65145  23932267.556    23932278.9374
  20792014.638   -19118149.170 9 -14882508.10947  20792013.968    20792020.7444
  21127693.963   -19739561.025 9 -15359288.09147  21127693.362    21127699.8904
  24683380.254    -4038398.376 7  -3128967.30745  24683379.202    24683389.2564
  24705241.116    -3955030.186 7  -2752591.30345  24705241.448    24705254.4784
  23444437.756    -8643047.852 8  -6712963.14446  23444436.825    23444447.1644
  21022687.045   -26759631.699 9 -20499245.11047  21022686.337    21022693.5204
  21713088.811   -22168415.359 8 -16715644.39847  21713088.732    21713095.7864
  21335561.436   -20541499.650 9 -15981376.25147  21335560.529    21335568.3474
 02  1 27  3 20 30.0000000  0  9 06 21 23 18 10 22 17 26 15
  20620398.157   -28169343.124 9 -21910297.22347  20620397.816    20620404.4774
  23916396.589    -9801825.190 8  -7595859.54745  23916396.004    23916407.3204
  20798547.955   -19083816.183 9 -14855755.09947  20798547.275    20798554.0254
  21116772.305   -19796954.367 9 -15404010.09547  21116771.703    21116778.2094
  24703267.517    -3933889.220 7  -3047531.63345  24703266.584    24703276.7534
  23443819.678    -8646295.068 8  -6715493.31045  23443818.753    23443829.1464
  21018065.468   -26783918.064 9 -20518169.49947  21018064.747    21018071.9354
  21708717.361   -22191387.290 8 -16733544.53947  21708717.268    21708724.3034
  21326980.530   -20586592.174 9 -16016513.19247  21326979.639    21326987.4204
 02  1 27  3 21  0.0000000  0  9 06 21 23 18 10 22 17 26 15
  20628658.858   -28125932.677 9 -21876470.88947  20628658.517    20628665.1874
  23900564.773    -9885021.102 8  -7660687.28145  23900564.194    23900575.4974
  20805153.159   -19049105.434 9 -14828707.72747  20805152.493    20805159.2234
  21105930.316   -19853929.059 9 -15448405.87647  21105929.719    21105936.1984
  24723154.201    -3829382.928 7  -2966098.19545  24723153.307    24723163.6494
  23443302.080    -8649014.296 8  -6717612.07245  23443301.240    23443311.5284
  21013473.623   -26808048.038 9 -20536972.02347  21013472.906    21013480.0834
  21704462.744   -22213745.216 8 -16750966.24147  21704462.653    21704469.6874
  21318431.000   -20631519.830 9 -16051521.66147  21318430.118    21318437.8744
 02  1 27  3 21 30.0000000  0  8 06 21 23 18 22 17 26 15
  20637011.219   -28082040.841 9 -21842269.44847  20637010.865    20637017.5314
  23884773.403    -9968004.287 8  -7725349.25745  23884772.846    23884784.1244
  20811830.257   -19014016.952 9 -14801366.01947  20811829.600    20811836.3304
  21095168.500   -19910482.350 9 -15492473.29547  21095167.929    21095174.3544
  23442885.309    -8651204.242 8  -6719318.40245  23442884.379    23442894.5944
  21008911.978   -26832019.503 9 -20555651.03147  21008911.263    21008918.4144
  21700325.637   -22235485.537 8 -16767906.69047  21700325.547    21700332.5744
  21309913.253   -20676280.340 9 -16086399.88347  21309912.405    21309920.1094
 02  1 27  3 22  0.0000000  0  8 06 21 23 18 22 17 26 15
  20645454.765   -28037669.679 9 -21807694.50847  20645454.409    20645461.0814
  23869022.328   -10050775.602 8  -7789846.14945  23869021.791    23869033.0224
  20818578.616   -18978553.854 9 -14773732.40847  20818577.968    20818584.6714
  21084486.704   -19966615.192 9 -15536213.09847  21084486.134    21084492.5224
  23442568.752    -8652866.921 8  -6720613.88845  23442567.819    23442578.0564
  21004380.245   -26855833.694 9 -20574207.49947  21004379.531    21004386.6524
  21696306.066   -22256608.316 8 -16784365.93047  21696305.980    21696312.9884
  21301427.126   -20720874.823 9 -16121148.73947  21301426.270    21301433.9424
 02  1 27  3 22 30.0000000  0  8 06 21 23 18 22 17 26 15
  20653988.879   -27992822.449 9 -21772748.60247  20653988.531    20653995.2214
  23853311.288   -10133336.569 8  -7854179.11645  23853310.687    23853321.9954
  20825397.371   -18942721.090 9 -14745810.73547  20825396.698    20825403.3824
  21073884.492   -20022329.836 9 -15579627.02247  21073883.924    21073890.3034
  23442351.946    -8654005.765 8  -6721501.19245  23442350.998    23442361.1864
  20999877.961   -26879493.218 9 -20592643.43747  20999877.267    20999884.3574
  21692403.747   -22277114.981 8 -16800345.08247  21692403.681    21692410.6374
  21292972.047   -20765306.229 9 -16155770.52547  21292971.203    21292978.8364
 02  1 27  3 23  0.0000000  0  8 06 21 23 18 22 17 26 15
  20662613.204   -27947501.259 9 -21737433.37847  20662612.861    20662619.5524
  23837640.140   -10215687.971 8  -7918348.80545  23837639.506    23837650.8274
  20832285.772   -18906522.034 9 -14717603.64747  20832285.109    20832291.7804
  21063361.725   -20077627.043 9 -15622715.67947  21063361.149    21063367.5274
  23442234.415    -8654623.119 8  -6721982.14545  23442233.430    23442243.5924
  20995404.753   -26902999.798 9 -20610960.20547  20995404.044    20995411.1394
  21688618.572   -22297005.829 8 -16815844.38247  21688618.512    21688625.4224
  21284547.780   -20809575.811 9 -16190266.21347  21284546.935    21284554.5344
